<?xml version="1.0" encoding="UTF-8" standalone="no" ?>
<gpx xmlns="http://www.topografix.com/GPX/1/1" xmlns:xsi="http://www.w3.org/2001/XMLSchema-instance" xsi:schemaLocation="http://www.topografix.com/GPX/1/1 http://www.topografix.com/GPX/1/1/gpx.xsd" version="1.1" creator="VisuGPX - https://www.visugpx.com">
  <metadata>
    <name>Roue des Forts 20 km</name>
  </metadata>
  <trk>
    <name><![CDATA[20 rando définitif]]></name>
    <trkseg>
      <trkpt lat="48.14793" lon="6.45159">
        <ele>410.141316</ele>
        <time>2022-06-07T13:25:48.025Z</time>
      </trkpt>
      <trkpt lat="48.14775" lon="6.45161">
        <ele>410.141316</ele>
        <time>2022-06-07T13:26:25.794Z</time>
      </trkpt>
      <trkpt lat="48.14772" lon="6.45175">
        <ele>410.141316</ele>
        <time>2022-06-07T13:26:28.771Z</time>
      </trkpt>
      <trkpt lat="48.14771" lon="6.45191">
        <ele>410.141316</ele>
        <time>2022-06-07T13:26:31.779Z</time>
      </trkpt>
      <trkpt lat="48.14769" lon="6.45207">
        <ele>410.141316</ele>
        <time>2022-06-07T13:26:34.770Z</time>
      </trkpt>
      <trkpt lat="48.14767" lon="6.4522">
        <ele>410.141316</ele>
        <time>2022-06-07T13:26:37.769Z</time>
      </trkpt>
      <trkpt lat="48.14765" lon="6.45234">
        <ele>410.141316</ele>
        <time>2022-06-07T13:26:40.757Z</time>
      </trkpt>
      <trkpt lat="48.14763" lon="6.45248">
        <ele>410.141316</ele>
        <time>2022-06-07T13:26:43.761Z</time>
      </trkpt>
      <trkpt lat="48.14768" lon="6.45262">
        <ele>410.141316</ele>
        <time>2022-06-07T13:26:46.748Z</time>
      </trkpt>
      <trkpt lat="48.14778" lon="6.45265">
        <ele>409.798795</ele>
        <time>2022-06-07T13:26:49.763Z</time>
      </trkpt>
      <trkpt lat="48.14788" lon="6.45268">
        <ele>409.320333</ele>
        <time>2022-06-07T13:26:52.787Z</time>
      </trkpt>
      <trkpt lat="48.14797" lon="6.4527">
        <ele>408.85392</ele>
        <time>2022-06-07T13:26:55.780Z</time>
      </trkpt>
      <trkpt lat="48.14807" lon="6.45274">
        <ele>408.375718</ele>
        <time>2022-06-07T13:26:58.789Z</time>
      </trkpt>
      <trkpt lat="48.14817" lon="6.45278">
        <ele>407.873317</ele>
        <time>2022-06-07T13:27:02.751Z</time>
      </trkpt>
      <trkpt lat="48.14828" lon="6.45278">
        <ele>407.354055</ele>
        <time>2022-06-07T13:27:06.774Z</time>
      </trkpt>
      <trkpt lat="48.14837" lon="6.45266">
        <ele>406.783401</ele>
        <time>2022-06-07T13:27:10.737Z</time>
      </trkpt>
      <trkpt lat="48.14845" lon="6.45257">
        <ele>406.327716</ele>
        <time>2022-06-07T13:27:13.758Z</time>
      </trkpt>
      <trkpt lat="48.14854" lon="6.45251">
        <ele>405.865866</ele>
        <time>2022-06-07T13:27:16.778Z</time>
      </trkpt>
      <trkpt lat="48.14864" lon="6.45255">
        <ele>405.34278</ele>
        <time>2022-06-07T13:27:20.792Z</time>
      </trkpt>
      <trkpt lat="48.14872" lon="6.45263">
        <ele>404.889887</ele>
        <time>2022-06-07T13:27:23.756Z</time>
      </trkpt>
      <trkpt lat="48.14879" lon="6.45273">
        <ele>404.42483</ele>
        <time>2022-06-07T13:27:26.747Z</time>
      </trkpt>
      <trkpt lat="48.14873" lon="6.45288">
        <ele>403.866963</ele>
        <time>2022-06-07T13:27:31.747Z</time>
      </trkpt>
      <trkpt lat="48.14866" lon="6.45299">
        <ele>403.374941</ele>
        <time>2022-06-07T13:27:36.785Z</time>
      </trkpt>
      <trkpt lat="48.14859" lon="6.4531">
        <ele>402.882539</ele>
        <time>2022-06-07T13:27:41.775Z</time>
      </trkpt>
      <trkpt lat="48.1485" lon="6.45322">
        <ele>402.344109</ele>
        <time>2022-06-07T13:27:45.755Z</time>
      </trkpt>
      <trkpt lat="48.14843" lon="6.45332">
        <ele>401.848673</ele>
        <time>2022-06-07T13:27:49.765Z</time>
      </trkpt>
      <trkpt lat="48.14835" lon="6.45342">
        <ele>401.565091</ele>
        <time>2022-06-07T13:27:53.760Z</time>
      </trkpt>
      <trkpt lat="48.14828" lon="6.45355">
        <ele>401.541002</ele>
        <time>2022-06-07T13:27:57.764Z</time>
      </trkpt>
      <trkpt lat="48.14821" lon="6.45366">
        <ele>401.519927</ele>
        <time>2022-06-07T13:28:00.759Z</time>
      </trkpt>
      <trkpt lat="48.14815" lon="6.45377">
        <ele>401.500559</ele>
        <time>2022-06-07T13:28:03.767Z</time>
      </trkpt>
      <trkpt lat="48.14808" lon="6.45387">
        <ele>401.481492</ele>
        <time>2022-06-07T13:28:06.775Z</time>
      </trkpt>
      <trkpt lat="48.14801" lon="6.45401">
        <ele>401.456552</ele>
        <time>2022-06-07T13:28:09.768Z</time>
      </trkpt>
      <trkpt lat="48.14794" lon="6.45417">
        <ele>401.430723</ele>
        <time>2022-06-07T13:28:12.782Z</time>
      </trkpt>
      <trkpt lat="48.14787" lon="6.4543">
        <ele>401.407751</ele>
        <time>2022-06-07T13:28:15.756Z</time>
      </trkpt>
      <trkpt lat="48.1478" lon="6.45443">
        <ele>401.383488</ele>
        <time>2022-06-07T13:28:18.764Z</time>
      </trkpt>
      <trkpt lat="48.14772" lon="6.45455">
        <ele>401.361397</ele>
        <time>2022-06-07T13:28:21.774Z</time>
      </trkpt>
      <trkpt lat="48.14765" lon="6.45466">
        <ele>401.339842</ele>
        <time>2022-06-07T13:28:25.726Z</time>
      </trkpt>
      <trkpt lat="48.14757" lon="6.45476">
        <ele>401.317513</ele>
        <time>2022-06-07T13:28:29.763Z</time>
      </trkpt>
      <trkpt lat="48.1475" lon="6.45488">
        <ele>401.296413</ele>
        <time>2022-06-07T13:28:33.777Z</time>
      </trkpt>
      <trkpt lat="48.14742" lon="6.45501">
        <ele>401.272967</ele>
        <time>2022-06-07T13:28:37.782Z</time>
      </trkpt>
      <trkpt lat="48.14736" lon="6.45513">
        <ele>401.251109</ele>
        <time>2022-06-07T13:28:40.775Z</time>
      </trkpt>
      <trkpt lat="48.14729" lon="6.45523">
        <ele>401.231358</ele>
        <time>2022-06-07T13:28:43.769Z</time>
      </trkpt>
      <trkpt lat="48.1472" lon="6.45534">
        <ele>401.207748</ele>
        <time>2022-06-07T13:28:47.764Z</time>
      </trkpt>
      <trkpt lat="48.14712" lon="6.45546">
        <ele>400.28954</ele>
        <time>2022-06-07T13:28:51.780Z</time>
      </trkpt>
      <trkpt lat="48.14704" lon="6.45557">
        <ele>399.141924</ele>
        <time>2022-06-07T13:28:55.775Z</time>
      </trkpt>
      <trkpt lat="48.14697" lon="6.45568">
        <ele>398.092929</ele>
        <time>2022-06-07T13:28:59.761Z</time>
      </trkpt>
      <trkpt lat="48.1469" lon="6.45577">
        <ele>397.114756</ele>
        <time>2022-06-07T13:29:03.760Z</time>
      </trkpt>
      <trkpt lat="48.14683" lon="6.45587">
        <ele>396.033016</ele>
        <time>2022-06-07T13:29:07.777Z</time>
      </trkpt>
      <trkpt lat="48.14676" lon="6.45599">
        <ele>394.934779</ele>
        <time>2022-06-07T13:29:11.763Z</time>
      </trkpt>
      <trkpt lat="48.1467" lon="6.4561">
        <ele>393.912266</ele>
        <time>2022-06-07T13:29:15.776Z</time>
      </trkpt>
      <trkpt lat="48.14662" lon="6.45618">
        <ele>392.898775</ele>
        <time>2022-06-07T13:29:19.771Z</time>
      </trkpt>
      <trkpt lat="48.14656" lon="6.45628">
        <ele>391.932424</ele>
        <time>2022-06-07T13:29:23.778Z</time>
      </trkpt>
      <trkpt lat="48.14648" lon="6.45639">
        <ele>390.81185</ele>
        <time>2022-06-07T13:29:28.785Z</time>
      </trkpt>
      <trkpt lat="48.1464" lon="6.45647">
        <ele>389.806851</ele>
        <time>2022-06-07T13:29:32.761Z</time>
      </trkpt>
      <trkpt lat="48.14633" lon="6.45655">
        <ele>388.844398</ele>
        <time>2022-06-07T13:29:36.770Z</time>
      </trkpt>
      <trkpt lat="48.14625" lon="6.45663">
        <ele>387.855992</ele>
        <time>2022-06-07T13:29:40.765Z</time>
      </trkpt>
      <trkpt lat="48.14617" lon="6.45672">
        <ele>386.786753</ele>
        <time>2022-06-07T13:29:45.780Z</time>
      </trkpt>
      <trkpt lat="48.14611" lon="6.45684">
        <ele>385.728778</ele>
        <time>2022-06-07T13:29:48.765Z</time>
      </trkpt>
      <trkpt lat="48.14606" lon="6.457">
        <ele>384.416987</ele>
        <time>2022-06-07T13:29:52.768Z</time>
      </trkpt>
      <trkpt lat="48.146" lon="6.45711">
        <ele>383.390339</ele>
        <time>2022-06-07T13:29:56.776Z</time>
      </trkpt>
      <trkpt lat="48.14593" lon="6.45725">
        <ele>382.208922</ele>
        <time>2022-06-07T13:30:00.766Z</time>
      </trkpt>
      <trkpt lat="48.14589" lon="6.45739">
        <ele>381.955157</ele>
        <time>2022-06-07T13:30:04.765Z</time>
      </trkpt>
      <trkpt lat="48.14583" lon="6.45752">
        <ele>381.822111</ele>
        <time>2022-06-07T13:30:09.758Z</time>
      </trkpt>
      <trkpt lat="48.14579" lon="6.45765">
        <ele>381.709443</ele>
        <time>2022-06-07T13:30:13.763Z</time>
      </trkpt>
      <trkpt lat="48.14576" lon="6.45779">
        <ele>381.593541</ele>
        <time>2022-06-07T13:30:17.756Z</time>
      </trkpt>
      <trkpt lat="48.14571" lon="6.45793">
        <ele>381.468435</ele>
        <time>2022-06-07T13:30:21.758Z</time>
      </trkpt>
      <trkpt lat="48.14566" lon="6.45809">
        <ele>381.326192</ele>
        <time>2022-06-07T13:30:25.769Z</time>
      </trkpt>
      <trkpt lat="48.14561" lon="6.45823">
        <ele>381.198661</ele>
        <time>2022-06-07T13:30:28.754Z</time>
      </trkpt>
      <trkpt lat="48.14557" lon="6.45837">
        <ele>381.074283</ele>
        <time>2022-06-07T13:30:31.766Z</time>
      </trkpt>
      <trkpt lat="48.14554" lon="6.45852">
        <ele>380.951535</ele>
        <time>2022-06-07T13:30:34.758Z</time>
      </trkpt>
      <trkpt lat="48.1455" lon="6.45869">
        <ele>380.808186</ele>
        <time>2022-06-07T13:30:38.756Z</time>
      </trkpt>
      <trkpt lat="48.14546" lon="6.45886">
        <ele>380.660225</ele>
        <time>2022-06-07T13:30:42.778Z</time>
      </trkpt>
      <trkpt lat="48.14542" lon="6.459">
        <ele>380.535125</ele>
        <time>2022-06-07T13:30:45.746Z</time>
      </trkpt>
      <trkpt lat="48.1454" lon="6.45915">
        <ele>380.415536</ele>
        <time>2022-06-07T13:30:48.748Z</time>
      </trkpt>
      <trkpt lat="48.14537" lon="6.4593">
        <ele>380.28745</ele>
        <time>2022-06-07T13:30:51.755Z</time>
      </trkpt>
      <trkpt lat="48.14533" lon="6.45945">
        <ele>380.158974</ele>
        <time>2022-06-07T13:30:54.767Z</time>
      </trkpt>
      <trkpt lat="48.1453" lon="6.45962">
        <ele>380.018106</ele>
        <time>2022-06-07T13:30:57.779Z</time>
      </trkpt>
      <trkpt lat="48.14528" lon="6.45979">
        <ele>380.051</ele>
        <time>2022-06-07T13:31:00.768Z</time>
      </trkpt>
      <trkpt lat="48.14527" lon="6.45997">
        <ele>381.497958</ele>
        <time>2022-06-07T13:31:03.744Z</time>
      </trkpt>
      <trkpt lat="48.14528" lon="6.46014">
        <ele>382.864196</ele>
        <time>2022-06-07T13:31:05.756Z</time>
      </trkpt>
      <trkpt lat="48.14527" lon="6.46032">
        <ele>384.263578</ele>
        <time>2022-06-07T13:31:07.790Z</time>
      </trkpt>
      <trkpt lat="48.14524" lon="6.46051">
        <ele>385.831683</ele>
        <time>2022-06-07T13:31:10.752Z</time>
      </trkpt>
      <trkpt lat="48.14523" lon="6.4607">
        <ele>387.420739</ele>
        <time>2022-06-07T13:31:13.753Z</time>
      </trkpt>
      <trkpt lat="48.14522" lon="6.46087">
        <ele>388.724601</ele>
        <time>2022-06-07T13:31:15.759Z</time>
      </trkpt>
      <trkpt lat="48.14519" lon="6.46101">
        <ele>389.927451</ele>
        <time>2022-06-07T13:31:18.763Z</time>
      </trkpt>
      <trkpt lat="48.14513" lon="6.46112">
        <ele>391.119661</ele>
        <time>2022-06-07T13:31:22.767Z</time>
      </trkpt>
      <trkpt lat="48.14504" lon="6.46117">
        <ele>392.303216</ele>
        <time>2022-06-07T13:31:26.752Z</time>
      </trkpt>
      <trkpt lat="48.14493" lon="6.46121">
        <ele>393.626856</ele>
        <time>2022-06-07T13:31:30.741Z</time>
      </trkpt>
      <trkpt lat="48.14484" lon="6.46127">
        <ele>394.79394</ele>
        <time>2022-06-07T13:31:33.776Z</time>
      </trkpt>
      <trkpt lat="48.14477" lon="6.46135">
        <ele>395.879245</ele>
        <time>2022-06-07T13:31:36.769Z</time>
      </trkpt>
      <trkpt lat="48.1447" lon="6.46144">
        <ele>396.965966</ele>
        <time>2022-06-07T13:31:39.780Z</time>
      </trkpt>
      <trkpt lat="48.14463" lon="6.46157">
        <ele>398.270721</ele>
        <time>2022-06-07T13:31:42.760Z</time>
      </trkpt>
      <trkpt lat="48.14458" lon="6.46171">
        <ele>399.592882</ele>
        <time>2022-06-07T13:31:45.766Z</time>
      </trkpt>
      <trkpt lat="48.14454" lon="6.46187">
        <ele>400.976133</ele>
        <time>2022-06-07T13:31:49.758Z</time>
      </trkpt>
      <trkpt lat="48.14452" lon="6.46204">
        <ele>401.765536</ele>
        <time>2022-06-07T13:31:53.766Z</time>
      </trkpt>
      <trkpt lat="48.14451" lon="6.46218">
        <ele>402.101609</ele>
        <time>2022-06-07T13:31:56.768Z</time>
      </trkpt>
      <trkpt lat="48.14449" lon="6.46233">
        <ele>402.439209</ele>
        <time>2022-06-07T13:31:59.787Z</time>
      </trkpt>
      <trkpt lat="48.14446" lon="6.46247">
        <ele>402.768058</ele>
        <time>2022-06-07T13:32:01.747Z</time>
      </trkpt>
      <trkpt lat="48.14442" lon="6.46259">
        <ele>403.08045</ele>
        <time>2022-06-07T13:32:04.750Z</time>
      </trkpt>
      <trkpt lat="48.14434" lon="6.46271">
        <ele>403.470593</ele>
        <time>2022-06-07T13:32:08.744Z</time>
      </trkpt>
      <trkpt lat="48.14427" lon="6.46283">
        <ele>403.834514</ele>
        <time>2022-06-07T13:32:12.737Z</time>
      </trkpt>
      <trkpt lat="48.14418" lon="6.46293">
        <ele>404.214966</ele>
        <time>2022-06-07T13:32:16.753Z</time>
      </trkpt>
      <trkpt lat="48.14407" lon="6.46301">
        <ele>404.635841</ele>
        <time>2022-06-07T13:32:20.773Z</time>
      </trkpt>
      <trkpt lat="48.14399" lon="6.4631">
        <ele>404.977909</ele>
        <time>2022-06-07T13:32:23.748Z</time>
      </trkpt>
      <trkpt lat="48.14391" lon="6.46319">
        <ele>405.321317</ele>
        <time>2022-06-07T13:32:26.742Z</time>
      </trkpt>
      <trkpt lat="48.14384" lon="6.46327">
        <ele>405.639963</ele>
        <time>2022-06-07T13:32:29.733Z</time>
      </trkpt>
      <trkpt lat="48.14375" lon="6.46334">
        <ele>405.970994</ele>
        <time>2022-06-07T13:32:33.728Z</time>
      </trkpt>
      <trkpt lat="48.14365" lon="6.46337">
        <ele>406.320188</ele>
        <time>2022-06-07T13:32:37.741Z</time>
      </trkpt>
      <trkpt lat="48.14355" lon="6.4634">
        <ele>406.672348</ele>
        <time>2022-06-07T13:32:42.723Z</time>
      </trkpt>
      <trkpt lat="48.14346" lon="6.46344">
        <ele>406.999868</ele>
        <time>2022-06-07T13:32:45.745Z</time>
      </trkpt>
      <trkpt lat="48.14336" lon="6.46349">
        <ele>407.361005</ele>
        <time>2022-06-07T13:32:49.782Z</time>
      </trkpt>
      <trkpt lat="48.14326" lon="6.46353">
        <ele>407.720151</ele>
        <time>2022-06-07T13:32:53.741Z</time>
      </trkpt>
      <trkpt lat="48.14317" lon="6.46359">
        <ele>407.863383</ele>
        <time>2022-06-07T13:32:58.740Z</time>
      </trkpt>
      <trkpt lat="48.14308" lon="6.46361">
        <ele>408.008266</ele>
        <time>2022-06-07T13:33:03.745Z</time>
      </trkpt>
      <trkpt lat="48.14298" lon="6.4636">
        <ele>408.150261</ele>
        <time>2022-06-07T13:33:07.758Z</time>
      </trkpt>
      <trkpt lat="48.14288" lon="6.46357">
        <ele>408.303651</ele>
        <time>2022-06-07T13:33:12.767Z</time>
      </trkpt>
      <trkpt lat="48.14279" lon="6.46354">
        <ele>408.44268</ele>
        <time>2022-06-07T13:33:17.753Z</time>
      </trkpt>
      <trkpt lat="48.14269" lon="6.46351">
        <ele>408.594834</ele>
        <time>2022-06-07T13:33:24.738Z</time>
      </trkpt>
      <trkpt lat="48.1426" lon="6.46347">
        <ele>408.74099</ele>
        <time>2022-06-07T13:33:29.746Z</time>
      </trkpt>
      <trkpt lat="48.14252" lon="6.46343">
        <ele>408.876983</ele>
        <time>2022-06-07T13:33:33.751Z</time>
      </trkpt>
      <trkpt lat="48.14241" lon="6.46338">
        <ele>409.040188</ele>
        <time>2022-06-07T13:33:38.748Z</time>
      </trkpt>
      <trkpt lat="48.1423" lon="6.46332">
        <ele>409.213452</ele>
        <time>2022-06-07T13:33:42.742Z</time>
      </trkpt>
      <trkpt lat="48.14219" lon="6.4633">
        <ele>409.382825</ele>
        <time>2022-06-07T13:33:46.747Z</time>
      </trkpt>
      <trkpt lat="48.14208" lon="6.46332">
        <ele>409.550295</ele>
        <time>2022-06-07T13:33:50.771Z</time>
      </trkpt>
      <trkpt lat="48.14197" lon="6.46335">
        <ele>409.72327</ele>
        <time>2022-06-07T13:33:54.757Z</time>
      </trkpt>
      <trkpt lat="48.14185" lon="6.46336">
        <ele>409.903467</ele>
        <time>2022-06-07T13:33:58.739Z</time>
      </trkpt>
      <trkpt lat="48.14176" lon="6.46339">
        <ele>410.050454</ele>
        <time>2022-06-07T13:34:01.759Z</time>
      </trkpt>
      <trkpt lat="48.14165" lon="6.46341">
        <ele>410.214496</ele>
        <time>2022-06-07T13:34:05.739Z</time>
      </trkpt>
      <trkpt lat="48.14153" lon="6.46346">
        <ele>410.396431</ele>
        <time>2022-06-07T13:34:09.744Z</time>
      </trkpt>
      <trkpt lat="48.14142" lon="6.4635">
        <ele>410.802639</ele>
        <time>2022-06-07T13:34:12.737Z</time>
      </trkpt>
      <trkpt lat="48.14133" lon="6.46353">
        <ele>411.18303</ele>
        <time>2022-06-07T13:34:15.743Z</time>
      </trkpt>
      <trkpt lat="48.14124" lon="6.46358">
        <ele>411.588476</ele>
        <time>2022-06-07T13:34:18.742Z</time>
      </trkpt>
      <trkpt lat="48.14115" lon="6.4636">
        <ele>411.985444</ele>
        <time>2022-06-07T13:34:21.739Z</time>
      </trkpt>
      <trkpt lat="48.14106" lon="6.46363">
        <ele>412.375723</ele>
        <time>2022-06-07T13:34:24.750Z</time>
      </trkpt>
      <trkpt lat="48.14096" lon="6.46366">
        <ele>412.802004</ele>
        <time>2022-06-07T13:34:27.756Z</time>
      </trkpt>
      <trkpt lat="48.14086" lon="6.4637">
        <ele>413.209945</ele>
        <time>2022-06-07T13:34:30.737Z</time>
      </trkpt>
      <trkpt lat="48.14075" lon="6.46374">
        <ele>413.677797</ele>
        <time>2022-06-07T13:34:34.743Z</time>
      </trkpt>
      <trkpt lat="48.14065" lon="6.46381">
        <ele>414.135913</ele>
        <time>2022-06-07T13:34:38.753Z</time>
      </trkpt>
      <trkpt lat="48.14059" lon="6.46394">
        <ele>414.581318</ele>
        <time>2022-06-07T13:34:42.745Z</time>
      </trkpt>
      <trkpt lat="48.14056" lon="6.46407">
        <ele>414.975307</ele>
        <time>2022-06-07T13:34:46.747Z</time>
      </trkpt>
      <trkpt lat="48.1406" lon="6.4642">
        <ele>415.375519</ele>
        <time>2022-06-07T13:34:51.755Z</time>
      </trkpt>
      <trkpt lat="48.14067" lon="6.46431">
        <ele>415.792931</ele>
        <time>2022-06-07T13:34:55.742Z</time>
      </trkpt>
      <trkpt lat="48.14075" lon="6.46442">
        <ele>416.243545</ele>
        <time>2022-06-07T13:34:59.735Z</time>
      </trkpt>
      <trkpt lat="48.1408" lon="6.46453">
        <ele>416.62607</ele>
        <time>2022-06-07T13:35:02.749Z</time>
      </trkpt>
      <trkpt lat="48.14087" lon="6.46463">
        <ele>417.013489</ele>
        <time>2022-06-07T13:35:05.738Z</time>
      </trkpt>
      <trkpt lat="48.14094" lon="6.46472">
        <ele>417.419945</ele>
        <time>2022-06-07T13:35:08.744Z</time>
      </trkpt>
      <trkpt lat="48.14102" lon="6.46482">
        <ele>417.843691</ele>
        <time>2022-06-07T13:35:11.741Z</time>
      </trkpt>
      <trkpt lat="48.1411" lon="6.46491">
        <ele>417.807698</ele>
        <time>2022-06-07T13:35:14.733Z</time>
      </trkpt>
      <trkpt lat="48.14118" lon="6.465">
        <ele>417.658677</ele>
        <time>2022-06-07T13:35:17.746Z</time>
      </trkpt>
      <trkpt lat="48.14125" lon="6.4651">
        <ele>417.512382</ele>
        <time>2022-06-07T13:35:20.742Z</time>
      </trkpt>
      <trkpt lat="48.14132" lon="6.46522">
        <ele>417.358025</ele>
        <time>2022-06-07T13:35:24.750Z</time>
      </trkpt>
      <trkpt lat="48.1414" lon="6.46534">
        <ele>417.193235</ele>
        <time>2022-06-07T13:35:28.746Z</time>
      </trkpt>
      <trkpt lat="48.14144" lon="6.46545">
        <ele>417.05644</ele>
        <time>2022-06-07T13:35:32.752Z</time>
      </trkpt>
      <trkpt lat="48.14149" lon="6.46561">
        <ele>416.892678</ele>
        <time>2022-06-07T13:35:37.743Z</time>
      </trkpt>
      <trkpt lat="48.14152" lon="6.46575">
        <ele>416.74713</ele>
        <time>2022-06-07T13:35:41.748Z</time>
      </trkpt>
      <trkpt lat="48.14145" lon="6.46585">
        <ele>416.608541</ele>
        <time>2022-06-07T13:35:46.762Z</time>
      </trkpt>
      <trkpt lat="48.1414" lon="6.466">
        <ele>416.435807</ele>
        <time>2022-06-07T13:35:49.751Z</time>
      </trkpt>
      <trkpt lat="48.14138" lon="6.46614">
        <ele>416.293119</ele>
        <time>2022-06-07T13:35:52.751Z</time>
      </trkpt>
      <trkpt lat="48.14137" lon="6.46629">
        <ele>416.143747</ele>
        <time>2022-06-07T13:35:56.737Z</time>
      </trkpt>
      <trkpt lat="48.14134" lon="6.46642">
        <ele>416.006973</ele>
        <time>2022-06-07T13:35:59.743Z</time>
      </trkpt>
      <trkpt lat="48.14131" lon="6.46657">
        <ele>415.858133</ele>
        <time>2022-06-07T13:36:03.762Z</time>
      </trkpt>
      <trkpt lat="48.14125" lon="6.46669">
        <ele>415.707428</ele>
        <time>2022-06-07T13:36:07.735Z</time>
      </trkpt>
      <trkpt lat="48.1412" lon="6.46681">
        <ele>415.567985</ele>
        <time>2022-06-07T13:36:12.747Z</time>
      </trkpt>
      <trkpt lat="48.14114" lon="6.46691">
        <ele>415.42735</ele>
        <time>2022-06-07T13:36:17.738Z</time>
      </trkpt>
      <trkpt lat="48.14106" lon="6.46699">
        <ele>415.293146</ele>
        <time>2022-06-07T13:36:23.746Z</time>
      </trkpt>
      <trkpt lat="48.14102" lon="6.46714">
        <ele>415.834959</ele>
        <time>2022-06-07T13:36:30.738Z</time>
      </trkpt>
      <trkpt lat="48.141" lon="6.46729">
        <ele>416.580505</ele>
        <time>2022-06-07T13:36:35.740Z</time>
      </trkpt>
      <trkpt lat="48.14098" lon="6.46745">
        <ele>417.377333</ele>
        <time>2022-06-07T13:36:40.734Z</time>
      </trkpt>
      <trkpt lat="48.14097" lon="6.46763">
        <ele>418.251766</ele>
        <time>2022-06-07T13:36:45.745Z</time>
      </trkpt>
      <trkpt lat="48.14096" lon="6.46778">
        <ele>418.972822</ele>
        <time>2022-06-07T13:36:49.718Z</time>
      </trkpt>
      <trkpt lat="48.14094" lon="6.46794">
        <ele>419.763999</ele>
        <time>2022-06-07T13:36:53.743Z</time>
      </trkpt>
      <trkpt lat="48.14086" lon="6.46805">
        <ele>420.544218</ele>
        <time>2022-06-07T13:36:57.746Z</time>
      </trkpt>
      <trkpt lat="48.14079" lon="6.46813">
        <ele>421.204963</ele>
        <time>2022-06-07T13:37:01.749Z</time>
      </trkpt>
      <trkpt lat="48.14072" lon="6.46824">
        <ele>421.928707</ele>
        <time>2022-06-07T13:37:05.764Z</time>
      </trkpt>
      <trkpt lat="48.14062" lon="6.46836">
        <ele>422.878054</ele>
        <time>2022-06-07T13:37:09.746Z</time>
      </trkpt>
      <trkpt lat="48.14054" lon="6.46843">
        <ele>423.537965</ele>
        <time>2022-06-07T13:37:11.740Z</time>
      </trkpt>
      <trkpt lat="48.14046" lon="6.4685">
        <ele>424.23527</ele>
        <time>2022-06-07T13:37:14.745Z</time>
      </trkpt>
      <trkpt lat="48.14038" lon="6.46859">
        <ele>424.899056</ele>
        <time>2022-06-07T13:37:17.755Z</time>
      </trkpt>
      <trkpt lat="48.14033" lon="6.4687">
        <ele>425.579272</ele>
        <time>2022-06-07T13:37:21.763Z</time>
      </trkpt>
      <trkpt lat="48.14028" lon="6.46888">
        <ele>426.507381</ele>
        <time>2022-06-07T13:37:25.759Z</time>
      </trkpt>
      <trkpt lat="48.14023" lon="6.46901">
        <ele>427.251647</ele>
        <time>2022-06-07T13:37:29.748Z</time>
      </trkpt>
      <trkpt lat="48.14015" lon="6.46913">
        <ele>428.066086</ele>
        <time>2022-06-07T13:37:35.780Z</time>
      </trkpt>
      <trkpt lat="48.14008" lon="6.46923">
        <ele>428.62399</ele>
        <time>2022-06-07T13:37:38.771Z</time>
      </trkpt>
      <trkpt lat="48.14001" lon="6.46932">
        <ele>429.10145</ele>
        <time>2022-06-07T13:37:41.768Z</time>
      </trkpt>
      <trkpt lat="48.13992" lon="6.46942">
        <ele>429.631645</ele>
        <time>2022-06-07T13:37:45.765Z</time>
      </trkpt>
      <trkpt lat="48.13983" lon="6.46947">
        <ele>430.120932</ele>
        <time>2022-06-07T13:37:49.776Z</time>
      </trkpt>
      <trkpt lat="48.13973" lon="6.46954">
        <ele>430.675365</ele>
        <time>2022-06-07T13:37:53.751Z</time>
      </trkpt>
      <trkpt lat="48.13963" lon="6.46957">
        <ele>431.221284</ele>
        <time>2022-06-07T13:37:58.753Z</time>
      </trkpt>
      <trkpt lat="48.13952" lon="6.46959">
        <ele>431.771132</ele>
        <time>2022-06-07T13:38:04.767Z</time>
      </trkpt>
      <trkpt lat="48.13942" lon="6.46963">
        <ele>432.281173</ele>
        <time>2022-06-07T13:38:09.769Z</time>
      </trkpt>
      <trkpt lat="48.13931" lon="6.46965">
        <ele>432.81422</ele>
        <time>2022-06-07T13:38:14.781Z</time>
      </trkpt>
      <trkpt lat="48.13921" lon="6.46966">
        <ele>433.365783</ele>
        <time>2022-06-07T13:38:19.765Z</time>
      </trkpt>
      <trkpt lat="48.13911" lon="6.46972">
        <ele>433.904596</ele>
        <time>2022-06-07T13:38:24.744Z</time>
      </trkpt>
      <trkpt lat="48.13901" lon="6.46977">
        <ele>434.426899</ele>
        <time>2022-06-07T13:38:28.755Z</time>
      </trkpt>
      <trkpt lat="48.13892" lon="6.4698">
        <ele>434.903338</ele>
        <time>2022-06-07T13:38:32.751Z</time>
      </trkpt>
      <trkpt lat="48.13881" lon="6.4698">
        <ele>435.417066</ele>
        <time>2022-06-07T13:38:38.759Z</time>
      </trkpt>
      <trkpt lat="48.13872" lon="6.46973">
        <ele>435.951824</ele>
        <time>2022-06-07T13:38:43.764Z</time>
      </trkpt>
      <trkpt lat="48.13862" lon="6.46971">
        <ele>436.459466</ele>
        <time>2022-06-07T13:38:50.744Z</time>
      </trkpt>
      <trkpt lat="48.13852" lon="6.46968">
        <ele>436.979018</ele>
        <time>2022-06-07T13:38:54.764Z</time>
      </trkpt>
      <trkpt lat="48.13843" lon="6.46963">
        <ele>437.435495</ele>
        <time>2022-06-07T13:38:58.770Z</time>
      </trkpt>
      <trkpt lat="48.13834" lon="6.46955">
        <ele>437.941193</ele>
        <time>2022-06-07T13:39:08.783Z</time>
      </trkpt>
      <trkpt lat="48.13826" lon="6.46946">
        <ele>438.410638</ele>
        <time>2022-06-07T13:39:11.756Z</time>
      </trkpt>
      <trkpt lat="48.13818" lon="6.46937">
        <ele>438.88592</ele>
        <time>2022-06-07T13:39:15.771Z</time>
      </trkpt>
      <trkpt lat="48.13809" lon="6.46926">
        <ele>439.397191</ele>
        <time>2022-06-07T13:39:19.758Z</time>
      </trkpt>
      <trkpt lat="48.13801" lon="6.46917">
        <ele>439.904143</ele>
        <time>2022-06-07T13:39:23.771Z</time>
      </trkpt>
      <trkpt lat="48.13793" lon="6.46907">
        <ele>440.373807</ele>
        <time>2022-06-07T13:39:26.778Z</time>
      </trkpt>
      <trkpt lat="48.13786" lon="6.46899">
        <ele>440.813216</ele>
        <time>2022-06-07T13:39:29.771Z</time>
      </trkpt>
      <trkpt lat="48.13777" lon="6.4689">
        <ele>441.294898</ele>
        <time>2022-06-07T13:39:33.773Z</time>
      </trkpt>
      <trkpt lat="48.13767" lon="6.46876">
        <ele>441.942605</ele>
        <time>2022-06-07T13:39:37.772Z</time>
      </trkpt>
      <trkpt lat="48.1376" lon="6.46865">
        <ele>442.410471</ele>
        <time>2022-06-07T13:39:40.768Z</time>
      </trkpt>
      <trkpt lat="48.13753" lon="6.46848">
        <ele>443.02285</ele>
        <time>2022-06-07T13:39:43.753Z</time>
      </trkpt>
      <trkpt lat="48.13749" lon="6.46836">
        <ele>443.446437</ele>
        <time>2022-06-07T13:39:46.770Z</time>
      </trkpt>
      <trkpt lat="48.13743" lon="6.46779">
        <ele>445.261016</ele>
        <time>2022-06-07T13:39:50.751Z</time>
      </trkpt>
      <trkpt lat="48.13736" lon="6.46755">
        <ele>446.261729</ele>
        <time>2022-06-07T13:39:52.731Z</time>
      </trkpt>
      <trkpt lat="48.13731" lon="6.46744">
        <ele>447.013017</ele>
        <time>2022-06-07T13:39:56.751Z</time>
      </trkpt>
      <trkpt lat="48.13724" lon="6.46727">
        <ele>448.054348</ele>
        <time>2022-06-07T13:40:00.739Z</time>
      </trkpt>
      <trkpt lat="48.13714" lon="6.46707">
        <ele>449.401139</ele>
        <time>2022-06-07T13:40:03.759Z</time>
      </trkpt>
      <trkpt lat="48.13708" lon="6.46696">
        <ele>450.205113</ele>
        <time>2022-06-07T13:40:05.796Z</time>
      </trkpt>
      <trkpt lat="48.137" lon="6.46685">
        <ele>451.052606</ele>
        <time>2022-06-07T13:40:09.782Z</time>
      </trkpt>
      <trkpt lat="48.13693" lon="6.46674">
        <ele>451.88304</ele>
        <time>2022-06-07T13:40:13.732Z</time>
      </trkpt>
      <trkpt lat="48.13685" lon="6.46666">
        <ele>452.64594</ele>
        <time>2022-06-07T13:40:17.773Z</time>
      </trkpt>
      <trkpt lat="48.13677" lon="6.46656">
        <ele>453.476589</ele>
        <time>2022-06-07T13:40:22.761Z</time>
      </trkpt>
      <trkpt lat="48.13663" lon="6.4665">
        <ele>454.685028</ele>
        <time>2022-06-07T13:40:28.746Z</time>
      </trkpt>
      <trkpt lat="48.13652" lon="6.46649">
        <ele>455.559571</ele>
        <time>2022-06-07T13:40:30.774Z</time>
      </trkpt>
      <trkpt lat="48.13639" lon="6.46647">
        <ele>456.612915</ele>
        <time>2022-06-07T13:40:34.761Z</time>
      </trkpt>
      <trkpt lat="48.13629" lon="6.46649">
        <ele>457.419618</ele>
        <time>2022-06-07T13:40:38.748Z</time>
      </trkpt>
      <trkpt lat="48.13619" lon="6.46653">
        <ele>458.230644</ele>
        <time>2022-06-07T13:40:41.752Z</time>
      </trkpt>
      <trkpt lat="48.1361" lon="6.46655">
        <ele>458.983855</ele>
        <time>2022-06-07T13:40:45.774Z</time>
      </trkpt>
      <trkpt lat="48.136" lon="6.46659">
        <ele>459.789564</ele>
        <time>2022-06-07T13:40:48.764Z</time>
      </trkpt>
      <trkpt lat="48.1359" lon="6.46661">
        <ele>460.304844</ele>
        <time>2022-06-07T13:40:52.762Z</time>
      </trkpt>
      <trkpt lat="48.1358" lon="6.4666">
        <ele>460.187246</ele>
        <time>2022-06-07T13:40:59.764Z</time>
      </trkpt>
      <trkpt lat="48.13571" lon="6.46662">
        <ele>460.075501</ele>
        <time>2022-06-07T13:41:03.767Z</time>
      </trkpt>
      <trkpt lat="48.13561" lon="6.46664">
        <ele>459.952116</ele>
        <time>2022-06-07T13:41:07.744Z</time>
      </trkpt>
      <trkpt lat="48.13547" lon="6.46664">
        <ele>459.783873</ele>
        <time>2022-06-07T13:41:10.759Z</time>
      </trkpt>
      <trkpt lat="48.13537" lon="6.46666">
        <ele>459.668623</ele>
        <time>2022-06-07T13:41:14.754Z</time>
      </trkpt>
      <trkpt lat="48.13527" lon="6.4667">
        <ele>459.539988</ele>
        <time>2022-06-07T13:41:18.746Z</time>
      </trkpt>
      <trkpt lat="48.13518" lon="6.4667">
        <ele>459.427382</ele>
        <time>2022-06-07T13:41:22.746Z</time>
      </trkpt>
      <trkpt lat="48.13507" lon="6.4667">
        <ele>459.301411</ele>
        <time>2022-06-07T13:41:27.751Z</time>
      </trkpt>
      <trkpt lat="48.13498" lon="6.46666">
        <ele>459.184945</ele>
        <time>2022-06-07T13:41:31.785Z</time>
      </trkpt>
      <trkpt lat="48.1349" lon="6.46658">
        <ele>459.064293</ele>
        <time>2022-06-07T13:41:39.767Z</time>
      </trkpt>
      <trkpt lat="48.13478" lon="6.46654">
        <ele>458.922045</ele>
        <time>2022-06-07T13:41:43.763Z</time>
      </trkpt>
      <trkpt lat="48.13468" lon="6.46646">
        <ele>458.787089</ele>
        <time>2022-06-07T13:41:45.763Z</time>
      </trkpt>
      <trkpt lat="48.1346" lon="6.46639">
        <ele>458.672713</ele>
        <time>2022-06-07T13:41:47.768Z</time>
      </trkpt>
      <trkpt lat="48.13452" lon="6.46632">
        <ele>458.556799</ele>
        <time>2022-06-07T13:41:50.751Z</time>
      </trkpt>
      <trkpt lat="48.13441" lon="6.46622">
        <ele>458.401722</ele>
        <time>2022-06-07T13:41:55.771Z</time>
      </trkpt>
      <trkpt lat="48.13431" lon="6.46612">
        <ele>458.261285</ele>
        <time>2022-06-07T13:41:59.760Z</time>
      </trkpt>
      <trkpt lat="48.13425" lon="6.466">
        <ele>458.258746</ele>
        <time>2022-06-07T13:42:03.745Z</time>
      </trkpt>
      <trkpt lat="48.13418" lon="6.46587">
        <ele>458.55791</ele>
        <time>2022-06-07T13:42:06.743Z</time>
      </trkpt>
      <trkpt lat="48.13411" lon="6.46577">
        <ele>458.797207</ele>
        <time>2022-06-07T13:42:09.760Z</time>
      </trkpt>
      <trkpt lat="48.13402" lon="6.46566">
        <ele>459.10669</ele>
        <time>2022-06-07T13:42:13.762Z</time>
      </trkpt>
      <trkpt lat="48.13397" lon="6.46551">
        <ele>459.406517</ele>
        <time>2022-06-07T13:42:17.738Z</time>
      </trkpt>
      <trkpt lat="48.13391" lon="6.46539">
        <ele>459.673498</ele>
        <time>2022-06-07T13:42:20.756Z</time>
      </trkpt>
      <trkpt lat="48.13385" lon="6.46525">
        <ele>459.960266</ele>
        <time>2022-06-07T13:42:23.769Z</time>
      </trkpt>
      <trkpt lat="48.1338" lon="6.46511">
        <ele>460.242836</ele>
        <time>2022-06-07T13:42:27.749Z</time>
      </trkpt>
      <trkpt lat="48.13377" lon="6.46496">
        <ele>460.517421</ele>
        <time>2022-06-07T13:42:31.762Z</time>
      </trkpt>
      <trkpt lat="48.13374" lon="6.46477">
        <ele>460.84632</ele>
        <time>2022-06-07T13:42:35.754Z</time>
      </trkpt>
      <trkpt lat="48.13372" lon="6.46463">
        <ele>461.102902</ele>
        <time>2022-06-07T13:42:38.748Z</time>
      </trkpt>
      <trkpt lat="48.13371" lon="6.46449">
        <ele>461.346607</ele>
        <time>2022-06-07T13:42:41.752Z</time>
      </trkpt>
      <trkpt lat="48.13371" lon="6.46434">
        <ele>461.614151</ele>
        <time>2022-06-07T13:42:45.746Z</time>
      </trkpt>
      <trkpt lat="48.13373" lon="6.46418">
        <ele>461.899606</ele>
        <time>2022-06-07T13:42:49.746Z</time>
      </trkpt>
      <trkpt lat="48.13375" lon="6.46404">
        <ele>462.154718</ele>
        <time>2022-06-07T13:42:53.762Z</time>
      </trkpt>
      <trkpt lat="48.13377" lon="6.46388">
        <ele>462.432494</ele>
        <time>2022-06-07T13:42:56.756Z</time>
      </trkpt>
      <trkpt lat="48.13375" lon="6.46372">
        <ele>462.721736</ele>
        <time>2022-06-07T13:43:00.776Z</time>
      </trkpt>
      <trkpt lat="48.13366" lon="6.46358">
        <ele>463.124148</ele>
        <time>2022-06-07T13:43:04.758Z</time>
      </trkpt>
      <trkpt lat="48.13356" lon="6.4635">
        <ele>463.583378</ele>
        <time>2022-06-07T13:43:07.734Z</time>
      </trkpt>
      <trkpt lat="48.13344" lon="6.4634">
        <ele>464.103491</ele>
        <time>2022-06-07T13:43:10.748Z</time>
      </trkpt>
      <trkpt lat="48.13335" lon="6.46335">
        <ele>464.494499</ele>
        <time>2022-06-07T13:43:13.752Z</time>
      </trkpt>
      <trkpt lat="48.13324" lon="6.46331">
        <ele>464.95554</ele>
        <time>2022-06-07T13:43:18.760Z</time>
      </trkpt>
      <trkpt lat="48.13313" lon="6.46323">
        <ele>465.441823</ele>
        <time>2022-06-07T13:43:22.776Z</time>
      </trkpt>
      <trkpt lat="48.13303" lon="6.46317">
        <ele>465.8426</ele>
        <time>2022-06-07T13:43:27.765Z</time>
      </trkpt>
      <trkpt lat="48.13297" lon="6.46307">
        <ele>466.206672</ele>
        <time>2022-06-07T13:43:33.755Z</time>
      </trkpt>
      <trkpt lat="48.1329" lon="6.46296">
        <ele>466.602277</ele>
        <time>2022-06-07T13:43:38.744Z</time>
      </trkpt>
      <trkpt lat="48.13285" lon="6.46283">
        <ele>466.992007</ele>
        <time>2022-06-07T13:43:42.764Z</time>
      </trkpt>
      <trkpt lat="48.13277" lon="6.46273">
        <ele>467.403106</ele>
        <time>2022-06-07T13:43:45.765Z</time>
      </trkpt>
      <trkpt lat="48.1327" lon="6.46263">
        <ele>467.790778</ele>
        <time>2022-06-07T13:43:48.760Z</time>
      </trkpt>
      <trkpt lat="48.13263" lon="6.46252">
        <ele>468.190054</ele>
        <time>2022-06-07T13:43:52.760Z</time>
      </trkpt>
      <trkpt lat="48.13257" lon="6.46239">
        <ele>468.58812</ele>
        <time>2022-06-07T13:43:56.771Z</time>
      </trkpt>
      <trkpt lat="48.13252" lon="6.46227">
        <ele>468.968488</ele>
        <time>2022-06-07T13:44:00.767Z</time>
      </trkpt>
      <trkpt lat="48.13245" lon="6.46215">
        <ele>469.399813</ele>
        <time>2022-06-07T13:44:04.753Z</time>
      </trkpt>
      <trkpt lat="48.13237" lon="6.462">
        <ele>469.885337</ele>
        <time>2022-06-07T13:44:08.770Z</time>
      </trkpt>
      <trkpt lat="48.13229" lon="6.46185">
        <ele>469.986956</ele>
        <time>2022-06-07T13:44:12.751Z</time>
      </trkpt>
      <trkpt lat="48.13224" lon="6.46173">
        <ele>470.000278</ele>
        <time>2022-06-07T13:44:15.765Z</time>
      </trkpt>
      <trkpt lat="48.13219" lon="6.46158">
        <ele>470.016968</ele>
        <time>2022-06-07T13:44:19.775Z</time>
      </trkpt>
      <trkpt lat="48.13214" lon="6.46143">
        <ele>470.032998</ele>
        <time>2022-06-07T13:44:23.760Z</time>
      </trkpt>
      <trkpt lat="48.1321" lon="6.4613">
        <ele>470.04617</ele>
        <time>2022-06-07T13:44:26.761Z</time>
      </trkpt>
      <trkpt lat="48.13208" lon="6.46116">
        <ele>470.059803</ele>
        <time>2022-06-07T13:44:30.749Z</time>
      </trkpt>
      <trkpt lat="48.13206" lon="6.46101">
        <ele>470.074369</ele>
        <time>2022-06-07T13:44:34.743Z</time>
      </trkpt>
      <trkpt lat="48.13203" lon="6.46087">
        <ele>470.088597</ele>
        <time>2022-06-07T13:44:37.748Z</time>
      </trkpt>
      <trkpt lat="48.13198" lon="6.46072">
        <ele>470.104159</ele>
        <time>2022-06-07T13:44:42.768Z</time>
      </trkpt>
      <trkpt lat="48.13196" lon="6.46057">
        <ele>470.118504</ele>
        <time>2022-06-07T13:44:45.783Z</time>
      </trkpt>
      <trkpt lat="48.13195" lon="6.46042">
        <ele>470.133048</ele>
        <time>2022-06-07T13:44:48.767Z</time>
      </trkpt>
      <trkpt lat="48.13194" lon="6.46027">
        <ele>470.147167</ele>
        <time>2022-06-07T13:44:51.768Z</time>
      </trkpt>
      <trkpt lat="48.13194" lon="6.46013">
        <ele>470.160898</ele>
        <time>2022-06-07T13:44:54.780Z</time>
      </trkpt>
      <trkpt lat="48.13191" lon="6.45997">
        <ele>470.176429</ele>
        <time>2022-06-07T13:44:57.766Z</time>
      </trkpt>
      <trkpt lat="48.13188" lon="6.45981">
        <ele>470.193006</ele>
        <time>2022-06-07T13:45:01.776Z</time>
      </trkpt>
      <trkpt lat="48.13186" lon="6.45964">
        <ele>470.208695</ele>
        <time>2022-06-07T13:45:05.753Z</time>
      </trkpt>
      <trkpt lat="48.13186" lon="6.45947">
        <ele>470.225074</ele>
        <time>2022-06-07T13:45:09.765Z</time>
      </trkpt>
      <trkpt lat="48.13186" lon="6.4593">
        <ele>469.677569</ele>
        <time>2022-06-07T13:45:14.750Z</time>
      </trkpt>
      <trkpt lat="48.13187" lon="6.45914">
        <ele>469.009305</ele>
        <time>2022-06-07T13:45:18.769Z</time>
      </trkpt>
      <trkpt lat="48.13189" lon="6.45898">
        <ele>468.325711</ele>
        <time>2022-06-07T13:45:22.783Z</time>
      </trkpt>
      <trkpt lat="48.1319" lon="6.45881">
        <ele>467.624578</ele>
        <time>2022-06-07T13:45:26.772Z</time>
      </trkpt>
      <trkpt lat="48.13192" lon="6.45867">
        <ele>467.073716</ele>
        <time>2022-06-07T13:45:29.775Z</time>
      </trkpt>
      <trkpt lat="48.13193" lon="6.4585">
        <ele>466.357768</ele>
        <time>2022-06-07T13:45:33.756Z</time>
      </trkpt>
      <trkpt lat="48.13194" lon="6.45834">
        <ele>465.687907</ele>
        <time>2022-06-07T13:45:37.756Z</time>
      </trkpt>
      <trkpt lat="48.13191" lon="6.4582">
        <ele>465.100863</ele>
        <time>2022-06-07T13:45:40.768Z</time>
      </trkpt>
      <trkpt lat="48.13185" lon="6.45809">
        <ele>464.530215</ele>
        <time>2022-06-07T13:45:44.763Z</time>
      </trkpt>
      <trkpt lat="48.13178" lon="6.45801">
        <ele>463.975934</ele>
        <time>2022-06-07T13:45:49.752Z</time>
      </trkpt>
      <trkpt lat="48.13171" lon="6.45788">
        <ele>463.28836</ele>
        <time>2022-06-07T13:45:53.756Z</time>
      </trkpt>
      <trkpt lat="48.13162" lon="6.45781">
        <ele>462.688155</ele>
        <time>2022-06-07T13:45:57.765Z</time>
      </trkpt>
      <trkpt lat="48.13155" lon="6.45773">
        <ele>462.136489</ele>
        <time>2022-06-07T13:46:01.738Z</time>
      </trkpt>
      <trkpt lat="48.13147" lon="6.45765">
        <ele>461.560342</ele>
        <time>2022-06-07T13:46:04.742Z</time>
      </trkpt>
      <trkpt lat="48.13139" lon="6.45754">
        <ele>460.901494</ele>
        <time>2022-06-07T13:46:08.745Z</time>
      </trkpt>
      <trkpt lat="48.13134" lon="6.4574">
        <ele>460.222571</ele>
        <time>2022-06-07T13:46:12.762Z</time>
      </trkpt>
      <trkpt lat="48.13125" lon="6.45726">
        <ele>459.471257</ele>
        <time>2022-06-07T13:46:18.753Z</time>
      </trkpt>
      <trkpt lat="48.13117" lon="6.45715">
        <ele>459.297226</ele>
        <time>2022-06-07T13:46:23.766Z</time>
      </trkpt>
      <trkpt lat="48.13111" lon="6.45705">
        <ele>459.420858</ele>
        <time>2022-06-07T13:46:26.751Z</time>
      </trkpt>
      <trkpt lat="48.13099" lon="6.45693">
        <ele>459.593732</ele>
        <time>2022-06-07T13:46:30.751Z</time>
      </trkpt>
      <trkpt lat="48.13089" lon="6.45686">
        <ele>459.739464</ele>
        <time>2022-06-07T13:46:33.756Z</time>
      </trkpt>
      <trkpt lat="48.1308" lon="6.45682">
        <ele>459.862023</ele>
        <time>2022-06-07T13:46:38.764Z</time>
      </trkpt>
      <trkpt lat="48.13071" lon="6.45687">
        <ele>459.986894</ele>
        <time>2022-06-07T13:46:44.765Z</time>
      </trkpt>
      <trkpt lat="48.13065" lon="6.45698">
        <ele>460.101907</ele>
        <time>2022-06-07T13:46:48.749Z</time>
      </trkpt>
      <trkpt lat="48.13053" lon="6.45704">
        <ele>460.264266</ele>
        <time>2022-06-07T13:46:52.752Z</time>
      </trkpt>
      <trkpt lat="48.13041" lon="6.45709">
        <ele>460.423655</ele>
        <time>2022-06-07T13:46:54.763Z</time>
      </trkpt>
      <trkpt lat="48.13032" lon="6.45714">
        <ele>460.542246</ele>
        <time>2022-06-07T13:46:56.750Z</time>
      </trkpt>
      <trkpt lat="48.13022" lon="6.45717">
        <ele>460.677713</ele>
        <time>2022-06-07T13:46:59.748Z</time>
      </trkpt>
      <trkpt lat="48.13012" lon="6.45721">
        <ele>460.813385</ele>
        <time>2022-06-07T13:47:03.761Z</time>
      </trkpt>
      <trkpt lat="48.13001" lon="6.45726">
        <ele>460.956145</ele>
        <time>2022-06-07T13:47:07.757Z</time>
      </trkpt>
      <trkpt lat="48.12991" lon="6.4573">
        <ele>461.093146</ele>
        <time>2022-06-07T13:47:11.759Z</time>
      </trkpt>
      <trkpt lat="48.12981" lon="6.45735">
        <ele>461.226448</ele>
        <time>2022-06-07T13:47:15.762Z</time>
      </trkpt>
      <trkpt lat="48.1297" lon="6.45738">
        <ele>461.361272</ele>
        <time>2022-06-07T13:47:19.759Z</time>
      </trkpt>
      <trkpt lat="48.1296" lon="6.45738">
        <ele>461.486326</ele>
        <time>2022-06-07T13:47:24.752Z</time>
      </trkpt>
      <trkpt lat="48.12952" lon="6.45738">
        <ele>461.673674</ele>
        <time>2022-06-07T13:47:28.763Z</time>
      </trkpt>
      <trkpt lat="48.12941" lon="6.45737">
        <ele>461.919104</ele>
        <time>2022-06-07T13:47:33.749Z</time>
      </trkpt>
      <trkpt lat="48.1293" lon="6.45733">
        <ele>462.162041</ele>
        <time>2022-06-07T13:47:38.778Z</time>
      </trkpt>
      <trkpt lat="48.1292" lon="6.45728">
        <ele>462.413096</ele>
        <time>2022-06-07T13:47:42.772Z</time>
      </trkpt>
      <trkpt lat="48.12909" lon="6.45727">
        <ele>462.646204</ele>
        <time>2022-06-07T13:47:47.769Z</time>
      </trkpt>
      <trkpt lat="48.12899" lon="6.45722">
        <ele>462.885376</ele>
        <time>2022-06-07T13:47:53.775Z</time>
      </trkpt>
      <trkpt lat="48.12891" lon="6.45719">
        <ele>463.090897</ele>
        <time>2022-06-07T13:47:57.765Z</time>
      </trkpt>
      <trkpt lat="48.12882" lon="6.45715">
        <ele>463.300696</ele>
        <time>2022-06-07T13:48:02.774Z</time>
      </trkpt>
      <trkpt lat="48.12872" lon="6.4571">
        <ele>463.538166</ele>
        <time>2022-06-07T13:48:08.773Z</time>
      </trkpt>
      <trkpt lat="48.12863" lon="6.45704">
        <ele>463.752706</ele>
        <time>2022-06-07T13:48:13.775Z</time>
      </trkpt>
      <trkpt lat="48.12853" lon="6.45696">
        <ele>464.002386</ele>
        <time>2022-06-07T13:48:16.744Z</time>
      </trkpt>
      <trkpt lat="48.12845" lon="6.45691">
        <ele>464.217441</ele>
        <time>2022-06-07T13:48:20.780Z</time>
      </trkpt>
      <trkpt lat="48.12835" lon="6.45682">
        <ele>464.463022</ele>
        <time>2022-06-07T13:48:26.763Z</time>
      </trkpt>
      <trkpt lat="48.12827" lon="6.45674">
        <ele>464.693104</ele>
        <time>2022-06-07T13:48:29.759Z</time>
      </trkpt>
      <trkpt lat="48.12818" lon="6.45665">
        <ele>464.934034</ele>
        <time>2022-06-07T13:48:33.749Z</time>
      </trkpt>
      <trkpt lat="48.12808" lon="6.45657">
        <ele>465.184692</ele>
        <time>2022-06-07T13:48:37.761Z</time>
      </trkpt>
      <trkpt lat="48.12798" lon="6.45659">
        <ele>465.409877</ele>
        <time>2022-06-07T13:48:45.768Z</time>
      </trkpt>
      <trkpt lat="48.12791" lon="6.45668">
        <ele>465.552502</ele>
        <time>2022-06-07T13:48:51.753Z</time>
      </trkpt>
      <trkpt lat="48.12784" lon="6.45676">
        <ele>465.489039</ele>
        <time>2022-06-07T13:48:58.766Z</time>
      </trkpt>
      <trkpt lat="48.12774" lon="6.4568">
        <ele>465.420596</ele>
        <time>2022-06-07T13:49:04.767Z</time>
      </trkpt>
      <trkpt lat="48.12765" lon="6.45676">
        <ele>465.357006</ele>
        <time>2022-06-07T13:49:10.760Z</time>
      </trkpt>
      <trkpt lat="48.12756" lon="6.45672">
        <ele>465.28776</ele>
        <time>2022-06-07T13:49:15.748Z</time>
      </trkpt>
      <trkpt lat="48.12719" lon="6.45661">
        <ele>465.019533</ele>
        <time>2022-06-07T13:49:18.778Z</time>
      </trkpt>
      <trkpt lat="48.12708" lon="6.45649">
        <ele>464.927976</ele>
        <time>2022-06-07T13:49:20.765Z</time>
      </trkpt>
      <trkpt lat="48.12705" lon="6.45636">
        <ele>464.862919</ele>
        <time>2022-06-07T13:49:30.764Z</time>
      </trkpt>
      <trkpt lat="48.12705" lon="6.45621">
        <ele>464.791243</ele>
        <time>2022-06-07T13:49:32.780Z</time>
      </trkpt>
      <trkpt lat="48.12706" lon="6.45606">
        <ele>464.720816</ele>
        <time>2022-06-07T13:49:35.761Z</time>
      </trkpt>
      <trkpt lat="48.12705" lon="6.45592">
        <ele>464.657336</ele>
        <time>2022-06-07T13:49:37.774Z</time>
      </trkpt>
      <trkpt lat="48.12705" lon="6.4557">
        <ele>464.554752</ele>
        <time>2022-06-07T13:49:40.771Z</time>
      </trkpt>
      <trkpt lat="48.12703" lon="6.45557">
        <ele>464.488754</ele>
        <time>2022-06-07T13:49:42.766Z</time>
      </trkpt>
      <trkpt lat="48.12702" lon="6.45543">
        <ele>464.425429</ele>
        <time>2022-06-07T13:49:45.747Z</time>
      </trkpt>
      <trkpt lat="48.12699" lon="6.45529">
        <ele>464.358975</ele>
        <time>2022-06-07T13:49:48.751Z</time>
      </trkpt>
      <trkpt lat="48.12693" lon="6.45516">
        <ele>464.329741</ele>
        <time>2022-06-07T13:49:51.750Z</time>
      </trkpt>
      <trkpt lat="48.1268" lon="6.45518">
        <ele>464.388194</ele>
        <time>2022-06-07T13:49:58.747Z</time>
      </trkpt>
      <trkpt lat="48.1267" lon="6.45522">
        <ele>464.43463</ele>
        <time>2022-06-07T13:50:01.768Z</time>
      </trkpt>
      <trkpt lat="48.1266" lon="6.4553">
        <ele>464.485065</ele>
        <time>2022-06-07T13:50:05.773Z</time>
      </trkpt>
      <trkpt lat="48.12651" lon="6.45538">
        <ele>464.534714</ele>
        <time>2022-06-07T13:50:09.777Z</time>
      </trkpt>
      <trkpt lat="48.12641" lon="6.45546">
        <ele>464.582646</ele>
        <time>2022-06-07T13:50:12.761Z</time>
      </trkpt>
      <trkpt lat="48.12632" lon="6.45551">
        <ele>464.628243</ele>
        <time>2022-06-07T13:50:16.758Z</time>
      </trkpt>
      <trkpt lat="48.12621" lon="6.45554">
        <ele>464.678429</ele>
        <time>2022-06-07T13:50:20.772Z</time>
      </trkpt>
      <trkpt lat="48.12609" lon="6.45554">
        <ele>464.732769</ele>
        <time>2022-06-07T13:50:24.772Z</time>
      </trkpt>
      <trkpt lat="48.126" lon="6.45551">
        <ele>464.776111</ele>
        <time>2022-06-07T13:50:29.767Z</time>
      </trkpt>
      <trkpt lat="48.12601" lon="6.45533">
        <ele>464.831993</ele>
        <time>2022-06-07T13:50:41.768Z</time>
      </trkpt>
      <trkpt lat="48.12602" lon="6.45519">
        <ele>464.874002</ele>
        <time>2022-06-07T13:50:44.763Z</time>
      </trkpt>
      <trkpt lat="48.12605" lon="6.45505">
        <ele>464.918922</ele>
        <time>2022-06-07T13:50:51.752Z</time>
      </trkpt>
      <trkpt lat="48.12607" lon="6.4549">
        <ele>464.965881</ele>
        <time>2022-06-07T13:51:00.768Z</time>
      </trkpt>
      <trkpt lat="48.12608" lon="6.45475">
        <ele>465.011543</ele>
        <time>2022-06-07T13:51:05.777Z</time>
      </trkpt>
      <trkpt lat="48.12602" lon="6.45462">
        <ele>465.056305</ele>
        <time>2022-06-07T13:51:24.772Z</time>
      </trkpt>
      <trkpt lat="48.12595" lon="6.45452">
        <ele>465.100627</ele>
        <time>2022-06-07T13:51:29.765Z</time>
      </trkpt>
      <trkpt lat="48.12589" lon="6.45442">
        <ele>465.172224</ele>
        <time>2022-06-07T13:51:36.752Z</time>
      </trkpt>
      <trkpt lat="48.1258" lon="6.45416">
        <ele>465.420989</ele>
        <time>2022-06-07T13:51:42.750Z</time>
      </trkpt>
      <trkpt lat="48.12575" lon="6.45399">
        <ele>465.577253</ele>
        <time>2022-06-07T13:51:45.762Z</time>
      </trkpt>
      <trkpt lat="48.12571" lon="6.45385">
        <ele>465.703884</ele>
        <time>2022-06-07T13:51:47.785Z</time>
      </trkpt>
      <trkpt lat="48.1257" lon="6.45372">
        <ele>465.81782</ele>
        <time>2022-06-07T13:51:48.756Z</time>
      </trkpt>
      <trkpt lat="48.12563" lon="6.45362">
        <ele>465.934728</ele>
        <time>2022-06-07T13:51:53.755Z</time>
      </trkpt>
      <trkpt lat="48.12561" lon="6.45348">
        <ele>466.055911</ele>
        <time>2022-06-07T13:51:55.756Z</time>
      </trkpt>
      <trkpt lat="48.12555" lon="6.45332">
        <ele>466.214168</ele>
        <time>2022-06-07T13:51:59.763Z</time>
      </trkpt>
      <trkpt lat="48.12551" lon="6.4531">
        <ele>466.404906</ele>
        <time>2022-06-07T13:52:01.737Z</time>
      </trkpt>
      <trkpt lat="48.12543" lon="6.45297">
        <ele>466.555561</ele>
        <time>2022-06-07T13:52:04.743Z</time>
      </trkpt>
      <trkpt lat="48.12536" lon="6.45286">
        <ele>466.690469</ele>
        <time>2022-06-07T13:52:07.758Z</time>
      </trkpt>
      <trkpt lat="48.12526" lon="6.45281">
        <ele>466.811692</ele>
        <time>2022-06-07T13:52:16.760Z</time>
      </trkpt>
      <trkpt lat="48.12518" lon="6.45274">
        <ele>466.932185</ele>
        <time>2022-06-07T13:52:19.757Z</time>
      </trkpt>
      <trkpt lat="48.12509" lon="6.4527">
        <ele>467.059456</ele>
        <time>2022-06-07T13:52:24.762Z</time>
      </trkpt>
      <trkpt lat="48.12497" lon="6.45259">
        <ele>467.231974</ele>
        <time>2022-06-07T13:52:27.756Z</time>
      </trkpt>
      <trkpt lat="48.12487" lon="6.45249">
        <ele>467.387731</ele>
        <time>2022-06-07T13:52:29.760Z</time>
      </trkpt>
      <trkpt lat="48.12477" lon="6.45241">
        <ele>466.863807</ele>
        <time>2022-06-07T13:52:31.752Z</time>
      </trkpt>
      <trkpt lat="48.12467" lon="6.45241">
        <ele>466.266375</ele>
        <time>2022-06-07T13:52:35.758Z</time>
      </trkpt>
      <trkpt lat="48.12458" lon="6.45247">
        <ele>465.701709</ele>
        <time>2022-06-07T13:52:38.734Z</time>
      </trkpt>
      <trkpt lat="48.12451" lon="6.45259">
        <ele>465.139191</ele>
        <time>2022-06-07T13:52:43.781Z</time>
      </trkpt>
      <trkpt lat="48.12449" lon="6.45275">
        <ele>464.526883</ele>
        <time>2022-06-07T13:52:47.765Z</time>
      </trkpt>
      <trkpt lat="48.12445" lon="6.45288">
        <ele>463.965153</ele>
        <time>2022-06-07T13:52:51.753Z</time>
      </trkpt>
      <trkpt lat="48.12439" lon="6.45301">
        <ele>463.398684</ele>
        <time>2022-06-07T13:52:54.755Z</time>
      </trkpt>
      <trkpt lat="48.12432" lon="6.45316">
        <ele>462.694321</ele>
        <time>2022-06-07T13:52:58.754Z</time>
      </trkpt>
      <trkpt lat="48.12426" lon="6.45326">
        <ele>462.188772</ele>
        <time>2022-06-07T13:53:01.755Z</time>
      </trkpt>
      <trkpt lat="48.1242" lon="6.45343">
        <ele>461.489133</ele>
        <time>2022-06-07T13:53:04.757Z</time>
      </trkpt>
      <trkpt lat="48.12415" lon="6.45356">
        <ele>460.902361</ele>
        <time>2022-06-07T13:53:07.775Z</time>
      </trkpt>
      <trkpt lat="48.12409" lon="6.4537">
        <ele>460.292121</ele>
        <time>2022-06-07T13:53:11.749Z</time>
      </trkpt>
      <trkpt lat="48.12403" lon="6.45382">
        <ele>459.693121</ele>
        <time>2022-06-07T13:53:16.759Z</time>
      </trkpt>
      <trkpt lat="48.12398" lon="6.45394">
        <ele>459.180019</ele>
        <time>2022-06-07T13:53:21.751Z</time>
      </trkpt>
      <trkpt lat="48.12393" lon="6.45406">
        <ele>458.64408</ele>
        <time>2022-06-07T13:53:27.749Z</time>
      </trkpt>
      <trkpt lat="48.12388" lon="6.45418">
        <ele>458.124732</ele>
        <time>2022-06-07T13:53:30.741Z</time>
      </trkpt>
      <trkpt lat="48.12382" lon="6.45429">
        <ele>457.596859</ele>
        <time>2022-06-07T13:53:33.757Z</time>
      </trkpt>
      <trkpt lat="48.12376" lon="6.4544">
        <ele>457.245886</ele>
        <time>2022-06-07T13:53:38.751Z</time>
      </trkpt>
      <trkpt lat="48.12368" lon="6.45452">
        <ele>457.184188</ele>
        <time>2022-06-07T13:53:41.767Z</time>
      </trkpt>
      <trkpt lat="48.12358" lon="6.45455">
        <ele>457.126481</ele>
        <time>2022-06-07T13:53:47.755Z</time>
      </trkpt>
      <trkpt lat="48.12348" lon="6.45453">
        <ele>457.06857</ele>
        <time>2022-06-07T13:53:51.744Z</time>
      </trkpt>
      <trkpt lat="48.12339" lon="6.45448">
        <ele>457.010462</ele>
        <time>2022-06-07T13:53:55.748Z</time>
      </trkpt>
      <trkpt lat="48.1233" lon="6.45443">
        <ele>456.954643</ele>
        <time>2022-06-07T13:53:59.742Z</time>
      </trkpt>
      <trkpt lat="48.12321" lon="6.45439">
        <ele>456.90181</ele>
        <time>2022-06-07T13:54:03.769Z</time>
      </trkpt>
      <trkpt lat="48.12311" lon="6.45431">
        <ele>456.838417</ele>
        <time>2022-06-07T13:54:09.760Z</time>
      </trkpt>
      <trkpt lat="48.12301" lon="6.45427">
        <ele>456.778539</ele>
        <time>2022-06-07T13:54:13.742Z</time>
      </trkpt>
      <trkpt lat="48.12292" lon="6.45425">
        <ele>456.723313</ele>
        <time>2022-06-07T13:54:16.759Z</time>
      </trkpt>
      <trkpt lat="48.1228" lon="6.45423">
        <ele>456.657456</ele>
        <time>2022-06-07T13:54:20.750Z</time>
      </trkpt>
      <trkpt lat="48.1227" lon="6.45418">
        <ele>456.596255</ele>
        <time>2022-06-07T13:54:24.768Z</time>
      </trkpt>
      <trkpt lat="48.12261" lon="6.45412">
        <ele>456.541232</ele>
        <time>2022-06-07T13:54:27.765Z</time>
      </trkpt>
      <trkpt lat="48.12251" lon="6.45407">
        <ele>456.478664</ele>
        <time>2022-06-07T13:54:31.773Z</time>
      </trkpt>
      <trkpt lat="48.1224" lon="6.45401">
        <ele>456.409246</ele>
        <time>2022-06-07T13:54:35.767Z</time>
      </trkpt>
      <trkpt lat="48.1223" lon="6.45399">
        <ele>456.35542</ele>
        <time>2022-06-07T13:54:42.743Z</time>
      </trkpt>
      <trkpt lat="48.12219" lon="6.45397">
        <ele>456.291948</ele>
        <time>2022-06-07T13:54:46.756Z</time>
      </trkpt>
      <trkpt lat="48.1221" lon="6.45394">
        <ele>456.235945</ele>
        <time>2022-06-07T13:54:49.771Z</time>
      </trkpt>
      <trkpt lat="48.12199" lon="6.45389">
        <ele>456.289404</ele>
        <time>2022-06-07T13:54:53.746Z</time>
      </trkpt>
      <trkpt lat="48.12189" lon="6.45388">
        <ele>456.3337</ele>
        <time>2022-06-07T13:54:57.727Z</time>
      </trkpt>
      <trkpt lat="48.12179" lon="6.45386">
        <ele>456.379138</ele>
        <time>2022-06-07T13:55:01.772Z</time>
      </trkpt>
      <trkpt lat="48.1217" lon="6.45383">
        <ele>456.421935</ele>
        <time>2022-06-07T13:55:05.748Z</time>
      </trkpt>
      <trkpt lat="48.12159" lon="6.45385">
        <ele>456.476716</ele>
        <time>2022-06-07T13:55:10.753Z</time>
      </trkpt>
      <trkpt lat="48.12148" lon="6.45386">
        <ele>456.528352</ele>
        <time>2022-06-07T13:55:14.748Z</time>
      </trkpt>
      <trkpt lat="48.12137" lon="6.4538">
        <ele>456.579616</ele>
        <time>2022-06-07T13:55:18.770Z</time>
      </trkpt>
      <trkpt lat="48.12122" lon="6.45373">
        <ele>456.655877</ele>
        <time>2022-06-07T13:55:22.753Z</time>
      </trkpt>
      <trkpt lat="48.12112" lon="6.4537">
        <ele>456.700888</ele>
        <time>2022-06-07T13:55:24.746Z</time>
      </trkpt>
      <trkpt lat="48.12103" lon="6.45363">
        <ele>456.750808</ele>
        <time>2022-06-07T13:55:28.755Z</time>
      </trkpt>
      <trkpt lat="48.12091" lon="6.45361">
        <ele>456.80509</ele>
        <time>2022-06-07T13:55:31.769Z</time>
      </trkpt>
      <trkpt lat="48.12078" lon="6.45363">
        <ele>456.866906</ele>
        <time>2022-06-07T13:55:36.779Z</time>
      </trkpt>
      <trkpt lat="48.12065" lon="6.45366">
        <ele>456.926956</ele>
        <time>2022-06-07T13:55:39.766Z</time>
      </trkpt>
      <trkpt lat="48.12054" lon="6.45368">
        <ele>456.978173</ele>
        <time>2022-06-07T13:55:42.743Z</time>
      </trkpt>
      <trkpt lat="48.12047" lon="6.4536">
        <ele>457.020598</ele>
        <time>2022-06-07T13:55:48.760Z</time>
      </trkpt>
      <trkpt lat="48.12039" lon="6.45353">
        <ele>457.063513</ele>
        <time>2022-06-07T13:55:52.743Z</time>
      </trkpt>
      <trkpt lat="48.12032" lon="6.45343">
        <ele>457.727944</ele>
        <time>2022-06-07T13:55:55.779Z</time>
      </trkpt>
      <trkpt lat="48.12028" lon="6.4533">
        <ele>458.510926</ele>
        <time>2022-06-07T13:56:00.728Z</time>
      </trkpt>
      <trkpt lat="48.12025" lon="6.45315">
        <ele>459.424394</ele>
        <time>2022-06-07T13:56:05.752Z</time>
      </trkpt>
      <trkpt lat="48.12022" lon="6.45302">
        <ele>460.219742</ele>
        <time>2022-06-07T13:56:11.734Z</time>
      </trkpt>
      <trkpt lat="48.12024" lon="6.45287">
        <ele>461.080982</ele>
        <time>2022-06-07T13:56:18.754Z</time>
      </trkpt>
      <trkpt lat="48.12021" lon="6.45272">
        <ele>461.947275</ele>
        <time>2022-06-07T13:57:00.779Z</time>
      </trkpt>
      <trkpt lat="48.12017" lon="6.45257">
        <ele>462.836566</ele>
        <time>2022-06-07T13:57:04.787Z</time>
      </trkpt>
      <trkpt lat="48.12014" lon="6.45241">
        <ele>463.811192</ele>
        <time>2022-06-07T13:57:08.737Z</time>
      </trkpt>
      <trkpt lat="48.12013" lon="6.45224">
        <ele>464.752708</ele>
        <time>2022-06-07T13:57:12.784Z</time>
      </trkpt>
      <trkpt lat="48.12012" lon="6.45209">
        <ele>465.630268</ele>
        <time>2022-06-07T13:57:16.757Z</time>
      </trkpt>
      <trkpt lat="48.12013" lon="6.45195">
        <ele>466.428595</ele>
        <time>2022-06-07T13:57:20.757Z</time>
      </trkpt>
      <trkpt lat="48.12014" lon="6.45181">
        <ele>467.21636</ele>
        <time>2022-06-07T13:57:24.744Z</time>
      </trkpt>
      <trkpt lat="48.12016" lon="6.45165">
        <ele>468.153</ele>
        <time>2022-06-07T13:57:29.786Z</time>
      </trkpt>
      <trkpt lat="48.12014" lon="6.4515">
        <ele>469.005968</ele>
        <time>2022-06-07T13:57:33.771Z</time>
      </trkpt>
      <trkpt lat="48.12012" lon="6.45134">
        <ele>469.883957</ele>
        <time>2022-06-07T13:57:38.798Z</time>
      </trkpt>
      <trkpt lat="48.1201" lon="6.4512">
        <ele>470.733174</ele>
        <time>2022-06-07T13:57:43.770Z</time>
      </trkpt>
      <trkpt lat="48.12011" lon="6.45105">
        <ele>471.561189</ele>
        <time>2022-06-07T13:57:49.762Z</time>
      </trkpt>
      <trkpt lat="48.12012" lon="6.4509">
        <ele>472.370982</ele>
        <time>2022-06-07T13:57:54.754Z</time>
      </trkpt>
      <trkpt lat="48.12009" lon="6.45077">
        <ele>472.852955</ele>
        <time>2022-06-07T13:57:58.771Z</time>
      </trkpt>
      <trkpt lat="48.12006" lon="6.45062">
        <ele>473.40677</ele>
        <time>2022-06-07T13:58:02.772Z</time>
      </trkpt>
      <trkpt lat="48.12007" lon="6.45047">
        <ele>473.935803</ele>
        <time>2022-06-07T13:58:06.759Z</time>
      </trkpt>
      <trkpt lat="48.12009" lon="6.45031">
        <ele>474.473443</ele>
        <time>2022-06-07T13:58:11.756Z</time>
      </trkpt>
      <trkpt lat="48.12011" lon="6.45018">
        <ele>474.94748</ele>
        <time>2022-06-07T13:58:15.733Z</time>
      </trkpt>
      <trkpt lat="48.12013" lon="6.45003">
        <ele>475.480124</ele>
        <time>2022-06-07T13:58:21.765Z</time>
      </trkpt>
      <trkpt lat="48.12003" lon="6.45004">
        <ele>475.986712</ele>
        <time>2022-06-07T13:58:30.749Z</time>
      </trkpt>
      <trkpt lat="48.11994" lon="6.45007">
        <ele>476.472332</ele>
        <time>2022-06-07T13:58:33.781Z</time>
      </trkpt>
      <trkpt lat="48.11985" lon="6.45015">
        <ele>476.992845</ele>
        <time>2022-06-07T13:58:37.734Z</time>
      </trkpt>
      <trkpt lat="48.11978" lon="6.45025">
        <ele>477.523194</ele>
        <time>2022-06-07T13:58:41.806Z</time>
      </trkpt>
      <trkpt lat="48.1197" lon="6.45034">
        <ele>477.987875</ele>
        <time>2022-06-07T13:58:45.753Z</time>
      </trkpt>
      <trkpt lat="48.11962" lon="6.45042">
        <ele>478.53433</ele>
        <time>2022-06-07T13:58:50.764Z</time>
      </trkpt>
      <trkpt lat="48.11953" lon="6.45047">
        <ele>479.02498</ele>
        <time>2022-06-07T13:58:54.737Z</time>
      </trkpt>
      <trkpt lat="48.11942" lon="6.45052">
        <ele>479.597776</ele>
        <time>2022-06-07T13:58:58.764Z</time>
      </trkpt>
      <trkpt lat="48.11934" lon="6.45064">
        <ele>480.174671</ele>
        <time>2022-06-07T13:59:02.766Z</time>
      </trkpt>
      <trkpt lat="48.11929" lon="6.4508">
        <ele>480.788489</ele>
        <time>2022-06-07T13:59:06.768Z</time>
      </trkpt>
      <trkpt lat="48.11927" lon="6.45095">
        <ele>481.310047</ele>
        <time>2022-06-07T13:59:10.764Z</time>
      </trkpt>
      <trkpt lat="48.11925" lon="6.4511">
        <ele>481.582043</ele>
        <time>2022-06-07T13:59:15.753Z</time>
      </trkpt>
      <trkpt lat="48.11921" lon="6.45124">
        <ele>481.530561</ele>
        <time>2022-06-07T13:59:20.757Z</time>
      </trkpt>
      <trkpt lat="48.11918" lon="6.4514">
        <ele>481.476436</ele>
        <time>2022-06-07T13:59:24.755Z</time>
      </trkpt>
      <trkpt lat="48.11913" lon="6.45155">
        <ele>481.423304</ele>
        <time>2022-06-07T13:59:27.758Z</time>
      </trkpt>
      <trkpt lat="48.11904" lon="6.45161">
        <ele>481.376122</ele>
        <time>2022-06-07T13:59:32.762Z</time>
      </trkpt>
      <trkpt lat="48.11893" lon="6.45167">
        <ele>481.318298</ele>
        <time>2022-06-07T13:59:37.743Z</time>
      </trkpt>
      <trkpt lat="48.11883" lon="6.4517">
        <ele>481.269107</ele>
        <time>2022-06-07T13:59:40.801Z</time>
      </trkpt>
      <trkpt lat="48.11874" lon="6.45173">
        <ele>481.220797</ele>
        <time>2022-06-07T13:59:43.763Z</time>
      </trkpt>
      <trkpt lat="48.11864" lon="6.45179">
        <ele>481.170692</ele>
        <time>2022-06-07T13:59:46.778Z</time>
      </trkpt>
      <trkpt lat="48.11853" lon="6.45183">
        <ele>481.115897</ele>
        <time>2022-06-07T13:59:49.746Z</time>
      </trkpt>
      <trkpt lat="48.11844" lon="6.45186">
        <ele>481.071427</ele>
        <time>2022-06-07T13:59:52.761Z</time>
      </trkpt>
      <trkpt lat="48.11836" lon="6.45192">
        <ele>481.026731</ele>
        <time>2022-06-07T13:59:55.762Z</time>
      </trkpt>
      <trkpt lat="48.11826" lon="6.45199">
        <ele>480.9737</ele>
        <time>2022-06-07T13:59:59.787Z</time>
      </trkpt>
      <trkpt lat="48.11817" lon="6.45204">
        <ele>480.923503</ele>
        <time>2022-06-07T14:00:03.806Z</time>
      </trkpt>
      <trkpt lat="48.11808" lon="6.45211">
        <ele>480.876955</ele>
        <time>2022-06-07T14:00:06.753Z</time>
      </trkpt>
      <trkpt lat="48.11798" lon="6.45219">
        <ele>480.820135</ele>
        <time>2022-06-07T14:00:10.770Z</time>
      </trkpt>
      <trkpt lat="48.11788" lon="6.45224">
        <ele>480.768507</ele>
        <time>2022-06-07T14:00:13.824Z</time>
      </trkpt>
      <trkpt lat="48.11777" lon="6.45229">
        <ele>480.728487</ele>
        <time>2022-06-07T14:00:17.771Z</time>
      </trkpt>
      <trkpt lat="48.11766" lon="6.45235">
        <ele>480.753085</ele>
        <time>2022-06-07T14:00:21.773Z</time>
      </trkpt>
      <trkpt lat="48.11755" lon="6.45231">
        <ele>480.776881</ele>
        <time>2022-06-07T14:00:24.768Z</time>
      </trkpt>
      <trkpt lat="48.11745" lon="6.45234">
        <ele>480.797401</ele>
        <time>2022-06-07T14:00:27.775Z</time>
      </trkpt>
      <trkpt lat="48.11737" lon="6.45242">
        <ele>480.818595</ele>
        <time>2022-06-07T14:00:30.756Z</time>
      </trkpt>
      <trkpt lat="48.11728" lon="6.45245">
        <ele>480.838693</ele>
        <time>2022-06-07T14:00:33.798Z</time>
      </trkpt>
      <trkpt lat="48.11719" lon="6.45245">
        <ele>480.858118</ele>
        <time>2022-06-07T14:00:37.782Z</time>
      </trkpt>
      <trkpt lat="48.1171" lon="6.45241">
        <ele>480.878215</ele>
        <time>2022-06-07T14:00:43.786Z</time>
      </trkpt>
      <trkpt lat="48.117" lon="6.45237">
        <ele>480.900043</ele>
        <time>2022-06-07T14:00:49.773Z</time>
      </trkpt>
      <trkpt lat="48.1169" lon="6.45232">
        <ele>480.922286</ele>
        <time>2022-06-07T14:00:54.745Z</time>
      </trkpt>
      <trkpt lat="48.11679" lon="6.45224">
        <ele>480.948519</ele>
        <time>2022-06-07T14:00:59.769Z</time>
      </trkpt>
      <trkpt lat="48.1167" lon="6.45218">
        <ele>480.970209</ele>
        <time>2022-06-07T14:01:04.775Z</time>
      </trkpt>
      <trkpt lat="48.11661" lon="6.45211">
        <ele>480.99266</ele>
        <time>2022-06-07T14:01:08.757Z</time>
      </trkpt>
      <trkpt lat="48.11652" lon="6.45202">
        <ele>481.013866</ele>
        <time>2022-06-07T14:01:12.782Z</time>
      </trkpt>
      <trkpt lat="48.11644" lon="6.45192">
        <ele>481.036547</ele>
        <time>2022-06-07T14:01:17.769Z</time>
      </trkpt>
      <trkpt lat="48.11634" lon="6.45184">
        <ele>481.060952</ele>
        <time>2022-06-07T14:01:23.750Z</time>
      </trkpt>
      <trkpt lat="48.11627" lon="6.45173">
        <ele>481.081746</ele>
        <time>2022-06-07T14:01:29.757Z</time>
      </trkpt>
      <trkpt lat="48.11619" lon="6.4516">
        <ele>481.135496</ele>
        <time>2022-06-07T14:01:35.751Z</time>
      </trkpt>
      <trkpt lat="48.11612" lon="6.45148">
        <ele>481.754695</ele>
        <time>2022-06-07T14:01:40.774Z</time>
      </trkpt>
      <trkpt lat="48.11605" lon="6.45138">
        <ele>482.286875</ele>
        <time>2022-06-07T14:01:44.781Z</time>
      </trkpt>
      <trkpt lat="48.11601" lon="6.45123">
        <ele>482.881997</ele>
        <time>2022-06-07T14:01:49.761Z</time>
      </trkpt>
      <trkpt lat="48.11596" lon="6.45108">
        <ele>483.525532</ele>
        <time>2022-06-07T14:01:53.768Z</time>
      </trkpt>
      <trkpt lat="48.1159" lon="6.45096">
        <ele>484.087665</ele>
        <time>2022-06-07T14:01:57.766Z</time>
      </trkpt>
      <trkpt lat="48.11583" lon="6.45087">
        <ele>484.594016</ele>
        <time>2022-06-07T14:02:01.757Z</time>
      </trkpt>
      <trkpt lat="48.11577" lon="6.45076">
        <ele>485.114237</ele>
        <time>2022-06-07T14:02:06.750Z</time>
      </trkpt>
      <trkpt lat="48.11572" lon="6.45062">
        <ele>485.711916</ele>
        <time>2022-06-07T14:02:09.755Z</time>
      </trkpt>
      <trkpt lat="48.11567" lon="6.4505">
        <ele>486.244538</ele>
        <time>2022-06-07T14:02:14.760Z</time>
      </trkpt>
      <trkpt lat="48.11562" lon="6.45036">
        <ele>486.858812</ele>
        <time>2022-06-07T14:02:19.771Z</time>
      </trkpt>
      <trkpt lat="48.11559" lon="6.45022">
        <ele>487.40951</ele>
        <time>2022-06-07T14:02:24.771Z</time>
      </trkpt>
      <trkpt lat="48.11556" lon="6.45006">
        <ele>488.026008</ele>
        <time>2022-06-07T14:02:29.764Z</time>
      </trkpt>
      <trkpt lat="48.11553" lon="6.44992">
        <ele>488.55408</ele>
        <time>2022-06-07T14:02:33.748Z</time>
      </trkpt>
      <trkpt lat="48.11549" lon="6.44979">
        <ele>489.100162</ele>
        <time>2022-06-07T14:02:36.756Z</time>
      </trkpt>
      <trkpt lat="48.11546" lon="6.44962">
        <ele>489.769535</ele>
        <time>2022-06-07T14:02:40.763Z</time>
      </trkpt>
      <trkpt lat="48.11544" lon="6.44946">
        <ele>490.373747</ele>
        <time>2022-06-07T14:02:45.771Z</time>
      </trkpt>
      <trkpt lat="48.11542" lon="6.44929">
        <ele>491.01811</ele>
        <time>2022-06-07T14:02:49.774Z</time>
      </trkpt>
      <trkpt lat="48.11541" lon="6.44915">
        <ele>491.523804</ele>
        <time>2022-06-07T14:02:52.785Z</time>
      </trkpt>
      <trkpt lat="48.11543" lon="6.44902">
        <ele>491.990251</ele>
        <time>2022-06-07T14:02:57.729Z</time>
      </trkpt>
      <trkpt lat="48.11544" lon="6.44888">
        <ele>492.472655</ele>
        <time>2022-06-07T14:03:01.758Z</time>
      </trkpt>
      <trkpt lat="48.11543" lon="6.44874">
        <ele>492.96646</ele>
        <time>2022-06-07T14:03:06.767Z</time>
      </trkpt>
      <trkpt lat="48.1154" lon="6.44858">
        <ele>493.513846</ele>
        <time>2022-06-07T14:03:10.783Z</time>
      </trkpt>
      <trkpt lat="48.11539" lon="6.44843">
        <ele>494.052283</ele>
        <time>2022-06-07T14:03:15.746Z</time>
      </trkpt>
      <trkpt lat="48.11538" lon="6.44828">
        <ele>494.546088</ele>
        <time>2022-06-07T14:03:22.740Z</time>
      </trkpt>
      <trkpt lat="48.1154" lon="6.44813">
        <ele>495.071649</ele>
        <time>2022-06-07T14:03:26.743Z</time>
      </trkpt>
      <trkpt lat="48.11548" lon="6.44824">
        <ele>495.60427</ele>
        <time>2022-06-07T14:03:34.766Z</time>
      </trkpt>
      <trkpt lat="48.11554" lon="6.44834">
        <ele>496.083908</ele>
        <time>2022-06-07T14:03:40.760Z</time>
      </trkpt>
      <trkpt lat="48.11563" lon="6.44841">
        <ele>496.61781</ele>
        <time>2022-06-07T14:03:46.765Z</time>
      </trkpt>
      <trkpt lat="48.11571" lon="6.44849">
        <ele>497.121328</ele>
        <time>2022-06-07T14:03:51.783Z</time>
      </trkpt>
      <trkpt lat="48.11581" lon="6.44859">
        <ele>497.722866</ele>
        <time>2022-06-07T14:03:56.746Z</time>
      </trkpt>
      <trkpt lat="48.1159" lon="6.44865">
        <ele>498.221354</ele>
        <time>2022-06-07T14:03:59.775Z</time>
      </trkpt>
      <trkpt lat="48.11597" lon="6.44874">
        <ele>498.720492</ele>
        <time>2022-06-07T14:04:03.759Z</time>
      </trkpt>
      <trkpt lat="48.11604" lon="6.44884">
        <ele>499.211615</ele>
        <time>2022-06-07T14:04:07.753Z</time>
      </trkpt>
      <trkpt lat="48.11613" lon="6.44892">
        <ele>499.758459</ele>
        <time>2022-06-07T14:04:11.767Z</time>
      </trkpt>
      <trkpt lat="48.1162" lon="6.44903">
        <ele>500.295449</ele>
        <time>2022-06-07T14:04:17.771Z</time>
      </trkpt>
      <trkpt lat="48.11626" lon="6.44914">
        <ele>500.49758</ele>
        <time>2022-06-07T14:04:22.752Z</time>
      </trkpt>
      <trkpt lat="48.11635" lon="6.4492">
        <ele>500.496554</ele>
        <time>2022-06-07T14:04:26.757Z</time>
      </trkpt>
      <trkpt lat="48.11644" lon="6.44917">
        <ele>500.495523</ele>
        <time>2022-06-07T14:04:37.760Z</time>
      </trkpt>
      <trkpt lat="48.11654" lon="6.44922">
        <ele>500.494433</ele>
        <time>2022-06-07T14:04:47.787Z</time>
      </trkpt>
      <trkpt lat="48.1166" lon="6.44932">
        <ele>500.493462</ele>
        <time>2022-06-07T14:04:52.736Z</time>
      </trkpt>
      <trkpt lat="48.11668" lon="6.44941">
        <ele>500.492392</ele>
        <time>2022-06-07T14:04:56.775Z</time>
      </trkpt>
      <trkpt lat="48.11675" lon="6.44951">
        <ele>500.491386</ele>
        <time>2022-06-07T14:05:01.771Z</time>
      </trkpt>
      <trkpt lat="48.11683" lon="6.44958">
        <ele>500.490367</ele>
        <time>2022-06-07T14:05:05.758Z</time>
      </trkpt>
      <trkpt lat="48.11691" lon="6.44967">
        <ele>500.489287</ele>
        <time>2022-06-07T14:05:11.778Z</time>
      </trkpt>
      <trkpt lat="48.11699" lon="6.44974">
        <ele>500.488265</ele>
        <time>2022-06-07T14:05:16.784Z</time>
      </trkpt>
      <trkpt lat="48.11709" lon="6.44981">
        <ele>500.487133</ele>
        <time>2022-06-07T14:05:20.771Z</time>
      </trkpt>
      <trkpt lat="48.11716" lon="6.44991">
        <ele>500.486033</ele>
        <time>2022-06-07T14:05:25.773Z</time>
      </trkpt>
      <trkpt lat="48.11727" lon="6.44995">
        <ele>500.484887</ele>
        <time>2022-06-07T14:05:31.765Z</time>
      </trkpt>
      <trkpt lat="48.11736" lon="6.44998">
        <ele>500.483855</ele>
        <time>2022-06-07T14:05:39.738Z</time>
      </trkpt>
      <trkpt lat="48.11745" lon="6.44997">
        <ele>500.482866</ele>
        <time>2022-06-07T14:05:47.768Z</time>
      </trkpt>
      <trkpt lat="48.11753" lon="6.45004">
        <ele>500.481881</ele>
        <time>2022-06-07T14:05:52.781Z</time>
      </trkpt>
      <trkpt lat="48.11763" lon="6.45006">
        <ele>500.480853</ele>
        <time>2022-06-07T14:05:57.761Z</time>
      </trkpt>
      <trkpt lat="48.11768" lon="6.44993">
        <ele>500.479755</ele>
        <time>2022-06-07T14:06:06.774Z</time>
      </trkpt>
      <trkpt lat="48.11773" lon="6.4498">
        <ele>500.50595</ele>
        <time>2022-06-07T14:06:16.779Z</time>
      </trkpt>
      <trkpt lat="48.11773" lon="6.44966">
        <ele>500.670461</ele>
        <time>2022-06-07T14:06:24.760Z</time>
      </trkpt>
      <trkpt lat="48.11776" lon="6.44952">
        <ele>500.832985</ele>
        <time>2022-06-07T14:06:29.780Z</time>
      </trkpt>
      <trkpt lat="48.11774" lon="6.44937">
        <ele>501.0113</ele>
        <time>2022-06-07T14:06:37.767Z</time>
      </trkpt>
      <trkpt lat="48.11771" lon="6.44922">
        <ele>501.194226</ele>
        <time>2022-06-07T14:06:43.774Z</time>
      </trkpt>
      <trkpt lat="48.11768" lon="6.44909">
        <ele>501.355274</ele>
        <time>2022-06-07T14:06:47.749Z</time>
      </trkpt>
      <trkpt lat="48.11771" lon="6.44895">
        <ele>501.521064</ele>
        <time>2022-06-07T14:06:52.781Z</time>
      </trkpt>
      <trkpt lat="48.11774" lon="6.44879">
        <ele>501.718793</ele>
        <time>2022-06-07T14:06:56.762Z</time>
      </trkpt>
      <trkpt lat="48.11776" lon="6.44863">
        <ele>501.908237</ele>
        <time>2022-06-07T14:07:01.783Z</time>
      </trkpt>
      <trkpt lat="48.11777" lon="6.44848">
        <ele>502.074384</ele>
        <time>2022-06-07T14:07:05.774Z</time>
      </trkpt>
      <trkpt lat="48.11779" lon="6.44833">
        <ele>502.254209</ele>
        <time>2022-06-07T14:07:09.775Z</time>
      </trkpt>
      <trkpt lat="48.11784" lon="6.4482">
        <ele>502.422917</ele>
        <time>2022-06-07T14:07:13.763Z</time>
      </trkpt>
      <trkpt lat="48.11786" lon="6.44804">
        <ele>502.614648</ele>
        <time>2022-06-07T14:07:17.759Z</time>
      </trkpt>
      <trkpt lat="48.11791" lon="6.44788">
        <ele>502.82055</ele>
        <time>2022-06-07T14:07:21.765Z</time>
      </trkpt>
      <trkpt lat="48.11794" lon="6.44775">
        <ele>502.985194</ele>
        <time>2022-06-07T14:07:25.761Z</time>
      </trkpt>
      <trkpt lat="48.11798" lon="6.4476">
        <ele>503.167036</ele>
        <time>2022-06-07T14:07:29.775Z</time>
      </trkpt>
      <trkpt lat="48.11802" lon="6.44744">
        <ele>503.368193</ele>
        <time>2022-06-07T14:07:33.750Z</time>
      </trkpt>
      <trkpt lat="48.11807" lon="6.44729">
        <ele>503.555852</ele>
        <time>2022-06-07T14:07:37.767Z</time>
      </trkpt>
      <trkpt lat="48.11811" lon="6.44715">
        <ele>504.036879</ele>
        <time>2022-06-07T14:07:41.771Z</time>
      </trkpt>
      <trkpt lat="48.11814" lon="6.44703">
        <ele>504.570857</ele>
        <time>2022-06-07T14:07:45.764Z</time>
      </trkpt>
      <trkpt lat="48.11818" lon="6.44689">
        <ele>505.14124</ele>
        <time>2022-06-07T14:07:49.782Z</time>
      </trkpt>
      <trkpt lat="48.11822" lon="6.44677">
        <ele>505.684631</ele>
        <time>2022-06-07T14:07:53.761Z</time>
      </trkpt>
      <trkpt lat="48.11825" lon="6.44663">
        <ele>506.262445</ele>
        <time>2022-06-07T14:07:57.762Z</time>
      </trkpt>
      <trkpt lat="48.1183" lon="6.44649">
        <ele>506.873157</ele>
        <time>2022-06-07T14:08:01.762Z</time>
      </trkpt>
      <trkpt lat="48.11836" lon="6.44637">
        <ele>507.459751</ele>
        <time>2022-06-07T14:08:05.779Z</time>
      </trkpt>
      <trkpt lat="48.11846" lon="6.44635">
        <ele>508.02483</ele>
        <time>2022-06-07T14:08:10.782Z</time>
      </trkpt>
      <trkpt lat="48.11855" lon="6.44637">
        <ele>508.556127</ele>
        <time>2022-06-07T14:08:14.743Z</time>
      </trkpt>
      <trkpt lat="48.11865" lon="6.44643">
        <ele>509.192511</ele>
        <time>2022-06-07T14:08:20.757Z</time>
      </trkpt>
      <trkpt lat="48.11874" lon="6.4465">
        <ele>509.809965</ele>
        <time>2022-06-07T14:08:26.768Z</time>
      </trkpt>
      <trkpt lat="48.11884" lon="6.44652">
        <ele>510.403938</ele>
        <time>2022-06-07T14:08:32.743Z</time>
      </trkpt>
      <trkpt lat="48.11894" lon="6.44658">
        <ele>511.029692</ele>
        <time>2022-06-07T14:08:37.772Z</time>
      </trkpt>
      <trkpt lat="48.11903" lon="6.44665">
        <ele>511.6104</ele>
        <time>2022-06-07T14:08:41.758Z</time>
      </trkpt>
      <trkpt lat="48.11912" lon="6.44669">
        <ele>512.133605</ele>
        <time>2022-06-07T14:08:44.754Z</time>
      </trkpt>
      <trkpt lat="48.11922" lon="6.44675">
        <ele>512.760853</ele>
        <time>2022-06-07T14:08:48.763Z</time>
      </trkpt>
      <trkpt lat="48.1193" lon="6.44683">
        <ele>513.319558</ele>
        <time>2022-06-07T14:08:52.761Z</time>
      </trkpt>
      <trkpt lat="48.11939" lon="6.44689">
        <ele>513.884426</ele>
        <time>2022-06-07T14:08:56.777Z</time>
      </trkpt>
      <trkpt lat="48.11947" lon="6.44698">
        <ele>514.771926</ele>
        <time>2022-06-07T14:09:01.772Z</time>
      </trkpt>
      <trkpt lat="48.11956" lon="6.447">
        <ele>515.702559</ele>
        <time>2022-06-07T14:09:04.752Z</time>
      </trkpt>
      <trkpt lat="48.11978" lon="6.44706">
        <ele>517.946014</ele>
        <time>2022-06-07T14:09:08.765Z</time>
      </trkpt>
      <trkpt lat="48.11988" lon="6.44719">
        <ele>519.335017</ele>
        <time>2022-06-07T14:09:12.754Z</time>
      </trkpt>
      <trkpt lat="48.11999" lon="6.44724">
        <ele>520.489903</ele>
        <time>2022-06-07T14:09:13.752Z</time>
      </trkpt>
      <trkpt lat="48.12012" lon="6.44726">
        <ele>521.823031</ele>
        <time>2022-06-07T14:09:16.740Z</time>
      </trkpt>
      <trkpt lat="48.12021" lon="6.44736">
        <ele>523.034837</ele>
        <time>2022-06-07T14:09:20.741Z</time>
      </trkpt>
      <trkpt lat="48.12036" lon="6.44736">
        <ele>524.528204</ele>
        <time>2022-06-07T14:09:22.760Z</time>
      </trkpt>
      <trkpt lat="48.12044" lon="6.44743">
        <ele>525.453043</ele>
        <time>2022-06-07T14:09:27.752Z</time>
      </trkpt>
      <trkpt lat="48.12052" lon="6.44749">
        <ele>526.417083</ele>
        <time>2022-06-07T14:09:31.748Z</time>
      </trkpt>
      <trkpt lat="48.1206" lon="6.4476">
        <ele>527.529406</ele>
        <time>2022-06-07T14:09:35.750Z</time>
      </trkpt>
      <trkpt lat="48.1207" lon="6.44765">
        <ele>528.578661</ele>
        <time>2022-06-07T14:09:39.777Z</time>
      </trkpt>
      <trkpt lat="48.1208" lon="6.44767">
        <ele>529.552875</ele>
        <time>2022-06-07T14:09:43.753Z</time>
      </trkpt>
      <trkpt lat="48.12088" lon="6.44774">
        <ele>530.559726</ele>
        <time>2022-06-07T14:09:47.762Z</time>
      </trkpt>
      <trkpt lat="48.12097" lon="6.44781">
        <ele>531.600883</ele>
        <time>2022-06-07T14:09:51.748Z</time>
      </trkpt>
      <trkpt lat="48.12106" lon="6.44789">
        <ele>532.585604</ele>
        <time>2022-06-07T14:09:55.774Z</time>
      </trkpt>
      <trkpt lat="48.12116" lon="6.4479">
        <ele>533.321577</ele>
        <time>2022-06-07T14:09:56.773Z</time>
      </trkpt>
      <trkpt lat="48.12126" lon="6.44791">
        <ele>534.032968</ele>
        <time>2022-06-07T14:09:57.771Z</time>
      </trkpt>
      <trkpt lat="48.12135" lon="6.44792">
        <ele>534.66904</ele>
        <time>2022-06-07T14:09:59.768Z</time>
      </trkpt>
      <trkpt lat="48.12145" lon="6.44795">
        <ele>535.386073</ele>
        <time>2022-06-07T14:10:04.779Z</time>
      </trkpt>
      <trkpt lat="48.12156" lon="6.44794">
        <ele>536.125772</ele>
        <time>2022-06-07T14:10:07.773Z</time>
      </trkpt>
      <trkpt lat="48.12171" lon="6.44796">
        <ele>537.18439</ele>
        <time>2022-06-07T14:10:12.761Z</time>
      </trkpt>
      <trkpt lat="48.12182" lon="6.44798">
        <ele>537.963881</ele>
        <time>2022-06-07T14:10:17.762Z</time>
      </trkpt>
      <trkpt lat="48.12193" lon="6.44796">
        <ele>538.738775</ele>
        <time>2022-06-07T14:10:22.775Z</time>
      </trkpt>
      <trkpt lat="48.12204" lon="6.44792">
        <ele>539.520692</ele>
        <time>2022-06-07T14:10:26.753Z</time>
      </trkpt>
      <trkpt lat="48.12212" lon="6.44787">
        <ele>540.168412</ele>
        <time>2022-06-07T14:10:30.744Z</time>
      </trkpt>
      <trkpt lat="48.12223" lon="6.44783">
        <ele>540.945293</ele>
        <time>2022-06-07T14:10:34.765Z</time>
      </trkpt>
      <trkpt lat="48.12232" lon="6.44773">
        <ele>541.737009</ele>
        <time>2022-06-07T14:10:37.764Z</time>
      </trkpt>
      <trkpt lat="48.1224" lon="6.44762">
        <ele>542.488001</ele>
        <time>2022-06-07T14:10:40.742Z</time>
      </trkpt>
      <trkpt lat="48.12248" lon="6.44752">
        <ele>543.240771</ele>
        <time>2022-06-07T14:10:45.762Z</time>
      </trkpt>
      <trkpt lat="48.1226" lon="6.44746">
        <ele>544.10116</ele>
        <time>2022-06-07T14:10:50.802Z</time>
      </trkpt>
      <trkpt lat="48.1227" lon="6.44743">
        <ele>544.818193</ele>
        <time>2022-06-07T14:10:54.780Z</time>
      </trkpt>
      <trkpt lat="48.12279" lon="6.4474">
        <ele>545.336177</ele>
        <time>2022-06-07T14:10:57.766Z</time>
      </trkpt>
      <trkpt lat="48.12289" lon="6.44742">
        <ele>545.66638</ele>
        <time>2022-06-07T14:11:00.779Z</time>
      </trkpt>
      <trkpt lat="48.12298" lon="6.44743">
        <ele>545.967351</ele>
        <time>2022-06-07T14:11:03.775Z</time>
      </trkpt>
      <trkpt lat="48.12309" lon="6.44741">
        <ele>546.327022</ele>
        <time>2022-06-07T14:11:06.756Z</time>
      </trkpt>
      <trkpt lat="48.12321" lon="6.44741">
        <ele>546.738223</ele>
        <time>2022-06-07T14:11:10.771Z</time>
      </trkpt>
      <trkpt lat="48.12335" lon="6.44745">
        <ele>547.205003</ele>
        <time>2022-06-07T14:11:15.802Z</time>
      </trkpt>
      <trkpt lat="48.12345" lon="6.44745">
        <ele>547.539634</ele>
        <time>2022-06-07T14:11:16.770Z</time>
      </trkpt>
      <trkpt lat="48.12356" lon="6.44749">
        <ele>547.930016</ele>
        <time>2022-06-07T14:11:18.760Z</time>
      </trkpt>
      <trkpt lat="48.12365" lon="6.44755">
        <ele>548.250489</ele>
        <time>2022-06-07T14:11:21.772Z</time>
      </trkpt>
      <trkpt lat="48.12375" lon="6.44761">
        <ele>548.624084</ele>
        <time>2022-06-07T14:11:25.750Z</time>
      </trkpt>
      <trkpt lat="48.12387" lon="6.44764">
        <ele>549.012202</ele>
        <time>2022-06-07T14:11:29.771Z</time>
      </trkpt>
      <trkpt lat="48.12396" lon="6.44762">
        <ele>549.315423</ele>
        <time>2022-06-07T14:11:33.788Z</time>
      </trkpt>
      <trkpt lat="48.12405" lon="6.44759">
        <ele>549.625514</ele>
        <time>2022-06-07T14:11:38.794Z</time>
      </trkpt>
      <trkpt lat="48.12414" lon="6.44758">
        <ele>549.932052</ele>
        <time>2022-06-07T14:11:42.753Z</time>
      </trkpt>
      <trkpt lat="48.12424" lon="6.44756">
        <ele>550.271315</ele>
        <time>2022-06-07T14:11:47.770Z</time>
      </trkpt>
      <trkpt lat="48.12434" lon="6.44754">
        <ele>550.594444</ele>
        <time>2022-06-07T14:11:52.766Z</time>
      </trkpt>
      <trkpt lat="48.12442" lon="6.44749">
        <ele>550.89658</ele>
        <time>2022-06-07T14:11:57.789Z</time>
      </trkpt>
      <trkpt lat="48.12449" lon="6.4474">
        <ele>551.219688</ele>
        <time>2022-06-07T14:12:01.760Z</time>
      </trkpt>
      <trkpt lat="48.12453" lon="6.44725">
        <ele>551.880369</ele>
        <time>2022-06-07T14:12:05.772Z</time>
      </trkpt>
      <trkpt lat="48.1245" lon="6.44711">
        <ele>552.482638</ele>
        <time>2022-06-07T14:12:09.753Z</time>
      </trkpt>
      <trkpt lat="48.12444" lon="6.44697">
        <ele>553.160268</ele>
        <time>2022-06-07T14:12:13.784Z</time>
      </trkpt>
      <trkpt lat="48.12435" lon="6.44687">
        <ele>553.872061</ele>
        <time>2022-06-07T14:12:18.747Z</time>
      </trkpt>
      <trkpt lat="48.12425" lon="6.44677">
        <ele>554.582849</ele>
        <time>2022-06-07T14:12:23.764Z</time>
      </trkpt>
      <trkpt lat="48.12418" lon="6.44668">
        <ele>555.145962</ele>
        <time>2022-06-07T14:12:27.767Z</time>
      </trkpt>
      <trkpt lat="48.12409" lon="6.44659">
        <ele>555.784365</ele>
        <time>2022-06-07T14:12:31.772Z</time>
      </trkpt>
      <trkpt lat="48.124" lon="6.44651">
        <ele>556.443536</ele>
        <time>2022-06-07T14:12:35.765Z</time>
      </trkpt>
      <trkpt lat="48.12393" lon="6.44639">
        <ele>557.104647</ele>
        <time>2022-06-07T14:12:40.759Z</time>
      </trkpt>
      <trkpt lat="48.12386" lon="6.44629">
        <ele>557.668886</ele>
        <time>2022-06-07T14:12:44.766Z</time>
      </trkpt>
      <trkpt lat="48.12379" lon="6.4462">
        <ele>558.266024</ele>
        <time>2022-06-07T14:12:49.747Z</time>
      </trkpt>
      <trkpt lat="48.1237" lon="6.44611">
        <ele>558.931565</ele>
        <time>2022-06-07T14:12:53.774Z</time>
      </trkpt>
      <trkpt lat="48.12362" lon="6.44601">
        <ele>559.557689</ele>
        <time>2022-06-07T14:12:58.787Z</time>
      </trkpt>
      <trkpt lat="48.12355" lon="6.4459">
        <ele>560.171509</ele>
        <time>2022-06-07T14:13:04.790Z</time>
      </trkpt>
      <trkpt lat="48.12349" lon="6.44578">
        <ele>560.786325</ele>
        <time>2022-06-07T14:13:08.775Z</time>
      </trkpt>
      <trkpt lat="48.12343" lon="6.44568">
        <ele>561.34042</ele>
        <time>2022-06-07T14:13:14.779Z</time>
      </trkpt>
      <trkpt lat="48.12335" lon="6.44558">
        <ele>561.967237</ele>
        <time>2022-06-07T14:13:20.772Z</time>
      </trkpt>
      <trkpt lat="48.12328" lon="6.4455">
        <ele>562.10878</ele>
        <time>2022-06-07T14:13:24.780Z</time>
      </trkpt>
      <trkpt lat="48.1232" lon="6.4454">
        <ele>561.912261</ele>
        <time>2022-06-07T14:13:28.777Z</time>
      </trkpt>
      <trkpt lat="48.12311" lon="6.4453">
        <ele>561.696833</ele>
        <time>2022-06-07T14:13:32.762Z</time>
      </trkpt>
      <trkpt lat="48.12304" lon="6.44518">
        <ele>561.487589</ele>
        <time>2022-06-07T14:13:36.778Z</time>
      </trkpt>
      <trkpt lat="48.12296" lon="6.44507">
        <ele>561.263216</ele>
        <time>2022-06-07T14:13:40.798Z</time>
      </trkpt>
      <trkpt lat="48.12289" lon="6.44496">
        <ele>561.068649</ele>
        <time>2022-06-07T14:13:44.773Z</time>
      </trkpt>
      <trkpt lat="48.12283" lon="6.44483">
        <ele>560.855401</ele>
        <time>2022-06-07T14:13:49.776Z</time>
      </trkpt>
      <trkpt lat="48.12279" lon="6.44469">
        <ele>560.664456</ele>
        <time>2022-06-07T14:13:54.760Z</time>
      </trkpt>
      <trkpt lat="48.12276" lon="6.44455">
        <ele>560.462972</ele>
        <time>2022-06-07T14:13:59.784Z</time>
      </trkpt>
      <trkpt lat="48.12271" lon="6.44443">
        <ele>560.280692</ele>
        <time>2022-06-07T14:14:02.783Z</time>
      </trkpt>
      <trkpt lat="48.12266" lon="6.44429">
        <ele>560.07975</ele>
        <time>2022-06-07T14:14:07.778Z</time>
      </trkpt>
      <trkpt lat="48.12258" lon="6.4442">
        <ele>559.885496</ele>
        <time>2022-06-07T14:14:13.768Z</time>
      </trkpt>
      <trkpt lat="48.12248" lon="6.44419">
        <ele>559.692743</ele>
        <time>2022-06-07T14:14:20.769Z</time>
      </trkpt>
      <trkpt lat="48.1224" lon="6.44411">
        <ele>559.489819</ele>
        <time>2022-06-07T14:14:28.784Z</time>
      </trkpt>
      <trkpt lat="48.12231" lon="6.44404">
        <ele>559.293483</ele>
        <time>2022-06-07T14:14:33.790Z</time>
      </trkpt>
      <trkpt lat="48.12221" lon="6.44404">
        <ele>559.099033</ele>
        <time>2022-06-07T14:14:38.768Z</time>
      </trkpt>
      <trkpt lat="48.12212" lon="6.44405">
        <ele>558.915591</ele>
        <time>2022-06-07T14:14:45.765Z</time>
      </trkpt>
      <trkpt lat="48.12202" lon="6.44405">
        <ele>558.736871</ele>
        <time>2022-06-07T14:14:48.750Z</time>
      </trkpt>
      <trkpt lat="48.12193" lon="6.44405">
        <ele>558.088352</ele>
        <time>2022-06-07T14:14:50.783Z</time>
      </trkpt>
      <trkpt lat="48.12184" lon="6.444">
        <ele>557.280441</ele>
        <time>2022-06-07T14:14:55.775Z</time>
      </trkpt>
      <trkpt lat="48.12174" lon="6.44399">
        <ele>556.477931</ele>
        <time>2022-06-07T14:14:57.769Z</time>
      </trkpt>
      <trkpt lat="48.12157" lon="6.44394">
        <ele>555.043599</ele>
        <time>2022-06-07T14:15:01.770Z</time>
      </trkpt>
      <trkpt lat="48.12147" lon="6.44388">
        <ele>554.126251</ele>
        <time>2022-06-07T14:15:05.746Z</time>
      </trkpt>
      <trkpt lat="48.12136" lon="6.44388">
        <ele>553.223697</ele>
        <time>2022-06-07T14:15:07.754Z</time>
      </trkpt>
      <trkpt lat="48.12126" lon="6.44382">
        <ele>552.325072</ele>
        <time>2022-06-07T14:15:11.767Z</time>
      </trkpt>
      <trkpt lat="48.12114" lon="6.44377">
        <ele>551.286129</ele>
        <time>2022-06-07T14:15:15.763Z</time>
      </trkpt>
      <trkpt lat="48.121" lon="6.44373">
        <ele>550.121323</ele>
        <time>2022-06-07T14:15:18.764Z</time>
      </trkpt>
      <trkpt lat="48.12091" lon="6.44368">
        <ele>549.315315</ele>
        <time>2022-06-07T14:15:20.770Z</time>
      </trkpt>
      <trkpt lat="48.12079" lon="6.44362">
        <ele>548.206088</ele>
        <time>2022-06-07T14:15:23.764Z</time>
      </trkpt>
      <trkpt lat="48.12068" lon="6.44357">
        <ele>547.292128</ele>
        <time>2022-06-07T14:15:26.765Z</time>
      </trkpt>
      <trkpt lat="48.12058" lon="6.44349">
        <ele>546.317645</ele>
        <time>2022-06-07T14:15:29.760Z</time>
      </trkpt>
      <trkpt lat="48.12046" lon="6.44341">
        <ele>545.258704</ele>
        <time>2022-06-07T14:15:32.746Z</time>
      </trkpt>
      <trkpt lat="48.12037" lon="6.44333">
        <ele>544.33186</ele>
        <time>2022-06-07T14:15:35.765Z</time>
      </trkpt>
      <trkpt lat="48.12026" lon="6.44326">
        <ele>543.201031</ele>
        <time>2022-06-07T14:15:39.783Z</time>
      </trkpt>
      <trkpt lat="48.12015" lon="6.44318">
        <ele>541.454855</ele>
        <time>2022-06-07T14:15:43.745Z</time>
      </trkpt>
      <trkpt lat="48.12005" lon="6.4431">
        <ele>539.781327</ele>
        <time>2022-06-07T14:15:46.768Z</time>
      </trkpt>
      <trkpt lat="48.11994" lon="6.44301">
        <ele>538.059481</ele>
        <time>2022-06-07T14:15:49.766Z</time>
      </trkpt>
      <trkpt lat="48.11983" lon="6.44294">
        <ele>536.308164</ele>
        <time>2022-06-07T14:15:52.773Z</time>
      </trkpt>
      <trkpt lat="48.11972" lon="6.44288">
        <ele>534.695727</ele>
        <time>2022-06-07T14:15:55.721Z</time>
      </trkpt>
      <trkpt lat="48.11962" lon="6.44282">
        <ele>533.152634</ele>
        <time>2022-06-07T14:15:58.750Z</time>
      </trkpt>
      <trkpt lat="48.11951" lon="6.44276">
        <ele>531.543448</ele>
        <time>2022-06-07T14:16:02.760Z</time>
      </trkpt>
      <trkpt lat="48.11941" lon="6.44269">
        <ele>529.992215</ele>
        <time>2022-06-07T14:16:05.796Z</time>
      </trkpt>
      <trkpt lat="48.11933" lon="6.44261">
        <ele>528.577354</ele>
        <time>2022-06-07T14:16:08.762Z</time>
      </trkpt>
      <trkpt lat="48.11922" lon="6.44252">
        <ele>526.776406</ele>
        <time>2022-06-07T14:16:11.763Z</time>
      </trkpt>
      <trkpt lat="48.11913" lon="6.44245">
        <ele>525.322529</ele>
        <time>2022-06-07T14:16:14.778Z</time>
      </trkpt>
      <trkpt lat="48.11903" lon="6.44239">
        <ele>523.893056</ele>
        <time>2022-06-07T14:16:17.761Z</time>
      </trkpt>
      <trkpt lat="48.11892" lon="6.44239">
        <ele>522.263506</ele>
        <time>2022-06-07T14:16:20.773Z</time>
      </trkpt>
      <trkpt lat="48.11884" lon="6.44249">
        <ele>520.793121</ele>
        <time>2022-06-07T14:16:23.758Z</time>
      </trkpt>
      <trkpt lat="48.11875" lon="6.44254">
        <ele>519.494119</ele>
        <time>2022-06-07T14:16:26.774Z</time>
      </trkpt>
      <trkpt lat="48.11865" lon="6.44262">
        <ele>517.929723</ele>
        <time>2022-06-07T14:16:30.763Z</time>
      </trkpt>
      <trkpt lat="48.11856" lon="6.44266">
        <ele>516.876398</ele>
        <time>2022-06-07T14:16:33.776Z</time>
      </trkpt>
      <trkpt lat="48.11846" lon="6.44275">
        <ele>515.61905</ele>
        <time>2022-06-07T14:16:37.754Z</time>
      </trkpt>
      <trkpt lat="48.11835" lon="6.44284">
        <ele>514.317054</ele>
        <time>2022-06-07T14:16:41.756Z</time>
      </trkpt>
      <trkpt lat="48.11825" lon="6.44286">
        <ele>513.173358</ele>
        <time>2022-06-07T14:16:44.781Z</time>
      </trkpt>
      <trkpt lat="48.11815" lon="6.44282">
        <ele>512.134408</ele>
        <time>2022-06-07T14:16:47.788Z</time>
      </trkpt>
      <trkpt lat="48.11806" lon="6.44278">
        <ele>511.103806</ele>
        <time>2022-06-07T14:16:50.754Z</time>
      </trkpt>
      <trkpt lat="48.11798" lon="6.44267">
        <ele>509.923624</ele>
        <time>2022-06-07T14:16:53.770Z</time>
      </trkpt>
      <trkpt lat="48.11793" lon="6.44254">
        <ele>508.878824</ele>
        <time>2022-06-07T14:16:56.772Z</time>
      </trkpt>
      <trkpt lat="48.11788" lon="6.44241">
        <ele>507.777507</ele>
        <time>2022-06-07T14:16:59.798Z</time>
      </trkpt>
      <trkpt lat="48.11782" lon="6.44231">
        <ele>506.811546</ele>
        <time>2022-06-07T14:17:02.803Z</time>
      </trkpt>
      <trkpt lat="48.11778" lon="6.44219">
        <ele>505.829054</ele>
        <time>2022-06-07T14:17:05.765Z</time>
      </trkpt>
      <trkpt lat="48.11772" lon="6.44203">
        <ele>504.558295</ele>
        <time>2022-06-07T14:17:09.798Z</time>
      </trkpt>
      <trkpt lat="48.11769" lon="6.44189">
        <ele>503.494943</ele>
        <time>2022-06-07T14:17:12.777Z</time>
      </trkpt>
      <trkpt lat="48.11765" lon="6.44177">
        <ele>502.506681</ele>
        <time>2022-06-07T14:17:15.796Z</time>
      </trkpt>
      <trkpt lat="48.1176" lon="6.44161">
        <ele>501.281771</ele>
        <time>2022-06-07T14:17:19.769Z</time>
      </trkpt>
      <trkpt lat="48.11756" lon="6.44146">
        <ele>500.106193</ele>
        <time>2022-06-07T14:17:23.789Z</time>
      </trkpt>
      <trkpt lat="48.11755" lon="6.4413">
        <ele>498.933409</ele>
        <time>2022-06-07T14:17:27.768Z</time>
      </trkpt>
      <trkpt lat="48.11765" lon="6.44123">
        <ele>498.756954</ele>
        <time>2022-06-07T14:17:31.744Z</time>
      </trkpt>
      <trkpt lat="48.11769" lon="6.4411">
        <ele>498.731067</ele>
        <time>2022-06-07T14:17:35.793Z</time>
      </trkpt>
      <trkpt lat="48.11759" lon="6.44102">
        <ele>498.699547</ele>
        <time>2022-06-07T14:17:40.770Z</time>
      </trkpt>
      <trkpt lat="48.11757" lon="6.44089">
        <ele>498.67451</ele>
        <time>2022-06-07T14:17:44.761Z</time>
      </trkpt>
      <trkpt lat="48.1176" lon="6.44072">
        <ele>498.642325</ele>
        <time>2022-06-07T14:17:48.755Z</time>
      </trkpt>
      <trkpt lat="48.11759" lon="6.44058">
        <ele>498.616124</ele>
        <time>2022-06-07T14:17:51.761Z</time>
      </trkpt>
      <trkpt lat="48.11757" lon="6.44041">
        <ele>498.583756</ele>
        <time>2022-06-07T14:17:55.786Z</time>
      </trkpt>
      <trkpt lat="48.11758" lon="6.44027">
        <ele>498.55737</ele>
        <time>2022-06-07T14:17:59.772Z</time>
      </trkpt>
      <trkpt lat="48.11762" lon="6.44012">
        <ele>498.528464</ele>
        <time>2022-06-07T14:18:03.759Z</time>
      </trkpt>
      <trkpt lat="48.11764" lon="6.43996">
        <ele>498.498307</ele>
        <time>2022-06-07T14:18:07.792Z</time>
      </trkpt>
      <trkpt lat="48.11758" lon="6.43986">
        <ele>498.472643</ele>
        <time>2022-06-07T14:18:12.758Z</time>
      </trkpt>
      <trkpt lat="48.1175" lon="6.43978">
        <ele>498.44739</ele>
        <time>2022-06-07T14:18:15.752Z</time>
      </trkpt>
      <trkpt lat="48.11743" lon="6.43967">
        <ele>498.417735</ele>
        <time>2022-06-07T14:18:19.760Z</time>
      </trkpt>
      <trkpt lat="48.11739" lon="6.43952">
        <ele>498.386239</ele>
        <time>2022-06-07T14:18:23.751Z</time>
      </trkpt>
      <trkpt lat="48.11737" lon="6.43936">
        <ele>498.356309</ele>
        <time>2022-06-07T14:18:27.790Z</time>
      </trkpt>
      <trkpt lat="48.11736" lon="6.4392">
        <ele>498.327099</ele>
        <time>2022-06-07T14:18:31.766Z</time>
      </trkpt>
      <trkpt lat="48.11735" lon="6.43904">
        <ele>498.297861</ele>
        <time>2022-06-07T14:18:35.751Z</time>
      </trkpt>
      <trkpt lat="48.11733" lon="6.4389">
        <ele>498.449308</ele>
        <time>2022-06-07T14:18:38.762Z</time>
      </trkpt>
      <trkpt lat="48.1173" lon="6.43875">
        <ele>498.947784</ele>
        <time>2022-06-07T14:18:42.773Z</time>
      </trkpt>
      <trkpt lat="48.11724" lon="6.43864">
        <ele>499.398075</ele>
        <time>2022-06-07T14:18:46.754Z</time>
      </trkpt>
      <trkpt lat="48.11721" lon="6.4385">
        <ele>499.832986</ele>
        <time>2022-06-07T14:18:50.763Z</time>
      </trkpt>
      <trkpt lat="48.11723" lon="6.43834">
        <ele>500.311232</ele>
        <time>2022-06-07T14:18:54.767Z</time>
      </trkpt>
      <trkpt lat="48.11721" lon="6.43821">
        <ele>500.726314</ele>
        <time>2022-06-07T14:18:59.770Z</time>
      </trkpt>
      <trkpt lat="48.11714" lon="6.43812">
        <ele>501.152469</ele>
        <time>2022-06-07T14:19:02.770Z</time>
      </trkpt>
      <trkpt lat="48.11707" lon="6.438">
        <ele>501.625844</ele>
        <time>2022-06-07T14:19:06.767Z</time>
      </trkpt>
      <trkpt lat="48.11706" lon="6.43786">
        <ele>502.062873</ele>
        <time>2022-06-07T14:19:10.746Z</time>
      </trkpt>
      <trkpt lat="48.11705" lon="6.43771">
        <ele>502.511574</ele>
        <time>2022-06-07T14:19:16.788Z</time>
      </trkpt>
      <trkpt lat="48.11712" lon="6.43745">
        <ele>503.377026</ele>
        <time>2022-06-07T14:19:49.744Z</time>
      </trkpt>
      <trkpt lat="48.11715" lon="6.4373">
        <ele>503.852487</ele>
        <time>2022-06-07T14:19:54.746Z</time>
      </trkpt>
      <trkpt lat="48.11717" lon="6.43714">
        <ele>504.33314</ele>
        <time>2022-06-07T14:19:58.746Z</time>
      </trkpt>
      <trkpt lat="48.1172" lon="6.43699">
        <ele>504.830343</ele>
        <time>2022-06-07T14:20:02.763Z</time>
      </trkpt>
      <trkpt lat="48.11722" lon="6.43686">
        <ele>505.24224</ele>
        <time>2022-06-07T14:20:05.769Z</time>
      </trkpt>
      <trkpt lat="48.11724" lon="6.4367">
        <ele>505.722049</ele>
        <time>2022-06-07T14:20:09.773Z</time>
      </trkpt>
      <trkpt lat="48.11724" lon="6.43656">
        <ele>506.148298</ele>
        <time>2022-06-07T14:20:12.766Z</time>
      </trkpt>
      <trkpt lat="48.11723" lon="6.43643">
        <ele>506.487678</ele>
        <time>2022-06-07T14:20:15.770Z</time>
      </trkpt>
      <trkpt lat="48.11719" lon="6.43627">
        <ele>506.510348</ele>
        <time>2022-06-07T14:20:20.770Z</time>
      </trkpt>
      <trkpt lat="48.11716" lon="6.43615">
        <ele>506.528935</ele>
        <time>2022-06-07T14:20:25.768Z</time>
      </trkpt>
      <trkpt lat="48.11709" lon="6.43604">
        <ele>506.54975</ele>
        <time>2022-06-07T14:20:29.763Z</time>
      </trkpt>
      <trkpt lat="48.11701" lon="6.43594">
        <ele>506.571485</ele>
        <time>2022-06-07T14:20:33.757Z</time>
      </trkpt>
      <trkpt lat="48.11695" lon="6.43581">
        <ele>506.592839</ele>
        <time>2022-06-07T14:20:37.769Z</time>
      </trkpt>
      <trkpt lat="48.11689" lon="6.43568">
        <ele>506.615014</ele>
        <time>2022-06-07T14:20:40.762Z</time>
      </trkpt>
      <trkpt lat="48.1168" lon="6.43557">
        <ele>506.637489</ele>
        <time>2022-06-07T14:20:44.759Z</time>
      </trkpt>
      <trkpt lat="48.11674" lon="6.43544">
        <ele>506.660791</ele>
        <time>2022-06-07T14:20:48.750Z</time>
      </trkpt>
      <trkpt lat="48.11664" lon="6.43539">
        <ele>506.682766</ele>
        <time>2022-06-07T14:20:52.767Z</time>
      </trkpt>
      <trkpt lat="48.11658" lon="6.43527">
        <ele>506.703318</ele>
        <time>2022-06-07T14:20:59.827Z</time>
      </trkpt>
      <trkpt lat="48.11653" lon="6.43515">
        <ele>506.72271</ele>
        <time>2022-06-07T14:21:02.755Z</time>
      </trkpt>
      <trkpt lat="48.11644" lon="6.43504">
        <ele>506.74589</ele>
        <time>2022-06-07T14:21:05.766Z</time>
      </trkpt>
      <trkpt lat="48.11634" lon="6.43496">
        <ele>506.770921</ele>
        <time>2022-06-07T14:21:09.777Z</time>
      </trkpt>
      <trkpt lat="48.11625" lon="6.43489">
        <ele>506.791445</ele>
        <time>2022-06-07T14:21:12.777Z</time>
      </trkpt>
      <trkpt lat="48.11616" lon="6.43482">
        <ele>506.812833</ele>
        <time>2022-06-07T14:21:15.751Z</time>
      </trkpt>
      <trkpt lat="48.11607" lon="6.4347">
        <ele>506.837369</ele>
        <time>2022-06-07T14:21:19.772Z</time>
      </trkpt>
      <trkpt lat="48.11596" lon="6.43465">
        <ele>506.739745</ele>
        <time>2022-06-07T14:21:23.785Z</time>
      </trkpt>
      <trkpt lat="48.11586" lon="6.43462">
        <ele>506.290929</ele>
        <time>2022-06-07T14:21:26.764Z</time>
      </trkpt>
      <trkpt lat="48.11576" lon="6.4346">
        <ele>505.863773</ele>
        <time>2022-06-07T14:21:29.769Z</time>
      </trkpt>
      <trkpt lat="48.11571" lon="6.43448">
        <ele>505.461637</ele>
        <time>2022-06-07T14:21:33.752Z</time>
      </trkpt>
      <trkpt lat="48.11568" lon="6.43432">
        <ele>504.960561</ele>
        <time>2022-06-07T14:21:37.781Z</time>
      </trkpt>
      <trkpt lat="48.11562" lon="6.43417">
        <ele>504.455185</ele>
        <time>2022-06-07T14:21:41.751Z</time>
      </trkpt>
      <trkpt lat="48.11555" lon="6.43404">
        <ele>503.970366</ele>
        <time>2022-06-07T14:21:45.766Z</time>
      </trkpt>
      <trkpt lat="48.1155" lon="6.43393">
        <ele>503.570638</ele>
        <time>2022-06-07T14:21:48.794Z</time>
      </trkpt>
      <trkpt lat="48.11545" lon="6.4338">
        <ele>503.109508</ele>
        <time>2022-06-07T14:21:56.789Z</time>
      </trkpt>
      <trkpt lat="48.1154" lon="6.43364">
        <ele>502.614927</ele>
        <time>2022-06-07T14:22:00.746Z</time>
      </trkpt>
      <trkpt lat="48.11535" lon="6.43348">
        <ele>502.09012</ele>
        <time>2022-06-07T14:22:04.766Z</time>
      </trkpt>
      <trkpt lat="48.1153" lon="6.43335">
        <ele>501.660434</ele>
        <time>2022-06-07T14:22:07.789Z</time>
      </trkpt>
      <trkpt lat="48.11522" lon="6.43323">
        <ele>501.167593</ele>
        <time>2022-06-07T14:22:12.783Z</time>
      </trkpt>
      <trkpt lat="48.11517" lon="6.43309">
        <ele>500.697198</ele>
        <time>2022-06-07T14:22:16.789Z</time>
      </trkpt>
      <trkpt lat="48.11505" lon="6.43305">
        <ele>500.186218</ele>
        <time>2022-06-07T14:22:20.769Z</time>
      </trkpt>
      <trkpt lat="48.11497" lon="6.43312">
        <ele>499.764663</ele>
        <time>2022-06-07T14:22:23.764Z</time>
      </trkpt>
      <trkpt lat="48.11488" lon="6.43318">
        <ele>499.355931</ele>
        <time>2022-06-07T14:22:26.778Z</time>
      </trkpt>
      <trkpt lat="48.11479" lon="6.43329">
        <ele>498.834787</ele>
        <time>2022-06-07T14:22:30.777Z</time>
      </trkpt>
      <trkpt lat="48.11473" lon="6.43341">
        <ele>498.409231</ele>
        <time>2022-06-07T14:22:33.769Z</time>
      </trkpt>
      <trkpt lat="48.11467" lon="6.43355">
        <ele>497.906415</ele>
        <time>2022-06-07T14:22:37.746Z</time>
      </trkpt>
      <trkpt lat="48.11461" lon="6.4337">
        <ele>497.415616</ele>
        <time>2022-06-07T14:22:41.767Z</time>
      </trkpt>
      <trkpt lat="48.11454" lon="6.43383">
        <ele>496.918777</ele>
        <time>2022-06-07T14:22:45.795Z</time>
      </trkpt>
      <trkpt lat="48.11448" lon="6.43397">
        <ele>496.442336</ele>
        <time>2022-06-07T14:22:49.775Z</time>
      </trkpt>
      <trkpt lat="48.11443" lon="6.43412">
        <ele>495.930069</ele>
        <time>2022-06-07T14:22:53.787Z</time>
      </trkpt>
      <trkpt lat="48.11439" lon="6.43427">
        <ele>495.469491</ele>
        <time>2022-06-07T14:22:56.780Z</time>
      </trkpt>
      <trkpt lat="48.11435" lon="6.43442">
        <ele>495.003001</ele>
        <time>2022-06-07T14:22:59.791Z</time>
      </trkpt>
      <trkpt lat="48.1143" lon="6.43459">
        <ele>494.480028</ele>
        <time>2022-06-07T14:23:03.749Z</time>
      </trkpt>
      <trkpt lat="48.11429" lon="6.43474">
        <ele>494.046681</ele>
        <time>2022-06-07T14:23:06.759Z</time>
      </trkpt>
      <trkpt lat="48.11426" lon="6.43488">
        <ele>493.599557</ele>
        <time>2022-06-07T14:23:09.749Z</time>
      </trkpt>
      <trkpt lat="48.11423" lon="6.43503">
        <ele>493.148357</ele>
        <time>2022-06-07T14:23:12.782Z</time>
      </trkpt>
      <trkpt lat="48.11419" lon="6.43517">
        <ele>492.716102</ele>
        <time>2022-06-07T14:23:15.742Z</time>
      </trkpt>
      <trkpt lat="48.11415" lon="6.4353">
        <ele>492.292933</ele>
        <time>2022-06-07T14:23:18.767Z</time>
      </trkpt>
      <trkpt lat="48.1141" lon="6.43547">
        <ele>491.755635</ele>
        <time>2022-06-07T14:23:22.778Z</time>
      </trkpt>
      <trkpt lat="48.11401" lon="6.43558">
        <ele>491.261833</ele>
        <time>2022-06-07T14:23:26.766Z</time>
      </trkpt>
      <trkpt lat="48.11391" lon="6.43557">
        <ele>490.741318</ele>
        <time>2022-06-07T14:23:29.763Z</time>
      </trkpt>
      <trkpt lat="48.11381" lon="6.43552">
        <ele>490.225686</ele>
        <time>2022-06-07T14:23:32.803Z</time>
      </trkpt>
      <trkpt lat="48.11371" lon="6.43549">
        <ele>489.695792</ele>
        <time>2022-06-07T14:23:35.756Z</time>
      </trkpt>
      <trkpt lat="48.11361" lon="6.43547">
        <ele>489.17714</ele>
        <time>2022-06-07T14:23:38.764Z</time>
      </trkpt>
      <trkpt lat="48.11351" lon="6.43544">
        <ele>488.662353</ele>
        <time>2022-06-07T14:23:41.742Z</time>
      </trkpt>
      <trkpt lat="48.1134" lon="6.4354">
        <ele>488.074107</ele>
        <time>2022-06-07T14:23:45.783Z</time>
      </trkpt>
      <trkpt lat="48.11328" lon="6.43537">
        <ele>487.482375</ele>
        <time>2022-06-07T14:23:49.768Z</time>
      </trkpt>
      <trkpt lat="48.11317" lon="6.43535">
        <ele>486.876247</ele>
        <time>2022-06-07T14:23:53.753Z</time>
      </trkpt>
      <trkpt lat="48.11306" lon="6.43533">
        <ele>486.35412</ele>
        <time>2022-06-07T14:23:57.783Z</time>
      </trkpt>
      <trkpt lat="48.11295" lon="6.43528">
        <ele>485.767991</ele>
        <time>2022-06-07T14:24:01.788Z</time>
      </trkpt>
      <trkpt lat="48.11286" lon="6.43524">
        <ele>485.266169</ele>
        <time>2022-06-07T14:24:04.766Z</time>
      </trkpt>
      <trkpt lat="48.11275" lon="6.43519">
        <ele>484.678769</ele>
        <time>2022-06-07T14:24:07.782Z</time>
      </trkpt>
      <trkpt lat="48.11264" lon="6.43518">
        <ele>484.093885</ele>
        <time>2022-06-07T14:24:10.755Z</time>
      </trkpt>
      <trkpt lat="48.11252" lon="6.43517">
        <ele>483.503347</ele>
        <time>2022-06-07T14:24:14.761Z</time>
      </trkpt>
      <trkpt lat="48.11242" lon="6.43514">
        <ele>482.98916</ele>
        <time>2022-06-07T14:24:17.772Z</time>
      </trkpt>
      <trkpt lat="48.11231" lon="6.4351">
        <ele>482.388136</ele>
        <time>2022-06-07T14:24:21.765Z</time>
      </trkpt>
      <trkpt lat="48.11219" lon="6.43507">
        <ele>481.841619</ele>
        <time>2022-06-07T14:24:25.768Z</time>
      </trkpt>
      <trkpt lat="48.11209" lon="6.43506">
        <ele>481.551786</ele>
        <time>2022-06-07T14:24:28.743Z</time>
      </trkpt>
      <trkpt lat="48.112" lon="6.43503">
        <ele>481.259153</ele>
        <time>2022-06-07T14:24:31.776Z</time>
      </trkpt>
      <trkpt lat="48.11188" lon="6.435">
        <ele>480.907418</ele>
        <time>2022-06-07T14:24:35.771Z</time>
      </trkpt>
      <trkpt lat="48.11179" lon="6.43497">
        <ele>480.628559</ele>
        <time>2022-06-07T14:24:38.758Z</time>
      </trkpt>
      <trkpt lat="48.11168" lon="6.43494">
        <ele>480.272991</ele>
        <time>2022-06-07T14:24:42.787Z</time>
      </trkpt>
      <trkpt lat="48.11159" lon="6.43492">
        <ele>480.000141</ele>
        <time>2022-06-07T14:24:45.764Z</time>
      </trkpt>
      <trkpt lat="48.11149" lon="6.43489">
        <ele>479.703899</ele>
        <time>2022-06-07T14:24:48.768Z</time>
      </trkpt>
      <trkpt lat="48.1114" lon="6.43486">
        <ele>479.4143</ele>
        <time>2022-06-07T14:24:51.780Z</time>
      </trkpt>
      <trkpt lat="48.11129" lon="6.43483">
        <ele>479.098126</ele>
        <time>2022-06-07T14:24:54.761Z</time>
      </trkpt>
      <trkpt lat="48.1112" lon="6.43481">
        <ele>478.794547</ele>
        <time>2022-06-07T14:24:57.779Z</time>
      </trkpt>
      <trkpt lat="48.11108" lon="6.43477">
        <ele>478.427277</ele>
        <time>2022-06-07T14:25:01.778Z</time>
      </trkpt>
      <trkpt lat="48.11097" lon="6.43475">
        <ele>478.109231</ele>
        <time>2022-06-07T14:25:05.787Z</time>
      </trkpt>
      <trkpt lat="48.11088" lon="6.43472">
        <ele>477.824526</ele>
        <time>2022-06-07T14:25:08.761Z</time>
      </trkpt>
      <trkpt lat="48.11076" lon="6.43468">
        <ele>477.467372</ele>
        <time>2022-06-07T14:25:12.759Z</time>
      </trkpt>
      <trkpt lat="48.11067" lon="6.43465">
        <ele>477.188227</ele>
        <time>2022-06-07T14:25:15.745Z</time>
      </trkpt>
      <trkpt lat="48.11058" lon="6.43462">
        <ele>476.898201</ele>
        <time>2022-06-07T14:25:18.767Z</time>
      </trkpt>
      <trkpt lat="48.11049" lon="6.43458">
        <ele>476.615324</ele>
        <time>2022-06-07T14:25:21.788Z</time>
      </trkpt>
      <trkpt lat="48.11038" lon="6.43453">
        <ele>476.363803</ele>
        <time>2022-06-07T14:25:25.776Z</time>
      </trkpt>
      <trkpt lat="48.11027" lon="6.4345">
        <ele>476.159004</ele>
        <time>2022-06-07T14:25:29.777Z</time>
      </trkpt>
      <trkpt lat="48.11015" lon="6.43447">
        <ele>475.955152</ele>
        <time>2022-06-07T14:25:33.778Z</time>
      </trkpt>
      <trkpt lat="48.11006" lon="6.43444">
        <ele>475.788349</ele>
        <time>2022-06-07T14:25:36.782Z</time>
      </trkpt>
      <trkpt lat="48.10998" lon="6.4344">
        <ele>475.6232</ele>
        <time>2022-06-07T14:25:39.771Z</time>
      </trkpt>
      <trkpt lat="48.1099" lon="6.43432">
        <ele>475.444158</ele>
        <time>2022-06-07T14:25:43.781Z</time>
      </trkpt>
      <trkpt lat="48.10987" lon="6.43418">
        <ele>475.279606</ele>
        <time>2022-06-07T14:25:46.769Z</time>
      </trkpt>
      <trkpt lat="48.10988" lon="6.43401">
        <ele>475.070097</ele>
        <time>2022-06-07T14:25:50.807Z</time>
      </trkpt>
      <trkpt lat="48.1099" lon="6.43388">
        <ele>474.904485</ele>
        <time>2022-06-07T14:25:53.772Z</time>
      </trkpt>
      <trkpt lat="48.10996" lon="6.43373">
        <ele>474.699303</ele>
        <time>2022-06-07T14:25:57.777Z</time>
      </trkpt>
      <trkpt lat="48.11001" lon="6.43357">
        <ele>474.484807</ele>
        <time>2022-06-07T14:26:01.776Z</time>
      </trkpt>
      <trkpt lat="48.11003" lon="6.43344">
        <ele>474.322566</ele>
        <time>2022-06-07T14:26:04.779Z</time>
      </trkpt>
      <trkpt lat="48.11007" lon="6.43327">
        <ele>474.116956</ele>
        <time>2022-06-07T14:26:08.766Z</time>
      </trkpt>
      <trkpt lat="48.1101" lon="6.43311">
        <ele>473.909046</ele>
        <time>2022-06-07T14:26:12.781Z</time>
      </trkpt>
      <trkpt lat="48.11014" lon="6.43294">
        <ele>473.695124</ele>
        <time>2022-06-07T14:26:16.804Z</time>
      </trkpt>
      <trkpt lat="48.11018" lon="6.43281">
        <ele>473.526356</ele>
        <time>2022-06-07T14:26:19.785Z</time>
      </trkpt>
      <trkpt lat="48.11022" lon="6.43269">
        <ele>473.363926</ele>
        <time>2022-06-07T14:26:22.763Z</time>
      </trkpt>
      <trkpt lat="48.11025" lon="6.43256">
        <ele>473.080781</ele>
        <time>2022-06-07T14:26:25.791Z</time>
      </trkpt>
      <trkpt lat="48.1103" lon="6.43243">
        <ele>472.569328</ele>
        <time>2022-06-07T14:26:28.769Z</time>
      </trkpt>
      <trkpt lat="48.11032" lon="6.4323">
        <ele>472.111439</ele>
        <time>2022-06-07T14:26:31.790Z</time>
      </trkpt>
      <trkpt lat="48.11036" lon="6.43217">
        <ele>471.651353</ele>
        <time>2022-06-07T14:26:34.747Z</time>
      </trkpt>
      <trkpt lat="48.1104" lon="6.432">
        <ele>471.057091</ele>
        <time>2022-06-07T14:26:38.783Z</time>
      </trkpt>
      <trkpt lat="48.11043" lon="6.43187">
        <ele>470.599198</ele>
        <time>2022-06-07T14:26:41.778Z</time>
      </trkpt>
      <trkpt lat="48.11046" lon="6.43174">
        <ele>470.134701</ele>
        <time>2022-06-07T14:26:44.764Z</time>
      </trkpt>
      <trkpt lat="48.11037" lon="6.43165">
        <ele>469.607698</ele>
        <time>2022-06-07T14:26:49.765Z</time>
      </trkpt>
      <trkpt lat="48.11027" lon="6.43161">
        <ele>469.078669</ele>
        <time>2022-06-07T14:26:52.776Z</time>
      </trkpt>
      <trkpt lat="48.11018" lon="6.43156">
        <ele>468.59382</ele>
        <time>2022-06-07T14:26:55.758Z</time>
      </trkpt>
      <trkpt lat="48.1101" lon="6.4315">
        <ele>468.136579</ele>
        <time>2022-06-07T14:26:58.787Z</time>
      </trkpt>
      <trkpt lat="48.11001" lon="6.43146">
        <ele>467.650357</ele>
        <time>2022-06-07T14:27:01.782Z</time>
      </trkpt>
      <trkpt lat="48.10991" lon="6.4314">
        <ele>467.154966</ele>
        <time>2022-06-07T14:27:04.749Z</time>
      </trkpt>
      <trkpt lat="48.10983" lon="6.43135">
        <ele>466.69368</ele>
        <time>2022-06-07T14:27:07.723Z</time>
      </trkpt>
      <trkpt lat="48.10972" lon="6.43128">
        <ele>466.088196</ele>
        <time>2022-06-07T14:27:11.746Z</time>
      </trkpt>
      <trkpt lat="48.10962" lon="6.43122">
        <ele>465.575037</ele>
        <time>2022-06-07T14:27:14.778Z</time>
      </trkpt>
      <trkpt lat="48.10954" lon="6.43117">
        <ele>465.116468</ele>
        <time>2022-06-07T14:27:17.749Z</time>
      </trkpt>
      <trkpt lat="48.10943" lon="6.43111">
        <ele>464.522711</ele>
        <time>2022-06-07T14:27:21.767Z</time>
      </trkpt>
      <trkpt lat="48.10932" lon="6.43105">
        <ele>463.902662</ele>
        <time>2022-06-07T14:27:25.751Z</time>
      </trkpt>
      <trkpt lat="48.10922" lon="6.43101">
        <ele>463.355908</ele>
        <time>2022-06-07T14:27:28.761Z</time>
      </trkpt>
      <trkpt lat="48.10914" lon="6.43095">
        <ele>462.837062</ele>
        <time>2022-06-07T14:27:31.803Z</time>
      </trkpt>
      <trkpt lat="48.10905" lon="6.4309">
        <ele>462.311629</ele>
        <time>2022-06-07T14:27:34.772Z</time>
      </trkpt>
      <trkpt lat="48.10897" lon="6.43084">
        <ele>461.784335</ele>
        <time>2022-06-07T14:27:37.767Z</time>
      </trkpt>
      <trkpt lat="48.10887" lon="6.43075">
        <ele>461.138375</ele>
        <time>2022-06-07T14:27:41.768Z</time>
      </trkpt>
      <trkpt lat="48.1089" lon="6.43061">
        <ele>460.594392</ele>
        <time>2022-06-07T14:27:44.740Z</time>
      </trkpt>
      <trkpt lat="48.10895" lon="6.43048">
        <ele>460.025884</ele>
        <time>2022-06-07T14:27:47.788Z</time>
      </trkpt>
      <trkpt lat="48.10901" lon="6.43038">
        <ele>459.498576</ele>
        <time>2022-06-07T14:27:50.758Z</time>
      </trkpt>
      <trkpt lat="48.10906" lon="6.43026">
        <ele>458.988387</ele>
        <time>2022-06-07T14:27:53.768Z</time>
      </trkpt>
      <trkpt lat="48.10912" lon="6.43012">
        <ele>458.341936</ele>
        <time>2022-06-07T14:27:57.761Z</time>
      </trkpt>
      <trkpt lat="48.10918" lon="6.43">
        <ele>457.819826</ele>
        <time>2022-06-07T14:28:00.758Z</time>
      </trkpt>
      <trkpt lat="48.10923" lon="6.42986">
        <ele>457.210209</ele>
        <time>2022-06-07T14:28:04.766Z</time>
      </trkpt>
      <trkpt lat="48.1093" lon="6.42971">
        <ele>456.545407</ele>
        <time>2022-06-07T14:28:08.776Z</time>
      </trkpt>
      <trkpt lat="48.10935" lon="6.42959">
        <ele>455.976827</ele>
        <time>2022-06-07T14:28:11.759Z</time>
      </trkpt>
      <trkpt lat="48.10942" lon="6.42946">
        <ele>455.367423</ele>
        <time>2022-06-07T14:28:14.747Z</time>
      </trkpt>
      <trkpt lat="48.10947" lon="6.42934">
        <ele>454.84289</ele>
        <time>2022-06-07T14:28:17.762Z</time>
      </trkpt>
      <trkpt lat="48.10952" lon="6.42921">
        <ele>454.282892</ele>
        <time>2022-06-07T14:28:20.779Z</time>
      </trkpt>
      <trkpt lat="48.10957" lon="6.42909">
        <ele>454.177508</ele>
        <time>2022-06-07T14:28:23.776Z</time>
      </trkpt>
      <trkpt lat="48.10962" lon="6.42897">
        <ele>454.141269</ele>
        <time>2022-06-07T14:28:26.760Z</time>
      </trkpt>
      <trkpt lat="48.10967" lon="6.42883">
        <ele>454.10281</ele>
        <time>2022-06-07T14:28:29.766Z</time>
      </trkpt>
      <trkpt lat="48.10972" lon="6.42871">
        <ele>454.065113</ele>
        <time>2022-06-07T14:28:32.755Z</time>
      </trkpt>
      <trkpt lat="48.10977" lon="6.42858">
        <ele>454.027729</ele>
        <time>2022-06-07T14:28:35.753Z</time>
      </trkpt>
      <trkpt lat="48.10982" lon="6.42846">
        <ele>453.993362</ele>
        <time>2022-06-07T14:28:38.755Z</time>
      </trkpt>
      <trkpt lat="48.10987" lon="6.42835">
        <ele>453.959613</ele>
        <time>2022-06-07T14:28:41.776Z</time>
      </trkpt>
      <trkpt lat="48.10994" lon="6.42822">
        <ele>453.918516</ele>
        <time>2022-06-07T14:28:45.784Z</time>
      </trkpt>
      <trkpt lat="48.11001" lon="6.4281">
        <ele>453.87818</ele>
        <time>2022-06-07T14:28:49.741Z</time>
      </trkpt>
      <trkpt lat="48.11008" lon="6.42796">
        <ele>453.834553</ele>
        <time>2022-06-07T14:28:53.756Z</time>
      </trkpt>
      <trkpt lat="48.11014" lon="6.42785">
        <ele>453.79913</ele>
        <time>2022-06-07T14:28:56.760Z</time>
      </trkpt>
      <trkpt lat="48.11021" lon="6.42775">
        <ele>453.7647</ele>
        <time>2022-06-07T14:28:59.754Z</time>
      </trkpt>
      <trkpt lat="48.11029" lon="6.42763">
        <ele>453.721607</ele>
        <time>2022-06-07T14:29:03.768Z</time>
      </trkpt>
      <trkpt lat="48.11037" lon="6.42753">
        <ele>453.68163</ele>
        <time>2022-06-07T14:29:07.743Z</time>
      </trkpt>
      <trkpt lat="48.11046" lon="6.42742">
        <ele>453.639698</ele>
        <time>2022-06-07T14:29:11.761Z</time>
      </trkpt>
      <trkpt lat="48.11054" lon="6.42734">
        <ele>453.602604</ele>
        <time>2022-06-07T14:29:15.759Z</time>
      </trkpt>
      <trkpt lat="48.11063" lon="6.42724">
        <ele>453.560876</ele>
        <time>2022-06-07T14:29:19.749Z</time>
      </trkpt>
      <trkpt lat="48.11072" lon="6.42716">
        <ele>453.774449</ele>
        <time>2022-06-07T14:29:23.750Z</time>
      </trkpt>
      <trkpt lat="48.1108" lon="6.42708">
        <ele>454.490688</ele>
        <time>2022-06-07T14:29:27.746Z</time>
      </trkpt>
      <trkpt lat="48.11089" lon="6.42698">
        <ele>455.290518</ele>
        <time>2022-06-07T14:29:32.738Z</time>
      </trkpt>
      <trkpt lat="48.11098" lon="6.42689">
        <ele>456.090347</ele>
        <time>2022-06-07T14:29:37.737Z</time>
      </trkpt>
      <trkpt lat="48.11105" lon="6.4268">
        <ele>456.805142</ele>
        <time>2022-06-07T14:29:41.759Z</time>
      </trkpt>
      <trkpt lat="48.11112" lon="6.4267">
        <ele>457.537903</ele>
        <time>2022-06-07T14:29:45.760Z</time>
      </trkpt>
      <trkpt lat="48.11119" lon="6.42659">
        <ele>458.26157</ele>
        <time>2022-06-07T14:29:49.764Z</time>
      </trkpt>
      <trkpt lat="48.11127" lon="6.42647">
        <ele>459.096685</ele>
        <time>2022-06-07T14:29:54.776Z</time>
      </trkpt>
      <trkpt lat="48.11134" lon="6.42634">
        <ele>459.89608</ele>
        <time>2022-06-07T14:29:59.781Z</time>
      </trkpt>
      <trkpt lat="48.11141" lon="6.42624">
        <ele>460.64576</ele>
        <time>2022-06-07T14:30:07.746Z</time>
      </trkpt>
      <trkpt lat="48.11148" lon="6.42611">
        <ele>461.440906</ele>
        <time>2022-06-07T14:30:11.751Z</time>
      </trkpt>
      <trkpt lat="48.11153" lon="6.42599">
        <ele>462.14995</ele>
        <time>2022-06-07T14:30:15.746Z</time>
      </trkpt>
      <trkpt lat="48.1116" lon="6.42588">
        <ele>462.901319</ele>
        <time>2022-06-07T14:30:20.777Z</time>
      </trkpt>
      <trkpt lat="48.11165" lon="6.42575">
        <ele>463.60694</ele>
        <time>2022-06-07T14:30:25.760Z</time>
      </trkpt>
      <trkpt lat="48.11171" lon="6.42561">
        <ele>464.438616</ele>
        <time>2022-06-07T14:30:30.756Z</time>
      </trkpt>
      <trkpt lat="48.11178" lon="6.42549">
        <ele>465.206295</ele>
        <time>2022-06-07T14:30:35.758Z</time>
      </trkpt>
      <trkpt lat="48.11182" lon="6.42535">
        <ele>465.997931</ele>
        <time>2022-06-07T14:30:40.762Z</time>
      </trkpt>
      <trkpt lat="48.11187" lon="6.4252">
        <ele>466.79764</ele>
        <time>2022-06-07T14:30:45.743Z</time>
      </trkpt>
      <trkpt lat="48.11193" lon="6.42506">
        <ele>467.906168</ele>
        <time>2022-06-07T14:30:50.776Z</time>
      </trkpt>
      <trkpt lat="48.11198" lon="6.42495">
        <ele>468.835886</ele>
        <time>2022-06-07T14:30:54.766Z</time>
      </trkpt>
      <trkpt lat="48.11206" lon="6.42483">
        <ele>469.880924</ele>
        <time>2022-06-07T14:30:58.779Z</time>
      </trkpt>
      <trkpt lat="48.11213" lon="6.42472">
        <ele>470.928855</ele>
        <time>2022-06-07T14:31:03.749Z</time>
      </trkpt>
      <trkpt lat="48.11218" lon="6.42461">
        <ele>471.830596</ele>
        <time>2022-06-07T14:31:07.770Z</time>
      </trkpt>
      <trkpt lat="48.11224" lon="6.42451">
        <ele>472.769136</ele>
        <time>2022-06-07T14:31:12.775Z</time>
      </trkpt>
      <trkpt lat="48.11231" lon="6.42441">
        <ele>473.69333</ele>
        <time>2022-06-07T14:31:17.743Z</time>
      </trkpt>
      <trkpt lat="48.11237" lon="6.4243">
        <ele>474.637806</ele>
        <time>2022-06-07T14:31:21.750Z</time>
      </trkpt>
      <trkpt lat="48.11243" lon="6.42419">
        <ele>475.600926</ele>
        <time>2022-06-07T14:31:26.752Z</time>
      </trkpt>
      <trkpt lat="48.1125" lon="6.42409">
        <ele>476.560892</ele>
        <time>2022-06-07T14:31:31.746Z</time>
      </trkpt>
      <trkpt lat="48.11257" lon="6.424">
        <ele>477.467214</ele>
        <time>2022-06-07T14:31:35.761Z</time>
      </trkpt>
      <trkpt lat="48.11263" lon="6.42388">
        <ele>478.528179</ele>
        <time>2022-06-07T14:31:41.765Z</time>
      </trkpt>
      <trkpt lat="48.1127" lon="6.42376">
        <ele>479.543337</ele>
        <time>2022-06-07T14:31:45.756Z</time>
      </trkpt>
      <trkpt lat="48.11276" lon="6.42366">
        <ele>480.451375</ele>
        <time>2022-06-07T14:31:49.758Z</time>
      </trkpt>
      <trkpt lat="48.11282" lon="6.42356">
        <ele>481.359342</ele>
        <time>2022-06-07T14:31:54.766Z</time>
      </trkpt>
      <trkpt lat="48.11292" lon="6.42348">
        <ele>482.453213</ele>
        <time>2022-06-07T14:32:00.761Z</time>
      </trkpt>
      <trkpt lat="48.113" lon="6.42341">
        <ele>483.397056</ele>
        <time>2022-06-07T14:32:05.743Z</time>
      </trkpt>
      <trkpt lat="48.11308" lon="6.42334">
        <ele>484.390914</ele>
        <time>2022-06-07T14:32:10.755Z</time>
      </trkpt>
      <trkpt lat="48.11317" lon="6.42325">
        <ele>485.181245</ele>
        <time>2022-06-07T14:32:15.774Z</time>
      </trkpt>
      <trkpt lat="48.11326" lon="6.42317">
        <ele>485.82339</ele>
        <time>2022-06-07T14:32:19.767Z</time>
      </trkpt>
      <trkpt lat="48.11334" lon="6.42307">
        <ele>486.485463</ele>
        <time>2022-06-07T14:32:24.737Z</time>
      </trkpt>
      <trkpt lat="48.11342" lon="6.42297">
        <ele>487.095382</ele>
        <time>2022-06-07T14:32:28.743Z</time>
      </trkpt>
      <trkpt lat="48.11348" lon="6.42286">
        <ele>487.643238</ele>
        <time>2022-06-07T14:32:32.772Z</time>
      </trkpt>
      <trkpt lat="48.11355" lon="6.42273">
        <ele>488.314668</ele>
        <time>2022-06-07T14:32:37.756Z</time>
      </trkpt>
      <trkpt lat="48.11361" lon="6.42263">
        <ele>488.898961</ele>
        <time>2022-06-07T14:32:42.761Z</time>
      </trkpt>
      <trkpt lat="48.11368" lon="6.42252">
        <ele>489.46265</ele>
        <time>2022-06-07T14:32:46.763Z</time>
      </trkpt>
      <trkpt lat="48.11375" lon="6.4224">
        <ele>490.150255</ele>
        <time>2022-06-07T14:32:50.757Z</time>
      </trkpt>
      <trkpt lat="48.11382" lon="6.42225">
        <ele>490.863575</ele>
        <time>2022-06-07T14:32:54.767Z</time>
      </trkpt>
      <trkpt lat="48.11388" lon="6.42212">
        <ele>491.513342</ele>
        <time>2022-06-07T14:32:58.741Z</time>
      </trkpt>
      <trkpt lat="48.11394" lon="6.42199">
        <ele>492.145511</ele>
        <time>2022-06-07T14:33:02.766Z</time>
      </trkpt>
      <trkpt lat="48.11399" lon="6.42186">
        <ele>492.755109</ele>
        <time>2022-06-07T14:33:06.749Z</time>
      </trkpt>
      <trkpt lat="48.11405" lon="6.42173">
        <ele>493.394205</ele>
        <time>2022-06-07T14:33:10.758Z</time>
      </trkpt>
      <trkpt lat="48.11411" lon="6.4216">
        <ele>494.0434</ele>
        <time>2022-06-07T14:33:14.778Z</time>
      </trkpt>
      <trkpt lat="48.11418" lon="6.42147">
        <ele>494.702692</ele>
        <time>2022-06-07T14:33:18.760Z</time>
      </trkpt>
      <trkpt lat="48.11424" lon="6.42134">
        <ele>495.32159</ele>
        <time>2022-06-07T14:33:22.761Z</time>
      </trkpt>
      <trkpt lat="48.11429" lon="6.42121">
        <ele>495.85643</ele>
        <time>2022-06-07T14:33:26.760Z</time>
      </trkpt>
      <trkpt lat="48.11435" lon="6.42107">
        <ele>496.311236</ele>
        <time>2022-06-07T14:33:30.769Z</time>
      </trkpt>
      <trkpt lat="48.11441" lon="6.42094">
        <ele>496.750273</ele>
        <time>2022-06-07T14:33:34.761Z</time>
      </trkpt>
      <trkpt lat="48.11446" lon="6.4208">
        <ele>497.198579</ele>
        <time>2022-06-07T14:33:38.747Z</time>
      </trkpt>
      <trkpt lat="48.11451" lon="6.42066">
        <ele>497.607045</ele>
        <time>2022-06-07T14:33:42.763Z</time>
      </trkpt>
      <trkpt lat="48.11456" lon="6.42053">
        <ele>498.02399</ele>
        <time>2022-06-07T14:33:46.758Z</time>
      </trkpt>
      <trkpt lat="48.11461" lon="6.42038">
        <ele>498.468709</ele>
        <time>2022-06-07T14:33:50.753Z</time>
      </trkpt>
      <trkpt lat="48.11467" lon="6.42025">
        <ele>498.885316</ele>
        <time>2022-06-07T14:33:54.752Z</time>
      </trkpt>
      <trkpt lat="48.11472" lon="6.42012">
        <ele>499.302269</ele>
        <time>2022-06-07T14:33:58.762Z</time>
      </trkpt>
      <trkpt lat="48.11477" lon="6.41999">
        <ele>499.706042</ele>
        <time>2022-06-07T14:34:02.785Z</time>
      </trkpt>
      <trkpt lat="48.11482" lon="6.41984">
        <ele>500.167155</ele>
        <time>2022-06-07T14:34:07.759Z</time>
      </trkpt>
      <trkpt lat="48.11485" lon="6.41969">
        <ele>500.590908</ele>
        <time>2022-06-07T14:34:11.759Z</time>
      </trkpt>
      <trkpt lat="48.11486" lon="6.41953">
        <ele>501.028847</ele>
        <time>2022-06-07T14:34:16.797Z</time>
      </trkpt>
      <trkpt lat="48.11488" lon="6.41937">
        <ele>501.459624</ele>
        <time>2022-06-07T14:34:21.736Z</time>
      </trkpt>
      <trkpt lat="48.1149" lon="6.41921">
        <ele>501.898146</ele>
        <time>2022-06-07T14:34:26.797Z</time>
      </trkpt>
      <trkpt lat="48.11491" lon="6.41908">
        <ele>502.268513</ele>
        <time>2022-06-07T14:34:30.753Z</time>
      </trkpt>
      <trkpt lat="48.11492" lon="6.41894">
        <ele>502.64472</ele>
        <time>2022-06-07T14:34:34.770Z</time>
      </trkpt>
      <trkpt lat="48.11493" lon="6.4188">
        <ele>503.001517</ele>
        <time>2022-06-07T14:34:38.761Z</time>
      </trkpt>
      <trkpt lat="48.11493" lon="6.41866">
        <ele>502.983867</ele>
        <time>2022-06-07T14:34:42.723Z</time>
      </trkpt>
      <trkpt lat="48.11493" lon="6.41852">
        <ele>502.966111</ele>
        <time>2022-06-07T14:34:46.741Z</time>
      </trkpt>
      <trkpt lat="48.11492" lon="6.41837">
        <ele>502.946732</ele>
        <time>2022-06-07T14:34:50.777Z</time>
      </trkpt>
      <trkpt lat="48.11491" lon="6.41823">
        <ele>502.92781</ele>
        <time>2022-06-07T14:34:54.737Z</time>
      </trkpt>
      <trkpt lat="48.11491" lon="6.41807">
        <ele>502.90799</ele>
        <time>2022-06-07T14:34:58.772Z</time>
      </trkpt>
      <trkpt lat="48.1149" lon="6.41792">
        <ele>502.88894</ele>
        <time>2022-06-07T14:35:02.756Z</time>
      </trkpt>
      <trkpt lat="48.11491" lon="6.41777">
        <ele>502.869525</ele>
        <time>2022-06-07T14:35:06.754Z</time>
      </trkpt>
      <trkpt lat="48.11491" lon="6.41762">
        <ele>502.850437</ele>
        <time>2022-06-07T14:35:10.728Z</time>
      </trkpt>
      <trkpt lat="48.11493" lon="6.41747">
        <ele>502.830179</ele>
        <time>2022-06-07T14:35:14.745Z</time>
      </trkpt>
      <trkpt lat="48.11496" lon="6.41731">
        <ele>502.809462</ele>
        <time>2022-06-07T14:35:18.745Z</time>
      </trkpt>
      <trkpt lat="48.11499" lon="6.41719">
        <ele>502.792063</ele>
        <time>2022-06-07T14:35:21.750Z</time>
      </trkpt>
      <trkpt lat="48.11504" lon="6.41703">
        <ele>502.769469</ele>
        <time>2022-06-07T14:35:25.745Z</time>
      </trkpt>
      <trkpt lat="48.11509" lon="6.41688">
        <ele>502.748248</ele>
        <time>2022-06-07T14:35:29.726Z</time>
      </trkpt>
      <trkpt lat="48.11513" lon="6.41673">
        <ele>502.726831</ele>
        <time>2022-06-07T14:35:33.765Z</time>
      </trkpt>
      <trkpt lat="48.11518" lon="6.41657">
        <ele>502.705297</ele>
        <time>2022-06-07T14:35:37.750Z</time>
      </trkpt>
      <trkpt lat="48.11523" lon="6.41643">
        <ele>502.684432</ele>
        <time>2022-06-07T14:35:41.745Z</time>
      </trkpt>
      <trkpt lat="48.11528" lon="6.41628">
        <ele>502.663562</ele>
        <time>2022-06-07T14:35:45.770Z</time>
      </trkpt>
      <trkpt lat="48.11531" lon="6.41616">
        <ele>502.587162</ele>
        <time>2022-06-07T14:35:48.737Z</time>
      </trkpt>
      <trkpt lat="48.11536" lon="6.41601">
        <ele>502.444252</ele>
        <time>2022-06-07T14:35:52.772Z</time>
      </trkpt>
      <trkpt lat="48.1154" lon="6.41588">
        <ele>502.326456</ele>
        <time>2022-06-07T14:35:55.772Z</time>
      </trkpt>
      <trkpt lat="48.11542" lon="6.41574">
        <ele>502.198005</ele>
        <time>2022-06-07T14:35:59.748Z</time>
      </trkpt>
      <trkpt lat="48.11545" lon="6.41559">
        <ele>502.061774</ele>
        <time>2022-06-07T14:36:03.780Z</time>
      </trkpt>
      <trkpt lat="48.11547" lon="6.41543">
        <ele>501.924636</ele>
        <time>2022-06-07T14:36:07.770Z</time>
      </trkpt>
      <trkpt lat="48.11549" lon="6.41527">
        <ele>501.787934</ele>
        <time>2022-06-07T14:36:11.752Z</time>
      </trkpt>
      <trkpt lat="48.1155" lon="6.4151">
        <ele>501.638184</ele>
        <time>2022-06-07T14:36:15.824Z</time>
      </trkpt>
      <trkpt lat="48.1155" lon="6.41494">
        <ele>501.498799</ele>
        <time>2022-06-07T14:36:19.776Z</time>
      </trkpt>
      <trkpt lat="48.11551" lon="6.4148">
        <ele>501.378031</ele>
        <time>2022-06-07T14:36:22.748Z</time>
      </trkpt>
      <trkpt lat="48.11551" lon="6.41463">
        <ele>501.231896</ele>
        <time>2022-06-07T14:36:26.756Z</time>
      </trkpt>
      <trkpt lat="48.1155" lon="6.41445">
        <ele>501.07911</ele>
        <time>2022-06-07T14:36:30.756Z</time>
      </trkpt>
      <trkpt lat="48.11548" lon="6.41428">
        <ele>500.929667</ele>
        <time>2022-06-07T14:36:34.771Z</time>
      </trkpt>
      <trkpt lat="48.11547" lon="6.41411">
        <ele>500.784272</ele>
        <time>2022-06-07T14:36:38.750Z</time>
      </trkpt>
      <trkpt lat="48.11547" lon="6.41393">
        <ele>500.63513</ele>
        <time>2022-06-07T14:36:42.749Z</time>
      </trkpt>
      <trkpt lat="48.11552" lon="6.41382">
        <ele>500.516437</ele>
        <time>2022-06-07T14:36:46.740Z</time>
      </trkpt>
      <trkpt lat="48.11563" lon="6.41376">
        <ele>500.368735</ele>
        <time>2022-06-07T14:36:50.757Z</time>
      </trkpt>
      <trkpt lat="48.11572" lon="6.41373">
        <ele>500.210245</ele>
        <time>2022-06-07T14:36:53.763Z</time>
      </trkpt>
      <trkpt lat="48.11583" lon="6.41368">
        <ele>499.999982</ele>
        <time>2022-06-07T14:36:57.759Z</time>
      </trkpt>
      <trkpt lat="48.11592" lon="6.41365">
        <ele>499.831114</ele>
        <time>2022-06-07T14:37:00.751Z</time>
      </trkpt>
      <trkpt lat="48.11603" lon="6.41359">
        <ele>499.612166</ele>
        <time>2022-06-07T14:37:04.775Z</time>
      </trkpt>
      <trkpt lat="48.11614" lon="6.41356">
        <ele>499.408439</ele>
        <time>2022-06-07T14:37:08.750Z</time>
      </trkpt>
      <trkpt lat="48.11625" lon="6.41352">
        <ele>499.203875</ele>
        <time>2022-06-07T14:37:12.744Z</time>
      </trkpt>
      <trkpt lat="48.11635" lon="6.41349">
        <ele>499.026463</ele>
        <time>2022-06-07T14:37:15.758Z</time>
      </trkpt>
      <trkpt lat="48.11644" lon="6.41348">
        <ele>498.850863</ele>
        <time>2022-06-07T14:37:18.755Z</time>
      </trkpt>
      <trkpt lat="48.11653" lon="6.41346">
        <ele>498.685187</ele>
        <time>2022-06-07T14:37:21.775Z</time>
      </trkpt>
      <trkpt lat="48.11662" lon="6.41342">
        <ele>498.5109</ele>
        <time>2022-06-07T14:37:24.764Z</time>
      </trkpt>
      <trkpt lat="48.11673" lon="6.41338">
        <ele>498.306231</ele>
        <time>2022-06-07T14:37:28.757Z</time>
      </trkpt>
      <trkpt lat="48.11682" lon="6.41335">
        <ele>498.134857</ele>
        <time>2022-06-07T14:37:31.760Z</time>
      </trkpt>
      <trkpt lat="48.11694" lon="6.41331">
        <ele>497.917839</ele>
        <time>2022-06-07T14:37:35.755Z</time>
      </trkpt>
      <trkpt lat="48.11703" lon="6.41328">
        <ele>497.75071</ele>
        <time>2022-06-07T14:37:38.766Z</time>
      </trkpt>
      <trkpt lat="48.11714" lon="6.41323">
        <ele>497.539323</ele>
        <time>2022-06-07T14:37:42.767Z</time>
      </trkpt>
      <trkpt lat="48.11724" lon="6.41317">
        <ele>497.346797</ele>
        <time>2022-06-07T14:37:46.749Z</time>
      </trkpt>
      <trkpt lat="48.11734" lon="6.4131">
        <ele>497.137228</ele>
        <time>2022-06-07T14:37:50.773Z</time>
      </trkpt>
      <trkpt lat="48.11745" lon="6.41306">
        <ele>497.085708</ele>
        <time>2022-06-07T14:37:54.771Z</time>
      </trkpt>
      <trkpt lat="48.11754" lon="6.41301">
        <ele>497.115648</ele>
        <time>2022-06-07T14:37:57.738Z</time>
      </trkpt>
      <trkpt lat="48.11765" lon="6.41293">
        <ele>497.155422</ele>
        <time>2022-06-07T14:38:01.762Z</time>
      </trkpt>
      <trkpt lat="48.11775" lon="6.41287">
        <ele>497.190568</ele>
        <time>2022-06-07T14:38:05.763Z</time>
      </trkpt>
      <trkpt lat="48.11784" lon="6.41285">
        <ele>497.220919</ele>
        <time>2022-06-07T14:38:08.753Z</time>
      </trkpt>
      <trkpt lat="48.11793" lon="6.41284">
        <ele>497.250563</ele>
        <time>2022-06-07T14:38:11.760Z</time>
      </trkpt>
      <trkpt lat="48.11805" lon="6.41283">
        <ele>497.290652</ele>
        <time>2022-06-07T14:38:15.775Z</time>
      </trkpt>
      <trkpt lat="48.11817" lon="6.41284">
        <ele>497.330099</ele>
        <time>2022-06-07T14:38:19.763Z</time>
      </trkpt>
      <trkpt lat="48.11828" lon="6.41285">
        <ele>497.365984</ele>
        <time>2022-06-07T14:38:23.772Z</time>
      </trkpt>
      <trkpt lat="48.11838" lon="6.41288">
        <ele>497.400858</ele>
        <time>2022-06-07T14:38:27.756Z</time>
      </trkpt>
      <trkpt lat="48.11849" lon="6.41293">
        <ele>497.437305</ele>
        <time>2022-06-07T14:38:31.741Z</time>
      </trkpt>
      <trkpt lat="48.1186" lon="6.41297">
        <ele>497.47454</ele>
        <time>2022-06-07T14:38:35.744Z</time>
      </trkpt>
      <trkpt lat="48.1187" lon="6.413">
        <ele>497.508405</ele>
        <time>2022-06-07T14:38:39.765Z</time>
      </trkpt>
      <trkpt lat="48.11879" lon="6.41303">
        <ele>497.539378</ele>
        <time>2022-06-07T14:38:43.753Z</time>
      </trkpt>
      <trkpt lat="48.11889" lon="6.41307">
        <ele>497.573694</ele>
        <time>2022-06-07T14:38:48.765Z</time>
      </trkpt>
      <trkpt lat="48.11898" lon="6.41312">
        <ele>497.60369</ele>
        <time>2022-06-07T14:38:52.750Z</time>
      </trkpt>
      <trkpt lat="48.11907" lon="6.41316">
        <ele>497.633773</ele>
        <time>2022-06-07T14:38:56.747Z</time>
      </trkpt>
      <trkpt lat="48.11915" lon="6.4132">
        <ele>497.776151</ele>
        <time>2022-06-07T14:39:00.760Z</time>
      </trkpt>
      <trkpt lat="48.11925" lon="6.41324">
        <ele>498.144902</ele>
        <time>2022-06-07T14:39:05.775Z</time>
      </trkpt>
      <trkpt lat="48.11934" lon="6.4133">
        <ele>498.500246</ele>
        <time>2022-06-07T14:39:09.758Z</time>
      </trkpt>
      <trkpt lat="48.11945" lon="6.41336">
        <ele>498.918522</ele>
        <time>2022-06-07T14:39:14.760Z</time>
      </trkpt>
      <trkpt lat="48.11954" lon="6.41341">
        <ele>499.27211</ele>
        <time>2022-06-07T14:39:18.747Z</time>
      </trkpt>
      <trkpt lat="48.11963" lon="6.41346">
        <ele>499.621562</ele>
        <time>2022-06-07T14:39:22.770Z</time>
      </trkpt>
      <trkpt lat="48.11973" lon="6.41352">
        <ele>500.009142</ele>
        <time>2022-06-07T14:39:27.764Z</time>
      </trkpt>
      <trkpt lat="48.11984" lon="6.41356">
        <ele>500.42186</ele>
        <time>2022-06-07T14:39:31.772Z</time>
      </trkpt>
      <trkpt lat="48.11994" lon="6.41357">
        <ele>500.789682</ele>
        <time>2022-06-07T14:39:35.754Z</time>
      </trkpt>
      <trkpt lat="48.12004" lon="6.41356">
        <ele>501.139848</ele>
        <time>2022-06-07T14:39:40.777Z</time>
      </trkpt>
      <trkpt lat="48.12014" lon="6.41349">
        <ele>501.535054</ele>
        <time>2022-06-07T14:39:47.750Z</time>
      </trkpt>
      <trkpt lat="48.12022" lon="6.41344">
        <ele>501.878487</ele>
        <time>2022-06-07T14:39:52.779Z</time>
      </trkpt>
      <trkpt lat="48.12031" lon="6.41344">
        <ele>502.205448</ele>
        <time>2022-06-07T14:39:56.773Z</time>
      </trkpt>
      <trkpt lat="48.12042" lon="6.41344">
        <ele>502.58664</ele>
        <time>2022-06-07T14:40:00.760Z</time>
      </trkpt>
      <trkpt lat="48.12054" lon="6.41345">
        <ele>503.011569</ele>
        <time>2022-06-07T14:40:04.753Z</time>
      </trkpt>
      <trkpt lat="48.12064" lon="6.4135">
        <ele>503.422255</ele>
        <time>2022-06-07T14:40:08.782Z</time>
      </trkpt>
      <trkpt lat="48.12074" lon="6.4135">
        <ele>503.789054</ele>
        <time>2022-06-07T14:40:12.784Z</time>
      </trkpt>
      <trkpt lat="48.12085" lon="6.41348">
        <ele>504.171545</ele>
        <time>2022-06-07T14:40:16.775Z</time>
      </trkpt>
      <trkpt lat="48.12095" lon="6.41346">
        <ele>503.856424</ele>
        <time>2022-06-07T14:40:20.769Z</time>
      </trkpt>
      <trkpt lat="48.12105" lon="6.41343">
        <ele>503.498139</ele>
        <time>2022-06-07T14:40:24.784Z</time>
      </trkpt>
      <trkpt lat="48.12113" lon="6.41339">
        <ele>503.181607</ele>
        <time>2022-06-07T14:40:28.776Z</time>
      </trkpt>
      <trkpt lat="48.12124" lon="6.41333">
        <ele>502.773712</ele>
        <time>2022-06-07T14:40:32.786Z</time>
      </trkpt>
      <trkpt lat="48.12136" lon="6.41333">
        <ele>502.360652</ele>
        <time>2022-06-07T14:40:35.781Z</time>
      </trkpt>
      <trkpt lat="48.12152" lon="6.41333">
        <ele>501.822664</ele>
        <time>2022-06-07T14:40:38.802Z</time>
      </trkpt>
      <trkpt lat="48.12162" lon="6.41335">
        <ele>501.469381</ele>
        <time>2022-06-07T14:40:40.748Z</time>
      </trkpt>
      <trkpt lat="48.12171" lon="6.41338">
        <ele>501.140609</ele>
        <time>2022-06-07T14:40:42.778Z</time>
      </trkpt>
      <trkpt lat="48.1218" lon="6.41342">
        <ele>500.811469</ele>
        <time>2022-06-07T14:40:44.808Z</time>
      </trkpt>
      <trkpt lat="48.1219" lon="6.41347">
        <ele>500.448264</ele>
        <time>2022-06-07T14:40:47.767Z</time>
      </trkpt>
      <trkpt lat="48.12199" lon="6.41349">
        <ele>500.133437</ele>
        <time>2022-06-07T14:40:50.758Z</time>
      </trkpt>
      <trkpt lat="48.12202" lon="6.41332">
        <ele>499.728682</ele>
        <time>2022-06-07T14:40:53.763Z</time>
      </trkpt>
      <trkpt lat="48.12202" lon="6.41316">
        <ele>499.344096</ele>
        <time>2022-06-07T14:40:56.767Z</time>
      </trkpt>
      <trkpt lat="48.12203" lon="6.41299">
        <ele>498.951024</ele>
        <time>2022-06-07T14:41:00.775Z</time>
      </trkpt>
      <trkpt lat="48.12212" lon="6.41289">
        <ele>498.576009</ele>
        <time>2022-06-07T14:41:04.802Z</time>
      </trkpt>
      <trkpt lat="48.12221" lon="6.41283">
        <ele>498.22366</ele>
        <time>2022-06-07T14:41:08.744Z</time>
      </trkpt>
      <trkpt lat="48.12229" lon="6.41275">
        <ele>497.929069</ele>
        <time>2022-06-07T14:41:12.756Z</time>
      </trkpt>
      <trkpt lat="48.12237" lon="6.41269">
        <ele>497.843174</ele>
        <time>2022-06-07T14:41:16.766Z</time>
      </trkpt>
      <trkpt lat="48.12247" lon="6.41263">
        <ele>497.751308</ele>
        <time>2022-06-07T14:41:22.763Z</time>
      </trkpt>
      <trkpt lat="48.12255" lon="6.41252">
        <ele>497.642855</ele>
        <time>2022-06-07T14:41:26.785Z</time>
      </trkpt>
      <trkpt lat="48.12262" lon="6.41243">
        <ele>497.559404</ele>
        <time>2022-06-07T14:41:29.753Z</time>
      </trkpt>
      <trkpt lat="48.12271" lon="6.41231">
        <ele>497.453032</ele>
        <time>2022-06-07T14:41:33.761Z</time>
      </trkpt>
      <trkpt lat="48.12276" lon="6.41218">
        <ele>497.361609</ele>
        <time>2022-06-07T14:41:37.782Z</time>
      </trkpt>
      <trkpt lat="48.12279" lon="6.41203">
        <ele>497.261632</ele>
        <time>2022-06-07T14:41:41.768Z</time>
      </trkpt>
      <trkpt lat="48.12282" lon="6.4119">
        <ele>497.178551</ele>
        <time>2022-06-07T14:41:44.786Z</time>
      </trkpt>
      <trkpt lat="48.12287" lon="6.41177">
        <ele>497.087828</ele>
        <time>2022-06-07T14:41:48.768Z</time>
      </trkpt>
      <trkpt lat="48.12294" lon="6.41166">
        <ele>496.993593</ele>
        <time>2022-06-07T14:41:52.771Z</time>
      </trkpt>
      <trkpt lat="48.12302" lon="6.41155">
        <ele>496.892025</ele>
        <time>2022-06-07T14:41:56.768Z</time>
      </trkpt>
      <trkpt lat="48.12308" lon="6.41144">
        <ele>496.803189</ele>
        <time>2022-06-07T14:42:00.776Z</time>
      </trkpt>
      <trkpt lat="48.12314" lon="6.41133">
        <ele>496.716995</ele>
        <time>2022-06-07T14:42:03.773Z</time>
      </trkpt>
      <trkpt lat="48.12319" lon="6.41121">
        <ele>496.630407</ele>
        <time>2022-06-07T14:42:07.765Z</time>
      </trkpt>
      <trkpt lat="48.12326" lon="6.41106">
        <ele>496.519233</ele>
        <time>2022-06-07T14:42:11.768Z</time>
      </trkpt>
      <trkpt lat="48.12331" lon="6.41093">
        <ele>496.421379</ele>
        <time>2022-06-07T14:42:16.756Z</time>
      </trkpt>
      <trkpt lat="48.12336" lon="6.4108">
        <ele>496.336279</ele>
        <time>2022-06-07T14:42:21.758Z</time>
      </trkpt>
      <trkpt lat="48.12338" lon="6.41064">
        <ele>496.394651</ele>
        <time>2022-06-07T14:42:26.749Z</time>
      </trkpt>
      <trkpt lat="48.12342" lon="6.41052">
        <ele>496.610575</ele>
        <time>2022-06-07T14:42:30.744Z</time>
      </trkpt>
      <trkpt lat="48.12347" lon="6.41031">
        <ele>496.951269</ele>
        <time>2022-06-07T14:42:36.755Z</time>
      </trkpt>
      <trkpt lat="48.12352" lon="6.41015">
        <ele>497.222213</ele>
        <time>2022-06-07T14:42:38.765Z</time>
      </trkpt>
      <trkpt lat="48.12358" lon="6.41001">
        <ele>497.480487</ele>
        <time>2022-06-07T14:42:43.777Z</time>
      </trkpt>
      <trkpt lat="48.12363" lon="6.40989">
        <ele>497.702827</ele>
        <time>2022-06-07T14:42:47.768Z</time>
      </trkpt>
      <trkpt lat="48.12369" lon="6.40977">
        <ele>497.930413</ele>
        <time>2022-06-07T14:42:51.760Z</time>
      </trkpt>
      <trkpt lat="48.12376" lon="6.40965">
        <ele>498.170107</ele>
        <time>2022-06-07T14:42:55.756Z</time>
      </trkpt>
      <trkpt lat="48.12382" lon="6.40956">
        <ele>498.387861</ele>
        <time>2022-06-07T14:42:59.758Z</time>
      </trkpt>
      <trkpt lat="48.12388" lon="6.40942">
        <ele>498.633242</ele>
        <time>2022-06-07T14:43:04.783Z</time>
      </trkpt>
      <trkpt lat="48.12393" lon="6.40929">
        <ele>498.871166</ele>
        <time>2022-06-07T14:43:07.775Z</time>
      </trkpt>
      <trkpt lat="48.12399" lon="6.40916">
        <ele>499.113073</ele>
        <time>2022-06-07T14:43:10.761Z</time>
      </trkpt>
      <trkpt lat="48.12404" lon="6.40902">
        <ele>499.361667</ele>
        <time>2022-06-07T14:43:14.786Z</time>
      </trkpt>
      <trkpt lat="48.12411" lon="6.40892">
        <ele>499.578512</ele>
        <time>2022-06-07T14:43:19.751Z</time>
      </trkpt>
      <trkpt lat="48.12419" lon="6.40885">
        <ele>499.795259</ele>
        <time>2022-06-07T14:43:27.769Z</time>
      </trkpt>
      <trkpt lat="48.12428" lon="6.40879">
        <ele>500.026612</ele>
        <time>2022-06-07T14:43:31.793Z</time>
      </trkpt>
      <trkpt lat="48.12438" lon="6.40882">
        <ele>500.253847</ele>
        <time>2022-06-07T14:43:37.767Z</time>
      </trkpt>
      <trkpt lat="48.12449" lon="6.40877">
        <ele>500.698906</ele>
        <time>2022-06-07T14:43:41.763Z</time>
      </trkpt>
      <trkpt lat="48.1246" lon="6.40874">
        <ele>501.548927</ele>
        <time>2022-06-07T14:43:45.745Z</time>
      </trkpt>
      <trkpt lat="48.12471" lon="6.40869">
        <ele>502.426122</ele>
        <time>2022-06-07T14:43:49.760Z</time>
      </trkpt>
      <trkpt lat="48.12482" lon="6.40864">
        <ele>503.330446</ele>
        <time>2022-06-07T14:43:52.769Z</time>
      </trkpt>
      <trkpt lat="48.12491" lon="6.40857">
        <ele>504.157946</ele>
        <time>2022-06-07T14:43:55.767Z</time>
      </trkpt>
      <trkpt lat="48.12501" lon="6.40852">
        <ele>504.924382</ele>
        <time>2022-06-07T14:43:59.751Z</time>
      </trkpt>
      <trkpt lat="48.1251" lon="6.4084">
        <ele>505.854631</ele>
        <time>2022-06-07T14:44:03.772Z</time>
      </trkpt>
      <trkpt lat="48.12516" lon="6.40828">
        <ele>506.64312</ele>
        <time>2022-06-07T14:44:07.731Z</time>
      </trkpt>
      <trkpt lat="48.12519" lon="6.40813">
        <ele>507.486926</ele>
        <time>2022-06-07T14:44:13.746Z</time>
      </trkpt>
      <trkpt lat="48.12521" lon="6.40797">
        <ele>508.281822</ele>
        <time>2022-06-07T14:44:18.745Z</time>
      </trkpt>
      <trkpt lat="48.12521" lon="6.40781">
        <ele>509.1293</ele>
        <time>2022-06-07T14:44:22.834Z</time>
      </trkpt>
      <trkpt lat="48.12531" lon="6.40758">
        <ele>510.506051</ele>
        <time>2022-06-07T14:44:25.745Z</time>
      </trkpt>
      <trkpt lat="48.12536" lon="6.40747">
        <ele>511.204855</ele>
        <time>2022-06-07T14:44:29.755Z</time>
      </trkpt>
      <trkpt lat="48.12538" lon="6.40732">
        <ele>511.959902</ele>
        <time>2022-06-07T14:44:34.743Z</time>
      </trkpt>
      <trkpt lat="48.1254" lon="6.40717">
        <ele>512.79048</ele>
        <time>2022-06-07T14:44:38.771Z</time>
      </trkpt>
      <trkpt lat="48.12541" lon="6.40701">
        <ele>513.60407</ele>
        <time>2022-06-07T14:44:43.747Z</time>
      </trkpt>
      <trkpt lat="48.1254" lon="6.40686">
        <ele>514.360669</ele>
        <time>2022-06-07T14:44:48.789Z</time>
      </trkpt>
      <trkpt lat="48.12539" lon="6.40672">
        <ele>514.652413</ele>
        <time>2022-06-07T14:44:52.771Z</time>
      </trkpt>
      <trkpt lat="48.12544" lon="6.40657">
        <ele>515.003897</ele>
        <time>2022-06-07T14:44:58.762Z</time>
      </trkpt>
      <trkpt lat="48.12551" lon="6.40648">
        <ele>515.301355</ele>
        <time>2022-06-07T14:45:03.759Z</time>
      </trkpt>
      <trkpt lat="48.12561" lon="6.40641">
        <ele>515.630383</ele>
        <time>2022-06-07T14:45:08.764Z</time>
      </trkpt>
      <trkpt lat="48.12571" lon="6.40634">
        <ele>515.983614</ele>
        <time>2022-06-07T14:45:13.803Z</time>
      </trkpt>
      <trkpt lat="48.12581" lon="6.40627">
        <ele>516.342835</ele>
        <time>2022-06-07T14:45:18.790Z</time>
      </trkpt>
      <trkpt lat="48.12585" lon="6.40614">
        <ele>516.637176</ele>
        <time>2022-06-07T14:45:22.771Z</time>
      </trkpt>
      <trkpt lat="48.12586" lon="6.40599">
        <ele>516.962549</ele>
        <time>2022-06-07T14:45:26.769Z</time>
      </trkpt>
      <trkpt lat="48.12592" lon="6.40585">
        <ele>517.309794</ele>
        <time>2022-06-07T14:45:30.759Z</time>
      </trkpt>
      <trkpt lat="48.12599" lon="6.40574">
        <ele>517.639803</ele>
        <time>2022-06-07T14:45:34.766Z</time>
      </trkpt>
      <trkpt lat="48.12608" lon="6.4057">
        <ele>517.940343</ele>
        <time>2022-06-07T14:45:38.788Z</time>
      </trkpt>
      <trkpt lat="48.12618" lon="6.40566">
        <ele>518.239482</ele>
        <time>2022-06-07T14:45:42.820Z</time>
      </trkpt>
      <trkpt lat="48.12628" lon="6.40562">
        <ele>518.594666</ele>
        <time>2022-06-07T14:45:46.773Z</time>
      </trkpt>
      <trkpt lat="48.12639" lon="6.40557">
        <ele>518.92769</ele>
        <time>2022-06-07T14:45:50.773Z</time>
      </trkpt>
      <trkpt lat="48.12647" lon="6.40549">
        <ele>519.234041</ele>
        <time>2022-06-07T14:45:53.790Z</time>
      </trkpt>
      <trkpt lat="48.12655" lon="6.40542">
        <ele>519.53716</ele>
        <time>2022-06-07T14:45:56.764Z</time>
      </trkpt>
      <trkpt lat="48.12666" lon="6.40537">
        <ele>519.901079</ele>
        <time>2022-06-07T14:46:00.791Z</time>
      </trkpt>
      <trkpt lat="48.12675" lon="6.40534">
        <ele>519.97141</ele>
        <time>2022-06-07T14:46:03.768Z</time>
      </trkpt>
      <trkpt lat="48.12684" lon="6.4053">
        <ele>519.902059</ele>
        <time>2022-06-07T14:46:06.754Z</time>
      </trkpt>
      <trkpt lat="48.12694" lon="6.40525">
        <ele>519.816851</ele>
        <time>2022-06-07T14:46:10.797Z</time>
      </trkpt>
      <trkpt lat="48.12705" lon="6.40518">
        <ele>519.729148</ele>
        <time>2022-06-07T14:46:14.770Z</time>
      </trkpt>
      <trkpt lat="48.12714" lon="6.40515">
        <ele>519.655528</ele>
        <time>2022-06-07T14:46:17.811Z</time>
      </trkpt>
      <trkpt lat="48.12724" lon="6.4051">
        <ele>519.575107</ele>
        <time>2022-06-07T14:46:21.779Z</time>
      </trkpt>
      <trkpt lat="48.12734" lon="6.40506">
        <ele>519.495826</ele>
        <time>2022-06-07T14:46:25.753Z</time>
      </trkpt>
      <trkpt lat="48.12746" lon="6.40504">
        <ele>519.41007</ele>
        <time>2022-06-07T14:46:29.749Z</time>
      </trkpt>
      <trkpt lat="48.12757" lon="6.40502">
        <ele>519.323501</ele>
        <time>2022-06-07T14:46:33.765Z</time>
      </trkpt>
      <trkpt lat="48.12768" lon="6.405">
        <ele>519.24059</ele>
        <time>2022-06-07T14:46:37.766Z</time>
      </trkpt>
      <trkpt lat="48.12778" lon="6.40497">
        <ele>519.162392</ele>
        <time>2022-06-07T14:46:41.747Z</time>
      </trkpt>
      <trkpt lat="48.12787" lon="6.40495">
        <ele>519.08996</ele>
        <time>2022-06-07T14:46:45.751Z</time>
      </trkpt>
      <trkpt lat="48.12796" lon="6.40493">
        <ele>519.018358</ele>
        <time>2022-06-07T14:46:49.759Z</time>
      </trkpt>
      <trkpt lat="48.12806" lon="6.4049">
        <ele>518.941254</ele>
        <time>2022-06-07T14:46:53.763Z</time>
      </trkpt>
      <trkpt lat="48.12818" lon="6.40486">
        <ele>518.852857</ele>
        <time>2022-06-07T14:46:57.783Z</time>
      </trkpt>
      <trkpt lat="48.12827" lon="6.40478">
        <ele>518.774699</ele>
        <time>2022-06-07T14:47:01.778Z</time>
      </trkpt>
      <trkpt lat="48.12837" lon="6.4047">
        <ele>518.685418</ele>
        <time>2022-06-07T14:47:05.766Z</time>
      </trkpt>
      <trkpt lat="48.12847" lon="6.40467">
        <ele>518.31041</ele>
        <time>2022-06-07T14:47:09.772Z</time>
      </trkpt>
      <trkpt lat="48.12856" lon="6.40462">
        <ele>517.73414</ele>
        <time>2022-06-07T14:47:12.764Z</time>
      </trkpt>
      <trkpt lat="48.12867" lon="6.40459">
        <ele>517.010945</ele>
        <time>2022-06-07T14:47:16.747Z</time>
      </trkpt>
      <trkpt lat="48.12879" lon="6.40455">
        <ele>516.240535</ele>
        <time>2022-06-07T14:47:20.764Z</time>
      </trkpt>
      <trkpt lat="48.12889" lon="6.40452">
        <ele>515.585668</ele>
        <time>2022-06-07T14:47:24.752Z</time>
      </trkpt>
      <trkpt lat="48.12898" lon="6.4045">
        <ele>514.98781</ele>
        <time>2022-06-07T14:47:28.729Z</time>
      </trkpt>
      <trkpt lat="48.12908" lon="6.40449">
        <ele>514.36564</ele>
        <time>2022-06-07T14:47:31.754Z</time>
      </trkpt>
      <trkpt lat="48.12917" lon="6.40444">
        <ele>513.711628</ele>
        <time>2022-06-07T14:47:35.759Z</time>
      </trkpt>
      <trkpt lat="48.12927" lon="6.40441">
        <ele>513.087253</ele>
        <time>2022-06-07T14:47:39.745Z</time>
      </trkpt>
      <trkpt lat="48.12937" lon="6.40432">
        <ele>512.359772</ele>
        <time>2022-06-07T14:47:43.768Z</time>
      </trkpt>
      <trkpt lat="48.12946" lon="6.40424">
        <ele>511.667049</ele>
        <time>2022-06-07T14:47:46.761Z</time>
      </trkpt>
      <trkpt lat="48.12955" lon="6.40414">
        <ele>510.977691</ele>
        <time>2022-06-07T14:47:49.739Z</time>
      </trkpt>
      <trkpt lat="48.12958" lon="6.40401">
        <ele>510.402477</ele>
        <time>2022-06-07T14:47:52.749Z</time>
      </trkpt>
      <trkpt lat="48.12958" lon="6.40386">
        <ele>509.733621</ele>
        <time>2022-06-07T14:47:56.759Z</time>
      </trkpt>
      <trkpt lat="48.12959" lon="6.4037">
        <ele>509.065387</ele>
        <time>2022-06-07T14:48:00.750Z</time>
      </trkpt>
      <trkpt lat="48.12959" lon="6.40355">
        <ele>508.438677</ele>
        <time>2022-06-07T14:48:04.777Z</time>
      </trkpt>
      <trkpt lat="48.12962" lon="6.40339">
        <ele>507.726566</ele>
        <time>2022-06-07T14:48:09.756Z</time>
      </trkpt>
      <trkpt lat="48.12963" lon="6.40325">
        <ele>507.152927</ele>
        <time>2022-06-07T14:48:13.760Z</time>
      </trkpt>
      <trkpt lat="48.12969" lon="6.40311">
        <ele>506.912096</ele>
        <time>2022-06-07T14:48:18.756Z</time>
      </trkpt>
      <trkpt lat="48.12974" lon="6.40295">
        <ele>506.657018</ele>
        <time>2022-06-07T14:48:22.749Z</time>
      </trkpt>
      <trkpt lat="48.12978" lon="6.40283">
        <ele>506.453229</ele>
        <time>2022-06-07T14:48:26.736Z</time>
      </trkpt>
      <trkpt lat="48.12983" lon="6.40269">
        <ele>506.21009</ele>
        <time>2022-06-07T14:48:32.759Z</time>
      </trkpt>
      <trkpt lat="48.12988" lon="6.40255">
        <ele>505.98154</ele>
        <time>2022-06-07T14:48:36.752Z</time>
      </trkpt>
      <trkpt lat="48.12991" lon="6.4024">
        <ele>505.753854</ele>
        <time>2022-06-07T14:48:42.742Z</time>
      </trkpt>
      <trkpt lat="48.12994" lon="6.40227">
        <ele>505.549926</ele>
        <time>2022-06-07T14:48:46.751Z</time>
      </trkpt>
      <trkpt lat="48.12997" lon="6.40214">
        <ele>505.342382</ele>
        <time>2022-06-07T14:48:52.728Z</time>
      </trkpt>
      <trkpt lat="48.12999" lon="6.402">
        <ele>505.139985</ele>
        <time>2022-06-07T14:48:58.755Z</time>
      </trkpt>
      <trkpt lat="48.13003" lon="6.40188">
        <ele>504.93259</ele>
        <time>2022-06-07T14:49:03.760Z</time>
      </trkpt>
      <trkpt lat="48.1301" lon="6.40172">
        <ele>504.650002</ele>
        <time>2022-06-07T14:49:08.790Z</time>
      </trkpt>
      <trkpt lat="48.1302" lon="6.40159">
        <ele>504.361957</ele>
        <time>2022-06-07T14:49:11.762Z</time>
      </trkpt>
      <trkpt lat="48.13025" lon="6.40147">
        <ele>504.15164</ele>
        <time>2022-06-07T14:49:15.769Z</time>
      </trkpt>
      <trkpt lat="48.13034" lon="6.4014">
        <ele>503.933097</ele>
        <time>2022-06-07T14:49:21.756Z</time>
      </trkpt>
      <trkpt lat="48.13043" lon="6.40135">
        <ele>503.712347</ele>
        <time>2022-06-07T14:49:25.744Z</time>
      </trkpt>
      <trkpt lat="48.13052" lon="6.40138">
        <ele>503.508113</ele>
        <time>2022-06-07T14:49:32.765Z</time>
      </trkpt>
      <trkpt lat="48.13064" lon="6.40139">
        <ele>503.247667</ele>
        <time>2022-06-07T14:49:35.758Z</time>
      </trkpt>
      <trkpt lat="48.13073" lon="6.40143">
        <ele>503.247236</ele>
        <time>2022-06-07T14:49:38.749Z</time>
      </trkpt>
      <trkpt lat="48.13085" lon="6.40148">
        <ele>503.34052</ele>
        <time>2022-06-07T14:49:42.752Z</time>
      </trkpt>
      <trkpt lat="48.13095" lon="6.40152">
        <ele>503.415445</ele>
        <time>2022-06-07T14:49:46.760Z</time>
      </trkpt>
      <trkpt lat="48.13128" lon="6.40154">
        <ele>503.651224</ele>
        <time>2022-06-07T14:49:51.755Z</time>
      </trkpt>
      <trkpt lat="48.13141" lon="6.4016">
        <ele>503.746438</ele>
        <time>2022-06-07T14:49:53.742Z</time>
      </trkpt>
      <trkpt lat="48.13148" lon="6.4017">
        <ele>503.81617</ele>
        <time>2022-06-07T14:49:57.742Z</time>
      </trkpt>
      <trkpt lat="48.13154" lon="6.40181">
        <ele>503.884393</ele>
        <time>2022-06-07T14:50:02.746Z</time>
      </trkpt>
      <trkpt lat="48.13165" lon="6.40204">
        <ele>504.019532</ele>
        <time>2022-06-07T14:50:07.777Z</time>
      </trkpt>
      <trkpt lat="48.1317" lon="6.40224">
        <ele>504.122453</ele>
        <time>2022-06-07T14:50:11.757Z</time>
      </trkpt>
      <trkpt lat="48.13176" lon="6.40246">
        <ele>504.23738</ele>
        <time>2022-06-07T14:50:15.747Z</time>
      </trkpt>
      <trkpt lat="48.13184" lon="6.40253">
        <ele>504.306692</ele>
        <time>2022-06-07T14:50:22.759Z</time>
      </trkpt>
      <trkpt lat="48.13191" lon="6.40262">
        <ele>504.372706</ele>
        <time>2022-06-07T14:50:27.756Z</time>
      </trkpt>
      <trkpt lat="48.132" lon="6.4027">
        <ele>504.445355</ele>
        <time>2022-06-07T14:50:32.748Z</time>
      </trkpt>
      <trkpt lat="48.13207" lon="6.40282">
        <ele>504.395195</ele>
        <time>2022-06-07T14:50:37.773Z</time>
      </trkpt>
      <trkpt lat="48.13209" lon="6.40315">
        <ele>503.857363</ele>
        <time>2022-06-07T14:50:41.738Z</time>
      </trkpt>
      <trkpt lat="48.13205" lon="6.40343">
        <ele>503.410147</ele>
        <time>2022-06-07T14:50:48.769Z</time>
      </trkpt>
      <trkpt lat="48.13203" lon="6.40356">
        <ele>503.195602</ele>
        <time>2022-06-07T14:50:50.778Z</time>
      </trkpt>
      <trkpt lat="48.13198" lon="6.40369">
        <ele>502.958445</ele>
        <time>2022-06-07T14:50:53.779Z</time>
      </trkpt>
      <trkpt lat="48.13193" lon="6.4039">
        <ele>502.609188</ele>
        <time>2022-06-07T14:50:55.762Z</time>
      </trkpt>
      <trkpt lat="48.1319" lon="6.40403">
        <ele>502.384019</ele>
        <time>2022-06-07T14:50:58.761Z</time>
      </trkpt>
      <trkpt lat="48.13189" lon="6.40418">
        <ele>502.143723</ele>
        <time>2022-06-07T14:51:01.756Z</time>
      </trkpt>
      <trkpt lat="48.13186" lon="6.40434">
        <ele>501.886507</ele>
        <time>2022-06-07T14:51:04.773Z</time>
      </trkpt>
      <trkpt lat="48.13189" lon="6.4045">
        <ele>501.63442</ele>
        <time>2022-06-07T14:51:08.772Z</time>
      </trkpt>
      <trkpt lat="48.13192" lon="6.40469">
        <ele>501.32663</ele>
        <time>2022-06-07T14:51:11.751Z</time>
      </trkpt>
      <trkpt lat="48.13194" lon="6.40484">
        <ele>501.081845</ele>
        <time>2022-06-07T14:51:14.750Z</time>
      </trkpt>
      <trkpt lat="48.13199" lon="6.40495">
        <ele>500.865147</ele>
        <time>2022-06-07T14:51:18.777Z</time>
      </trkpt>
      <trkpt lat="48.13206" lon="6.40508">
        <ele>500.596896</ele>
        <time>2022-06-07T14:51:22.780Z</time>
      </trkpt>
      <trkpt lat="48.13211" lon="6.4052">
        <ele>500.383778</ele>
        <time>2022-06-07T14:51:25.744Z</time>
      </trkpt>
      <trkpt lat="48.13217" lon="6.40532">
        <ele>500.146808</ele>
        <time>2022-06-07T14:51:29.766Z</time>
      </trkpt>
      <trkpt lat="48.13228" lon="6.40545">
        <ele>499.855001</ele>
        <time>2022-06-07T14:51:34.738Z</time>
      </trkpt>
      <trkpt lat="48.13237" lon="6.40559">
        <ele>499.578913</ele>
        <time>2022-06-07T14:51:39.742Z</time>
      </trkpt>
      <trkpt lat="48.13249" lon="6.40575">
        <ele>499.249163</ele>
        <time>2022-06-07T14:51:44.764Z</time>
      </trkpt>
      <trkpt lat="48.13255" lon="6.40586">
        <ele>499.052561</ele>
        <time>2022-06-07T14:51:47.773Z</time>
      </trkpt>
      <trkpt lat="48.13262" lon="6.40597">
        <ele>498.833461</ele>
        <time>2022-06-07T14:51:51.773Z</time>
      </trkpt>
      <trkpt lat="48.1327" lon="6.40606">
        <ele>498.610598</ele>
        <time>2022-06-07T14:51:56.754Z</time>
      </trkpt>
      <trkpt lat="48.13279" lon="6.40618">
        <ele>498.364773</ele>
        <time>2022-06-07T14:51:59.754Z</time>
      </trkpt>
      <trkpt lat="48.13293" lon="6.40638">
        <ele>497.960969</ele>
        <time>2022-06-07T14:52:04.766Z</time>
      </trkpt>
      <trkpt lat="48.13301" lon="6.40645">
        <ele>497.759674</ele>
        <time>2022-06-07T14:52:08.769Z</time>
      </trkpt>
      <trkpt lat="48.13312" lon="6.40659">
        <ele>497.452452</ele>
        <time>2022-06-07T14:52:13.743Z</time>
      </trkpt>
      <trkpt lat="48.13319" lon="6.40669">
        <ele>497.263148</ele>
        <time>2022-06-07T14:52:16.768Z</time>
      </trkpt>
      <trkpt lat="48.13328" lon="6.40673">
        <ele>497.061053</ele>
        <time>2022-06-07T14:52:21.755Z</time>
      </trkpt>
      <trkpt lat="48.13339" lon="6.40691">
        <ele>496.715665</ele>
        <time>2022-06-07T14:52:25.769Z</time>
      </trkpt>
      <trkpt lat="48.13345" lon="6.40702">
        <ele>496.523932</ele>
        <time>2022-06-07T14:52:28.732Z</time>
      </trkpt>
      <trkpt lat="48.13355" lon="6.40709">
        <ele>496.098586</ele>
        <time>2022-06-07T14:52:33.750Z</time>
      </trkpt>
      <trkpt lat="48.13362" lon="6.40718">
        <ele>495.64042</ele>
        <time>2022-06-07T14:52:35.781Z</time>
      </trkpt>
      <trkpt lat="48.1337" lon="6.40734">
        <ele>494.978481</ele>
        <time>2022-06-07T14:52:38.799Z</time>
      </trkpt>
      <trkpt lat="48.1338" lon="6.40739">
        <ele>494.450849</ele>
        <time>2022-06-07T14:52:43.773Z</time>
      </trkpt>
      <trkpt lat="48.1339" lon="6.40742">
        <ele>493.991901</ele>
        <time>2022-06-07T14:52:49.781Z</time>
      </trkpt>
      <trkpt lat="48.13398" lon="6.40737">
        <ele>493.535716</ele>
        <time>2022-06-07T14:52:51.779Z</time>
      </trkpt>
      <trkpt lat="48.13408" lon="6.40732">
        <ele>493.053817</ele>
        <time>2022-06-07T14:52:54.766Z</time>
      </trkpt>
      <trkpt lat="48.1342" lon="6.4073">
        <ele>492.419075</ele>
        <time>2022-06-07T14:52:56.756Z</time>
      </trkpt>
      <trkpt lat="48.13431" lon="6.40727">
        <ele>491.87316</ele>
        <time>2022-06-07T14:52:59.763Z</time>
      </trkpt>
      <trkpt lat="48.13443" lon="6.4072">
        <ele>491.259159</ele>
        <time>2022-06-07T14:53:02.783Z</time>
      </trkpt>
      <trkpt lat="48.13455" lon="6.40712">
        <ele>490.61603</ele>
        <time>2022-06-07T14:53:06.777Z</time>
      </trkpt>
      <trkpt lat="48.13464" lon="6.40703">
        <ele>490.083999</ele>
        <time>2022-06-07T14:53:10.792Z</time>
      </trkpt>
      <trkpt lat="48.13471" lon="6.40695">
        <ele>489.62716</ele>
        <time>2022-06-07T14:53:15.762Z</time>
      </trkpt>
      <trkpt lat="48.13494" lon="6.40681">
        <ele>488.411413</ele>
        <time>2022-06-07T14:53:23.768Z</time>
      </trkpt>
      <trkpt lat="48.13507" lon="6.40679">
        <ele>487.798717</ele>
        <time>2022-06-07T14:53:26.763Z</time>
      </trkpt>
      <trkpt lat="48.13516" lon="6.40681">
        <ele>487.427244</ele>
        <time>2022-06-07T14:53:31.743Z</time>
      </trkpt>
      <trkpt lat="48.13526" lon="6.4068">
        <ele>487.066932</ele>
        <time>2022-06-07T14:53:33.752Z</time>
      </trkpt>
      <trkpt lat="48.13536" lon="6.40682">
        <ele>486.741866</ele>
        <time>2022-06-07T14:53:36.785Z</time>
      </trkpt>
      <trkpt lat="48.13549" lon="6.40685">
        <ele>486.297136</ele>
        <time>2022-06-07T14:53:40.784Z</time>
      </trkpt>
      <trkpt lat="48.13559" lon="6.40687">
        <ele>485.959783</ele>
        <time>2022-06-07T14:53:43.787Z</time>
      </trkpt>
      <trkpt lat="48.13572" lon="6.40692">
        <ele>485.52932</ele>
        <time>2022-06-07T14:53:47.753Z</time>
      </trkpt>
      <trkpt lat="48.13581" lon="6.40695">
        <ele>485.225446</ele>
        <time>2022-06-07T14:53:50.772Z</time>
      </trkpt>
      <trkpt lat="48.13593" lon="6.40698">
        <ele>484.800111</ele>
        <time>2022-06-07T14:53:53.770Z</time>
      </trkpt>
      <trkpt lat="48.13605" lon="6.40702">
        <ele>484.392866</ele>
        <time>2022-06-07T14:53:56.756Z</time>
      </trkpt>
      <trkpt lat="48.13616" lon="6.40705">
        <ele>484.017151</ele>
        <time>2022-06-07T14:54:00.786Z</time>
      </trkpt>
      <trkpt lat="48.13627" lon="6.40703">
        <ele>483.648046</ele>
        <time>2022-06-07T14:54:03.771Z</time>
      </trkpt>
      <trkpt lat="48.13638" lon="6.40705">
        <ele>483.282247</ele>
        <time>2022-06-07T14:54:06.775Z</time>
      </trkpt>
      <trkpt lat="48.13648" lon="6.40709">
        <ele>482.952055</ele>
        <time>2022-06-07T14:54:09.790Z</time>
      </trkpt>
      <trkpt lat="48.13658" lon="6.40712">
        <ele>482.595568</ele>
        <time>2022-06-07T14:54:13.775Z</time>
      </trkpt>
      <trkpt lat="48.13668" lon="6.4072">
        <ele>482.235469</ele>
        <time>2022-06-07T14:54:17.789Z</time>
      </trkpt>
      <trkpt lat="48.13672" lon="6.40735">
        <ele>481.872557</ele>
        <time>2022-06-07T14:54:22.745Z</time>
      </trkpt>
      <trkpt lat="48.1367" lon="6.4075">
        <ele>481.584359</ele>
        <time>2022-06-07T14:54:25.757Z</time>
      </trkpt>
      <trkpt lat="48.1367" lon="6.40767">
        <ele>481.531227</ele>
        <time>2022-06-07T14:54:28.763Z</time>
      </trkpt>
      <trkpt lat="48.13671" lon="6.40781">
        <ele>481.483388</ele>
        <time>2022-06-07T14:54:31.755Z</time>
      </trkpt>
      <trkpt lat="48.13673" lon="6.408">
        <ele>481.423615</ele>
        <time>2022-06-07T14:54:35.771Z</time>
      </trkpt>
      <trkpt lat="48.13675" lon="6.40817">
        <ele>481.365158</ele>
        <time>2022-06-07T14:54:39.750Z</time>
      </trkpt>
      <trkpt lat="48.13677" lon="6.40833">
        <ele>481.312976</ele>
        <time>2022-06-07T14:54:43.758Z</time>
      </trkpt>
      <trkpt lat="48.13679" lon="6.40851">
        <ele>481.252936</ele>
        <time>2022-06-07T14:54:47.766Z</time>
      </trkpt>
      <trkpt lat="48.13679" lon="6.40865">
        <ele>481.205875</ele>
        <time>2022-06-07T14:54:50.747Z</time>
      </trkpt>
      <trkpt lat="48.13681" lon="6.40881">
        <ele>481.15528</ele>
        <time>2022-06-07T14:54:54.760Z</time>
      </trkpt>
      <trkpt lat="48.13682" lon="6.40895">
        <ele>481.108219</ele>
        <time>2022-06-07T14:54:58.814Z</time>
      </trkpt>
      <trkpt lat="48.13681" lon="6.40912">
        <ele>481.054004</ele>
        <time>2022-06-07T14:55:02.759Z</time>
      </trkpt>
      <trkpt lat="48.13681" lon="6.40927">
        <ele>481.002501</ele>
        <time>2022-06-07T14:55:06.756Z</time>
      </trkpt>
      <trkpt lat="48.13681" lon="6.40944">
        <ele>480.950003</ele>
        <time>2022-06-07T14:55:10.784Z</time>
      </trkpt>
      <trkpt lat="48.1368" lon="6.4096">
        <ele>480.896818</ele>
        <time>2022-06-07T14:55:14.751Z</time>
      </trkpt>
      <trkpt lat="48.13677" lon="6.40976">
        <ele>480.844107</ele>
        <time>2022-06-07T14:55:18.757Z</time>
      </trkpt>
      <trkpt lat="48.13673" lon="6.40993">
        <ele>480.784239</ele>
        <time>2022-06-07T14:55:22.790Z</time>
      </trkpt>
      <trkpt lat="48.1367" lon="6.41005">
        <ele>480.740296</ele>
        <time>2022-06-07T14:55:25.798Z</time>
      </trkpt>
      <trkpt lat="48.13671" lon="6.41019">
        <ele>480.985943</ele>
        <time>2022-06-07T14:55:28.766Z</time>
      </trkpt>
      <trkpt lat="48.13679" lon="6.41029">
        <ele>481.6325</ele>
        <time>2022-06-07T14:55:31.778Z</time>
      </trkpt>
      <trkpt lat="48.13689" lon="6.41036">
        <ele>482.335563</ele>
        <time>2022-06-07T14:55:34.774Z</time>
      </trkpt>
      <trkpt lat="48.13698" lon="6.41045">
        <ele>483.003507</ele>
        <time>2022-06-07T14:55:38.784Z</time>
      </trkpt>
      <trkpt lat="48.13707" lon="6.41055">
        <ele>483.675583</ele>
        <time>2022-06-07T14:55:42.769Z</time>
      </trkpt>
      <trkpt lat="48.13717" lon="6.41059">
        <ele>484.33727</ele>
        <time>2022-06-07T14:55:47.792Z</time>
      </trkpt>
      <trkpt lat="48.13727" lon="6.41065">
        <ele>485.043966</ele>
        <time>2022-06-07T14:55:52.755Z</time>
      </trkpt>
      <trkpt lat="48.13738" lon="6.41069">
        <ele>485.742954</ele>
        <time>2022-06-07T14:55:57.733Z</time>
      </trkpt>
      <trkpt lat="48.13747" lon="6.41073">
        <ele>486.343937</ele>
        <time>2022-06-07T14:56:02.740Z</time>
      </trkpt>
      <trkpt lat="48.13757" lon="6.41078">
        <ele>487.019417</ele>
        <time>2022-06-07T14:56:07.762Z</time>
      </trkpt>
      <trkpt lat="48.13767" lon="6.41085">
        <ele>487.706259</ele>
        <time>2022-06-07T14:56:11.762Z</time>
      </trkpt>
      <trkpt lat="48.13775" lon="6.41092">
        <ele>488.301657</ele>
        <time>2022-06-07T14:56:16.779Z</time>
      </trkpt>
      <trkpt lat="48.13784" lon="6.411">
        <ele>488.941086</ele>
        <time>2022-06-07T14:56:22.739Z</time>
      </trkpt>
      <trkpt lat="48.13792" lon="6.41106">
        <ele>489.520702</ele>
        <time>2022-06-07T14:56:27.779Z</time>
      </trkpt>
      <trkpt lat="48.13802" lon="6.41111">
        <ele>490.134389</ele>
        <time>2022-06-07T14:56:32.750Z</time>
      </trkpt>
      <trkpt lat="48.13811" lon="6.41118">
        <ele>490.794364</ele>
        <time>2022-06-07T14:56:37.752Z</time>
      </trkpt>
      <trkpt lat="48.1382" lon="6.41126">
        <ele>491.46087</ele>
        <time>2022-06-07T14:56:41.747Z</time>
      </trkpt>
      <trkpt lat="48.13828" lon="6.41134">
        <ele>492.062212</ele>
        <time>2022-06-07T14:56:45.754Z</time>
      </trkpt>
      <trkpt lat="48.13851" lon="6.41146">
        <ele>493.316869</ele>
        <time>2022-06-07T14:57:36.765Z</time>
      </trkpt>
      <trkpt lat="48.13859" lon="6.41155">
        <ele>493.839405</ele>
        <time>2022-06-07T14:57:40.760Z</time>
      </trkpt>
      <trkpt lat="48.13867" lon="6.41167">
        <ele>494.424094</ele>
        <time>2022-06-07T14:57:44.740Z</time>
      </trkpt>
      <trkpt lat="48.13876" lon="6.41176">
        <ele>494.977335</ele>
        <time>2022-06-07T14:57:49.750Z</time>
      </trkpt>
      <trkpt lat="48.13884" lon="6.41185">
        <ele>495.526827</ele>
        <time>2022-06-07T14:57:54.727Z</time>
      </trkpt>
      <trkpt lat="48.13892" lon="6.41193">
        <ele>496.016169</ele>
        <time>2022-06-07T14:57:59.776Z</time>
      </trkpt>
      <trkpt lat="48.13899" lon="6.41204">
        <ele>496.545684</ele>
        <time>2022-06-07T14:58:04.752Z</time>
      </trkpt>
      <trkpt lat="48.13904" lon="6.41217">
        <ele>497.06658</ele>
        <time>2022-06-07T14:58:09.750Z</time>
      </trkpt>
      <trkpt lat="48.13912" lon="6.41229">
        <ele>497.631492</ele>
        <time>2022-06-07T14:58:13.748Z</time>
      </trkpt>
      <trkpt lat="48.1392" lon="6.41235">
        <ele>498.104292</ele>
        <time>2022-06-07T14:58:18.761Z</time>
      </trkpt>
      <trkpt lat="48.13927" lon="6.41227">
        <ele>498.590974</ele>
        <time>2022-06-07T14:58:22.764Z</time>
      </trkpt>
      <trkpt lat="48.13935" lon="6.41217">
        <ele>499.093519</ele>
        <time>2022-06-07T14:58:25.752Z</time>
      </trkpt>
      <trkpt lat="48.13941" lon="6.41208">
        <ele>499.571279</ele>
        <time>2022-06-07T14:58:28.765Z</time>
      </trkpt>
      <trkpt lat="48.13947" lon="6.41198">
        <ele>500.040307</ele>
        <time>2022-06-07T14:58:32.736Z</time>
      </trkpt>
      <trkpt lat="48.13955" lon="6.41191">
        <ele>500.530797</ele>
        <time>2022-06-07T14:58:36.767Z</time>
      </trkpt>
      <trkpt lat="48.13966" lon="6.41183">
        <ele>501.122887</ele>
        <time>2022-06-07T14:58:41.757Z</time>
      </trkpt>
      <trkpt lat="48.13973" lon="6.41174">
        <ele>500.943975</ele>
        <time>2022-06-07T14:58:44.745Z</time>
      </trkpt>
      <trkpt lat="48.13979" lon="6.41162">
        <ele>500.00345</ele>
        <time>2022-06-07T14:58:48.738Z</time>
      </trkpt>
      <trkpt lat="48.13987" lon="6.41153">
        <ele>499.13437</ele>
        <time>2022-06-07T14:58:52.761Z</time>
      </trkpt>
      <trkpt lat="48.13995" lon="6.41144">
        <ele>498.244106</ele>
        <time>2022-06-07T14:58:56.735Z</time>
      </trkpt>
      <trkpt lat="48.14002" lon="6.41136">
        <ele>497.415192</ele>
        <time>2022-06-07T14:59:01.759Z</time>
      </trkpt>
      <trkpt lat="48.14011" lon="6.41126">
        <ele>496.416229</ele>
        <time>2022-06-07T14:59:05.740Z</time>
      </trkpt>
      <trkpt lat="48.14018" lon="6.41115">
        <ele>495.516259</ele>
        <time>2022-06-07T14:59:10.765Z</time>
      </trkpt>
      <trkpt lat="48.14027" lon="6.41103">
        <ele>494.413147</ele>
        <time>2022-06-07T14:59:18.740Z</time>
      </trkpt>
      <trkpt lat="48.14036" lon="6.41093">
        <ele>493.424971</ele>
        <time>2022-06-07T14:59:21.769Z</time>
      </trkpt>
      <trkpt lat="48.14042" lon="6.41083">
        <ele>492.586832</ele>
        <time>2022-06-07T14:59:27.747Z</time>
      </trkpt>
      <trkpt lat="48.14048" lon="6.41072">
        <ele>491.77242</ele>
        <time>2022-06-07T14:59:36.745Z</time>
      </trkpt>
      <trkpt lat="48.14054" lon="6.41056">
        <ele>490.621405</ele>
        <time>2022-06-07T14:59:40.763Z</time>
      </trkpt>
      <trkpt lat="48.14072" lon="6.41039">
        <ele>488.654288</ele>
        <time>2022-06-07T14:59:41.745Z</time>
      </trkpt>
      <trkpt lat="48.14082" lon="6.41034">
        <ele>487.726628</ele>
        <time>2022-06-07T14:59:42.761Z</time>
      </trkpt>
      <trkpt lat="48.14093" lon="6.41023">
        <ele>486.553169</ele>
        <time>2022-06-07T14:59:46.767Z</time>
      </trkpt>
      <trkpt lat="48.14099" lon="6.41011">
        <ele>485.624012</ele>
        <time>2022-06-07T14:59:52.766Z</time>
      </trkpt>
      <trkpt lat="48.14109" lon="6.41">
        <ele>484.520499</ele>
        <time>2022-06-07T14:59:54.748Z</time>
      </trkpt>
      <trkpt lat="48.14119" lon="6.4099">
        <ele>483.392453</ele>
        <time>2022-06-07T14:59:56.755Z</time>
      </trkpt>
      <trkpt lat="48.14127" lon="6.4098">
        <ele>482.49247</ele>
        <time>2022-06-07T15:00:00.756Z</time>
      </trkpt>
      <trkpt lat="48.14137" lon="6.40973">
        <ele>481.4689</ele>
        <time>2022-06-07T15:00:07.774Z</time>
      </trkpt>
      <trkpt lat="48.14157" lon="6.40969">
        <ele>479.700952</ele>
        <time>2022-06-07T15:00:13.771Z</time>
      </trkpt>
      <trkpt lat="48.14167" lon="6.40968">
        <ele>478.821329</ele>
        <time>2022-06-07T15:00:17.759Z</time>
      </trkpt>
      <trkpt lat="48.14182" lon="6.40963">
        <ele>477.427117</ele>
        <time>2022-06-07T15:00:20.755Z</time>
      </trkpt>
      <trkpt lat="48.14194" lon="6.40957">
        <ele>476.234795</ele>
        <time>2022-06-07T15:00:24.775Z</time>
      </trkpt>
      <trkpt lat="48.14203" lon="6.40957">
        <ele>475.421537</ele>
        <time>2022-06-07T15:00:27.758Z</time>
      </trkpt>
      <trkpt lat="48.14214" lon="6.40954">
        <ele>474.464942</ele>
        <time>2022-06-07T15:00:33.737Z</time>
      </trkpt>
      <trkpt lat="48.14232" lon="6.40952">
        <ele>472.846276</ele>
        <time>2022-06-07T15:00:38.751Z</time>
      </trkpt>
      <trkpt lat="48.14243" lon="6.40948">
        <ele>471.757712</ele>
        <time>2022-06-07T15:00:43.745Z</time>
      </trkpt>
      <trkpt lat="48.14257" lon="6.4095">
        <ele>470.512556</ele>
        <time>2022-06-07T15:00:46.740Z</time>
      </trkpt>
      <trkpt lat="48.14264" lon="6.40961">
        <ele>469.577528</ele>
        <time>2022-06-07T15:00:50.739Z</time>
      </trkpt>
      <trkpt lat="48.14269" lon="6.40974">
        <ele>468.86594</ele>
        <time>2022-06-07T15:00:56.749Z</time>
      </trkpt>
      <trkpt lat="48.14272" lon="6.40987">
        <ele>468.901923</ele>
        <time>2022-06-07T15:01:00.755Z</time>
      </trkpt>
      <trkpt lat="48.14273" lon="6.41003">
        <ele>468.941593</ele>
        <time>2022-06-07T15:01:03.748Z</time>
      </trkpt>
      <trkpt lat="48.14275" lon="6.4102">
        <ele>468.985994</ele>
        <time>2022-06-07T15:01:06.761Z</time>
      </trkpt>
      <trkpt lat="48.14277" lon="6.41036">
        <ele>469.028221</ele>
        <time>2022-06-07T15:01:11.737Z</time>
      </trkpt>
      <trkpt lat="48.14281" lon="6.41049">
        <ele>469.062735</ele>
        <time>2022-06-07T15:01:15.737Z</time>
      </trkpt>
      <trkpt lat="48.14283" lon="6.41066">
        <ele>469.106903</ele>
        <time>2022-06-07T15:01:19.742Z</time>
      </trkpt>
      <trkpt lat="48.14285" lon="6.4108">
        <ele>469.142615</ele>
        <time>2022-06-07T15:01:23.748Z</time>
      </trkpt>
      <trkpt lat="48.14286" lon="6.41098">
        <ele>469.187202</ele>
        <time>2022-06-07T15:01:26.761Z</time>
      </trkpt>
      <trkpt lat="48.14286" lon="6.41112">
        <ele>469.223626</ele>
        <time>2022-06-07T15:01:29.777Z</time>
      </trkpt>
      <trkpt lat="48.14288" lon="6.41128">
        <ele>469.263383</ele>
        <time>2022-06-07T15:01:33.765Z</time>
      </trkpt>
      <trkpt lat="48.14288" lon="6.41144">
        <ele>469.305111</ele>
        <time>2022-06-07T15:01:37.774Z</time>
      </trkpt>
      <trkpt lat="48.14287" lon="6.41159">
        <ele>469.344072</ele>
        <time>2022-06-07T15:01:41.760Z</time>
      </trkpt>
      <trkpt lat="48.14289" lon="6.41173">
        <ele>469.379871</ele>
        <time>2022-06-07T15:01:45.748Z</time>
      </trkpt>
      <trkpt lat="48.14288" lon="6.41188">
        <ele>469.416383</ele>
        <time>2022-06-07T15:01:49.747Z</time>
      </trkpt>
      <trkpt lat="48.1429" lon="6.41204">
        <ele>469.459183</ele>
        <time>2022-06-07T15:01:54.748Z</time>
      </trkpt>
      <trkpt lat="48.14289" lon="6.4122">
        <ele>469.497556</ele>
        <time>2022-06-07T15:01:58.758Z</time>
      </trkpt>
      <trkpt lat="48.14287" lon="6.41234">
        <ele>469.535495</ele>
        <time>2022-06-07T15:02:03.760Z</time>
      </trkpt>
      <trkpt lat="48.14283" lon="6.41249">
        <ele>470.045411</ele>
        <time>2022-06-07T15:02:08.746Z</time>
      </trkpt>
      <trkpt lat="48.1428" lon="6.41265">
        <ele>470.681066</ele>
        <time>2022-06-07T15:02:14.762Z</time>
      </trkpt>
      <trkpt lat="48.1428" lon="6.41282">
        <ele>471.294544</ele>
        <time>2022-06-07T15:02:19.749Z</time>
      </trkpt>
      <trkpt lat="48.14277" lon="6.41296">
        <ele>471.836286</ele>
        <time>2022-06-07T15:02:23.780Z</time>
      </trkpt>
      <trkpt lat="48.14272" lon="6.41311">
        <ele>472.46009</ele>
        <time>2022-06-07T15:02:28.771Z</time>
      </trkpt>
      <trkpt lat="48.14269" lon="6.41324">
        <ele>472.970577</ele>
        <time>2022-06-07T15:02:32.748Z</time>
      </trkpt>
      <trkpt lat="48.14263" lon="6.41338">
        <ele>473.554613</ele>
        <time>2022-06-07T15:02:37.757Z</time>
      </trkpt>
      <trkpt lat="48.14258" lon="6.4135">
        <ele>474.094468</ele>
        <time>2022-06-07T15:02:41.779Z</time>
      </trkpt>
      <trkpt lat="48.14254" lon="6.41363">
        <ele>474.630078</ele>
        <time>2022-06-07T15:02:45.731Z</time>
      </trkpt>
      <trkpt lat="48.14247" lon="6.41375">
        <ele>475.228811</ele>
        <time>2022-06-07T15:02:50.758Z</time>
      </trkpt>
      <trkpt lat="48.14239" lon="6.41385">
        <ele>475.814394</ele>
        <time>2022-06-07T15:02:55.731Z</time>
      </trkpt>
      <trkpt lat="48.14229" lon="6.41392">
        <ele>476.404351</ele>
        <time>2022-06-07T15:03:00.742Z</time>
      </trkpt>
      <trkpt lat="48.14221" lon="6.41398">
        <ele>476.926502</ele>
        <time>2022-06-07T15:03:06.755Z</time>
      </trkpt>
      <trkpt lat="48.14211" lon="6.41404">
        <ele>477.522404</ele>
        <time>2022-06-07T15:03:09.753Z</time>
      </trkpt>
      <trkpt lat="48.14202" lon="6.41408">
        <ele>478.036689</ele>
        <time>2022-06-07T15:03:14.752Z</time>
      </trkpt>
      <trkpt lat="48.1419" lon="6.41414">
        <ele>478.741848</ele>
        <time>2022-06-07T15:03:17.743Z</time>
      </trkpt>
      <trkpt lat="48.1418" lon="6.41427">
        <ele>479.467907</ele>
        <time>2022-06-07T15:03:21.743Z</time>
      </trkpt>
      <trkpt lat="48.14174" lon="6.41437">
        <ele>480.015424</ele>
        <time>2022-06-07T15:03:24.737Z</time>
      </trkpt>
      <trkpt lat="48.14167" lon="6.41449">
        <ele>480.634054</ele>
        <time>2022-06-07T15:03:28.744Z</time>
      </trkpt>
      <trkpt lat="48.14161" lon="6.41461">
        <ele>481.271299</ele>
        <time>2022-06-07T15:03:32.730Z</time>
      </trkpt>
      <trkpt lat="48.14156" lon="6.41473">
        <ele>481.843596</ele>
        <time>2022-06-07T15:03:36.763Z</time>
      </trkpt>
      <trkpt lat="48.14152" lon="6.4149">
        <ele>482.571702</ele>
        <time>2022-06-07T15:03:42.776Z</time>
      </trkpt>
      <trkpt lat="48.14151" lon="6.41505">
        <ele>483.207144</ele>
        <time>2022-06-07T15:03:46.753Z</time>
      </trkpt>
      <trkpt lat="48.14148" lon="6.41522">
        <ele>483.92544</ele>
        <time>2022-06-07T15:03:51.747Z</time>
      </trkpt>
      <trkpt lat="48.14145" lon="6.41536">
        <ele>484.508507</ele>
        <time>2022-06-07T15:03:55.776Z</time>
      </trkpt>
      <trkpt lat="48.14144" lon="6.4155">
        <ele>485.080873</ele>
        <time>2022-06-07T15:03:58.752Z</time>
      </trkpt>
      <trkpt lat="48.14142" lon="6.41566">
        <ele>485.764477</ele>
        <time>2022-06-07T15:04:03.757Z</time>
      </trkpt>
      <trkpt lat="48.14141" lon="6.41582">
        <ele>486.428359</ele>
        <time>2022-06-07T15:04:07.753Z</time>
      </trkpt>
      <trkpt lat="48.14141" lon="6.41599">
        <ele>487.121514</ele>
        <time>2022-06-07T15:04:11.759Z</time>
      </trkpt>
      <trkpt lat="48.14144" lon="6.41615">
        <ele>487.817053</ele>
        <time>2022-06-07T15:04:15.747Z</time>
      </trkpt>
      <trkpt lat="48.1415" lon="6.41629">
        <ele>488.454718</ele>
        <time>2022-06-07T15:04:19.761Z</time>
      </trkpt>
      <trkpt lat="48.14156" lon="6.4164">
        <ele>489.069465</ele>
        <time>2022-06-07T15:04:24.753Z</time>
      </trkpt>
      <trkpt lat="48.14165" lon="6.41649">
        <ele>489.72268</ele>
        <time>2022-06-07T15:04:29.748Z</time>
      </trkpt>
      <trkpt lat="48.14173" lon="6.41656">
        <ele>490.275559</ele>
        <time>2022-06-07T15:04:33.759Z</time>
      </trkpt>
      <trkpt lat="48.14182" lon="6.41658">
        <ele>490.666042</ele>
        <time>2022-06-07T15:04:37.751Z</time>
      </trkpt>
      <trkpt lat="48.14193" lon="6.41662">
        <ele>490.897441</ele>
        <time>2022-06-07T15:04:43.759Z</time>
      </trkpt>
      <trkpt lat="48.14201" lon="6.41668">
        <ele>491.089699</ele>
        <time>2022-06-07T15:04:46.763Z</time>
      </trkpt>
      <trkpt lat="48.14209" lon="6.41678">
        <ele>491.31294</ele>
        <time>2022-06-07T15:04:51.753Z</time>
      </trkpt>
      <trkpt lat="48.14216" lon="6.4169">
        <ele>491.535621</ele>
        <time>2022-06-07T15:04:55.764Z</time>
      </trkpt>
      <trkpt lat="48.14222" lon="6.417">
        <ele>491.730112</ele>
        <time>2022-06-07T15:05:02.767Z</time>
      </trkpt>
      <trkpt lat="48.14229" lon="6.41711">
        <ele>491.941495</ele>
        <time>2022-06-07T15:05:07.744Z</time>
      </trkpt>
      <trkpt lat="48.14237" lon="6.41723">
        <ele>492.190615</ele>
        <time>2022-06-07T15:05:12.758Z</time>
      </trkpt>
      <trkpt lat="48.14247" lon="6.41733">
        <ele>492.440388</ele>
        <time>2022-06-07T15:05:18.752Z</time>
      </trkpt>
      <trkpt lat="48.14256" lon="6.41744">
        <ele>492.683803</ele>
        <time>2022-06-07T15:05:23.763Z</time>
      </trkpt>
      <trkpt lat="48.1426" lon="6.41758">
        <ele>492.905212</ele>
        <time>2022-06-07T15:05:27.772Z</time>
      </trkpt>
      <trkpt lat="48.14269" lon="6.41776">
        <ele>493.208943</ele>
        <time>2022-06-07T15:05:33.769Z</time>
      </trkpt>
      <trkpt lat="48.14275" lon="6.41792">
        <ele>493.468401</ele>
        <time>2022-06-07T15:05:36.765Z</time>
      </trkpt>
      <trkpt lat="48.14279" lon="6.41805">
        <ele>493.672092</ele>
        <time>2022-06-07T15:05:39.760Z</time>
      </trkpt>
      <trkpt lat="48.14283" lon="6.4182">
        <ele>493.898226</ele>
        <time>2022-06-07T15:05:43.770Z</time>
      </trkpt>
      <trkpt lat="48.14284" lon="6.41835">
        <ele>494.110296</ele>
        <time>2022-06-07T15:05:47.770Z</time>
      </trkpt>
      <trkpt lat="48.14283" lon="6.4185">
        <ele>494.328524</ele>
        <time>2022-06-07T15:05:51.758Z</time>
      </trkpt>
      <trkpt lat="48.14283" lon="6.41866">
        <ele>493.83013</ele>
        <time>2022-06-07T15:05:55.748Z</time>
      </trkpt>
      <trkpt lat="48.14283" lon="6.41882">
        <ele>493.052318</ele>
        <time>2022-06-07T15:06:00.744Z</time>
      </trkpt>
      <trkpt lat="48.14281" lon="6.41901">
        <ele>492.178944</ele>
        <time>2022-06-07T15:06:03.749Z</time>
      </trkpt>
      <trkpt lat="48.14279" lon="6.41914">
        <ele>491.531613</ele>
        <time>2022-06-07T15:06:06.748Z</time>
      </trkpt>
      <trkpt lat="48.14276" lon="6.41929">
        <ele>490.82501</ele>
        <time>2022-06-07T15:06:09.748Z</time>
      </trkpt>
      <trkpt lat="48.14275" lon="6.41947">
        <ele>489.961237</ele>
        <time>2022-06-07T15:06:12.750Z</time>
      </trkpt>
      <trkpt lat="48.14278" lon="6.41965">
        <ele>489.10393</ele>
        <time>2022-06-07T15:06:16.745Z</time>
      </trkpt>
      <trkpt lat="48.14282" lon="6.4198">
        <ele>488.328863</ele>
        <time>2022-06-07T15:06:19.735Z</time>
      </trkpt>
      <trkpt lat="48.14288" lon="6.41992">
        <ele>487.642262</ele>
        <time>2022-06-07T15:06:22.764Z</time>
      </trkpt>
      <trkpt lat="48.14295" lon="6.42001">
        <ele>487.010557</ele>
        <time>2022-06-07T15:06:25.743Z</time>
      </trkpt>
      <trkpt lat="48.14302" lon="6.42008">
        <ele>486.369828</ele>
        <time>2022-06-07T15:06:28.756Z</time>
      </trkpt>
      <trkpt lat="48.14313" lon="6.42017">
        <ele>485.54351</ele>
        <time>2022-06-07T15:06:33.730Z</time>
      </trkpt>
      <trkpt lat="48.14324" lon="6.42023">
        <ele>484.708444</ele>
        <time>2022-06-07T15:06:38.750Z</time>
      </trkpt>
      <trkpt lat="48.14334" lon="6.42027">
        <ele>483.932343</ele>
        <time>2022-06-07T15:06:42.753Z</time>
      </trkpt>
      <trkpt lat="48.14343" lon="6.42034">
        <ele>483.277002</ele>
        <time>2022-06-07T15:06:45.747Z</time>
      </trkpt>
      <trkpt lat="48.14352" lon="6.42043">
        <ele>482.523199</ele>
        <time>2022-06-07T15:06:48.739Z</time>
      </trkpt>
      <trkpt lat="48.1436" lon="6.42055">
        <ele>481.767956</ele>
        <time>2022-06-07T15:06:51.746Z</time>
      </trkpt>
      <trkpt lat="48.14365" lon="6.42066">
        <ele>481.9252</ele>
        <time>2022-06-07T15:06:54.755Z</time>
      </trkpt>
      <trkpt lat="48.14371" lon="6.42078">
        <ele>482.095809</ele>
        <time>2022-06-07T15:06:57.757Z</time>
      </trkpt>
      <trkpt lat="48.14376" lon="6.42094">
        <ele>482.291729</ele>
        <time>2022-06-07T15:07:02.764Z</time>
      </trkpt>
      <trkpt lat="48.14379" lon="6.42109">
        <ele>482.473468</ele>
        <time>2022-06-07T15:07:06.738Z</time>
      </trkpt>
      <trkpt lat="48.14383" lon="6.42126">
        <ele>482.684674</ele>
        <time>2022-06-07T15:07:10.726Z</time>
      </trkpt>
      <trkpt lat="48.14387" lon="6.42142">
        <ele>482.883037</ele>
        <time>2022-06-07T15:07:14.752Z</time>
      </trkpt>
      <trkpt lat="48.14391" lon="6.42156">
        <ele>483.04639</ele>
        <time>2022-06-07T15:07:18.733Z</time>
      </trkpt>
      <trkpt lat="48.14393" lon="6.42171">
        <ele>483.230898</ele>
        <time>2022-06-07T15:07:22.737Z</time>
      </trkpt>
      <trkpt lat="48.14393" lon="6.42188">
        <ele>483.424523</ele>
        <time>2022-06-07T15:07:26.732Z</time>
      </trkpt>
      <trkpt lat="48.14392" lon="6.42202">
        <ele>483.581456</ele>
        <time>2022-06-07T15:07:30.749Z</time>
      </trkpt>
      <trkpt lat="48.14388" lon="6.42215">
        <ele>483.745088</ele>
        <time>2022-06-07T15:07:34.735Z</time>
      </trkpt>
      <trkpt lat="48.14381" lon="6.42225">
        <ele>483.908644</ele>
        <time>2022-06-07T15:07:38.735Z</time>
      </trkpt>
      <trkpt lat="48.14379" lon="6.42242">
        <ele>484.111514</ele>
        <time>2022-06-07T15:07:43.746Z</time>
      </trkpt>
      <trkpt lat="48.14383" lon="6.42259">
        <ele>484.313088</ele>
        <time>2022-06-07T15:07:46.773Z</time>
      </trkpt>
      <trkpt lat="48.14386" lon="6.42274">
        <ele>484.496391</ele>
        <time>2022-06-07T15:07:49.734Z</time>
      </trkpt>
      <trkpt lat="48.1439" lon="6.42287">
        <ele>484.661107</ele>
        <time>2022-06-07T15:07:53.738Z</time>
      </trkpt>
      <trkpt lat="48.14395" lon="6.42301">
        <ele>484.839549</ele>
        <time>2022-06-07T15:07:57.736Z</time>
      </trkpt>
      <trkpt lat="48.144" lon="6.42316">
        <ele>484.705387</ele>
        <time>2022-06-07T15:08:02.765Z</time>
      </trkpt>
      <trkpt lat="48.14405" lon="6.42329">
        <ele>484.581061</ele>
        <time>2022-06-07T15:08:06.746Z</time>
      </trkpt>
      <trkpt lat="48.14409" lon="6.42344">
        <ele>484.437488</ele>
        <time>2022-06-07T15:08:11.751Z</time>
      </trkpt>
      <trkpt lat="48.14412" lon="6.42359">
        <ele>484.307881</ele>
        <time>2022-06-07T15:08:15.772Z</time>
      </trkpt>
      <trkpt lat="48.14416" lon="6.42373">
        <ele>484.181756</ele>
        <time>2022-06-07T15:08:19.756Z</time>
      </trkpt>
      <trkpt lat="48.14418" lon="6.42387">
        <ele>484.057995</ele>
        <time>2022-06-07T15:08:23.737Z</time>
      </trkpt>
      <trkpt lat="48.14418" lon="6.42401">
        <ele>483.94308</ele>
        <time>2022-06-07T15:08:26.742Z</time>
      </trkpt>
      <trkpt lat="48.14417" lon="6.42416">
        <ele>483.817353</ele>
        <time>2022-06-07T15:08:30.750Z</time>
      </trkpt>
      <trkpt lat="48.14418" lon="6.42431">
        <ele>483.687118</ele>
        <time>2022-06-07T15:08:34.732Z</time>
      </trkpt>
      <trkpt lat="48.14421" lon="6.42449">
        <ele>483.532981</ele>
        <time>2022-06-07T15:08:40.745Z</time>
      </trkpt>
      <trkpt lat="48.14425" lon="6.42462">
        <ele>483.409723</ele>
        <time>2022-06-07T15:08:43.752Z</time>
      </trkpt>
      <trkpt lat="48.14431" lon="6.42477">
        <ele>483.269589</ele>
        <time>2022-06-07T15:08:47.770Z</time>
      </trkpt>
      <trkpt lat="48.14436" lon="6.42491">
        <ele>483.126022</ele>
        <time>2022-06-07T15:08:51.744Z</time>
      </trkpt>
      <trkpt lat="48.14437" lon="6.42508">
        <ele>482.986778</ele>
        <time>2022-06-07T15:08:55.759Z</time>
      </trkpt>
      <trkpt lat="48.1444" lon="6.42522">
        <ele>482.860298</ele>
        <time>2022-06-07T15:08:59.756Z</time>
      </trkpt>
      <trkpt lat="48.14441" lon="6.42539">
        <ele>482.723058</ele>
        <time>2022-06-07T15:09:03.775Z</time>
      </trkpt>
      <trkpt lat="48.14437" lon="6.42553">
        <ele>482.59338</ele>
        <time>2022-06-07T15:09:07.773Z</time>
      </trkpt>
      <trkpt lat="48.14432" lon="6.42568">
        <ele>481.792384</ele>
        <time>2022-06-07T15:09:11.736Z</time>
      </trkpt>
      <trkpt lat="48.14424" lon="6.42581">
        <ele>480.77711</ele>
        <time>2022-06-07T15:09:16.757Z</time>
      </trkpt>
      <trkpt lat="48.14418" lon="6.42592">
        <ele>480.004063</ele>
        <time>2022-06-07T15:09:20.759Z</time>
      </trkpt>
      <trkpt lat="48.14412" lon="6.42604">
        <ele>479.147998</ele>
        <time>2022-06-07T15:09:23.746Z</time>
      </trkpt>
      <trkpt lat="48.14407" lon="6.4262">
        <ele>478.168865</ele>
        <time>2022-06-07T15:09:26.762Z</time>
      </trkpt>
      <trkpt lat="48.14405" lon="6.42637">
        <ele>477.236865</ele>
        <time>2022-06-07T15:09:29.747Z</time>
      </trkpt>
      <trkpt lat="48.14403" lon="6.42652">
        <ele>476.357256</ele>
        <time>2022-06-07T15:09:32.773Z</time>
      </trkpt>
      <trkpt lat="48.14405" lon="6.42669">
        <ele>475.41097</ele>
        <time>2022-06-07T15:09:36.784Z</time>
      </trkpt>
      <trkpt lat="48.14412" lon="6.4268">
        <ele>474.577603</ele>
        <time>2022-06-07T15:09:40.754Z</time>
      </trkpt>
      <trkpt lat="48.1442" lon="6.42689">
        <ele>473.703759</ele>
        <time>2022-06-07T15:09:45.752Z</time>
      </trkpt>
      <trkpt lat="48.14427" lon="6.42698">
        <ele>472.945807</ele>
        <time>2022-06-07T15:09:51.751Z</time>
      </trkpt>
      <trkpt lat="48.14432" lon="6.42709">
        <ele>472.177649</ele>
        <time>2022-06-07T15:09:58.773Z</time>
      </trkpt>
      <trkpt lat="48.14442" lon="6.42715">
        <ele>471.345774</ele>
        <time>2022-06-07T15:10:02.747Z</time>
      </trkpt>
      <trkpt lat="48.14451" lon="6.42723">
        <ele>470.477498</ele>
        <time>2022-06-07T15:10:06.813Z</time>
      </trkpt>
      <trkpt lat="48.14459" lon="6.42729">
        <ele>469.672169</ele>
        <time>2022-06-07T15:10:11.741Z</time>
      </trkpt>
      <trkpt lat="48.14469" lon="6.42736">
        <ele>468.794169</ele>
        <time>2022-06-07T15:10:15.777Z</time>
      </trkpt>
      <trkpt lat="48.14479" lon="6.42742">
        <ele>467.916169</ele>
        <time>2022-06-07T15:10:18.755Z</time>
      </trkpt>
      <trkpt lat="48.14487" lon="6.4275">
        <ele>466.788379</ele>
        <time>2022-06-07T15:10:22.742Z</time>
      </trkpt>
      <trkpt lat="48.14497" lon="6.42759">
        <ele>465.301877</ele>
        <time>2022-06-07T15:10:26.773Z</time>
      </trkpt>
      <trkpt lat="48.14508" lon="6.42768">
        <ele>463.75148</ele>
        <time>2022-06-07T15:10:30.771Z</time>
      </trkpt>
      <trkpt lat="48.14513" lon="6.4278">
        <ele>462.459454</ele>
        <time>2022-06-07T15:10:34.776Z</time>
      </trkpt>
      <trkpt lat="48.1452" lon="6.42795">
        <ele>460.914692</ele>
        <time>2022-06-07T15:10:37.756Z</time>
      </trkpt>
      <trkpt lat="48.1453" lon="6.42805">
        <ele>459.357025</ele>
        <time>2022-06-07T15:10:40.769Z</time>
      </trkpt>
      <trkpt lat="48.14536" lon="6.42817">
        <ele>458.056379</ele>
        <time>2022-06-07T15:10:43.751Z</time>
      </trkpt>
      <trkpt lat="48.1454" lon="6.42831">
        <ele>456.787204</ele>
        <time>2022-06-07T15:10:47.730Z</time>
      </trkpt>
      <trkpt lat="48.14543" lon="6.42844">
        <ele>455.55691</ele>
        <time>2022-06-07T15:10:50.758Z</time>
      </trkpt>
      <trkpt lat="48.14548" lon="6.4286">
        <ele>454.008023</ele>
        <time>2022-06-07T15:10:54.749Z</time>
      </trkpt>
      <trkpt lat="48.14551" lon="6.42874">
        <ele>452.764027</ele>
        <time>2022-06-07T15:10:57.771Z</time>
      </trkpt>
      <trkpt lat="48.14551" lon="6.42889">
        <ele>451.452578</ele>
        <time>2022-06-07T15:11:01.763Z</time>
      </trkpt>
      <trkpt lat="48.14551" lon="6.42906">
        <ele>449.984987</ele>
        <time>2022-06-07T15:11:05.765Z</time>
      </trkpt>
      <trkpt lat="48.14548" lon="6.42921">
        <ele>448.650491</ele>
        <time>2022-06-07T15:11:08.747Z</time>
      </trkpt>
      <trkpt lat="48.14547" lon="6.42935">
        <ele>447.462803</ele>
        <time>2022-06-07T15:11:11.759Z</time>
      </trkpt>
      <trkpt lat="48.14545" lon="6.42953">
        <ele>445.870683</ele>
        <time>2022-06-07T15:11:15.787Z</time>
      </trkpt>
      <trkpt lat="48.14541" lon="6.42967">
        <ele>444.540752</ele>
        <time>2022-06-07T15:11:18.753Z</time>
      </trkpt>
      <trkpt lat="48.14539" lon="6.42984">
        <ele>444.010179</ele>
        <time>2022-06-07T15:11:22.744Z</time>
      </trkpt>
      <trkpt lat="48.14535" lon="6.42999">
        <ele>443.644181</ele>
        <time>2022-06-07T15:11:26.771Z</time>
      </trkpt>
      <trkpt lat="48.1453" lon="6.43014">
        <ele>443.275842</ele>
        <time>2022-06-07T15:11:30.758Z</time>
      </trkpt>
      <trkpt lat="48.14527" lon="6.4303">
        <ele>442.900478</ele>
        <time>2022-06-07T15:11:34.776Z</time>
      </trkpt>
      <trkpt lat="48.14524" lon="6.43044">
        <ele>442.576066</ele>
        <time>2022-06-07T15:11:38.750Z</time>
      </trkpt>
      <trkpt lat="48.1452" lon="6.43056">
        <ele>442.266336</ele>
        <time>2022-06-07T15:11:43.746Z</time>
      </trkpt>
      <trkpt lat="48.14512" lon="6.43067">
        <ele>441.917615</ele>
        <time>2022-06-07T15:11:47.753Z</time>
      </trkpt>
      <trkpt lat="48.14504" lon="6.43079">
        <ele>441.551541</ele>
        <time>2022-06-07T15:11:51.743Z</time>
      </trkpt>
      <trkpt lat="48.14494" lon="6.43085">
        <ele>441.175408</ele>
        <time>2022-06-07T15:11:56.739Z</time>
      </trkpt>
      <trkpt lat="48.14484" lon="6.4309">
        <ele>440.828137</ele>
        <time>2022-06-07T15:11:59.759Z</time>
      </trkpt>
      <trkpt lat="48.14472" lon="6.43093">
        <ele>440.429442</ele>
        <time>2022-06-07T15:12:02.747Z</time>
      </trkpt>
      <trkpt lat="48.14461" lon="6.43095">
        <ele>440.062602</ele>
        <time>2022-06-07T15:12:05.739Z</time>
      </trkpt>
      <trkpt lat="48.14451" lon="6.43102">
        <ele>439.683386</ele>
        <time>2022-06-07T15:12:09.735Z</time>
      </trkpt>
      <trkpt lat="48.14441" lon="6.43109">
        <ele>439.306076</ele>
        <time>2022-06-07T15:12:12.765Z</time>
      </trkpt>
      <trkpt lat="48.14431" lon="6.43113">
        <ele>438.966541</ele>
        <time>2022-06-07T15:12:15.742Z</time>
      </trkpt>
      <trkpt lat="48.1442" lon="6.43119">
        <ele>438.586468</ele>
        <time>2022-06-07T15:12:19.735Z</time>
      </trkpt>
      <trkpt lat="48.14413" lon="6.43127">
        <ele>438.30804</ele>
        <time>2022-06-07T15:12:22.739Z</time>
      </trkpt>
      <trkpt lat="48.14403" lon="6.4314">
        <ele>438.196428</ele>
        <time>2022-06-07T15:12:26.752Z</time>
      </trkpt>
      <trkpt lat="48.14394" lon="6.43149">
        <ele>438.103446</ele>
        <time>2022-06-07T15:12:30.723Z</time>
      </trkpt>
      <trkpt lat="48.14387" lon="6.43158">
        <ele>438.024419</ele>
        <time>2022-06-07T15:12:34.733Z</time>
      </trkpt>
      <trkpt lat="48.14383" lon="6.43172">
        <ele>437.942308</ele>
        <time>2022-06-07T15:12:46.764Z</time>
      </trkpt>
      <trkpt lat="48.14385" lon="6.43185">
        <ele>437.865807</ele>
        <time>2022-06-07T15:13:22.701Z</time>
      </trkpt>
      <trkpt lat="48.14397" lon="6.43198">
        <ele>437.738868</ele>
        <time>2022-06-07T15:14:34.760Z</time>
      </trkpt>
      <trkpt lat="48.14389" lon="6.43207">
        <ele>437.651832</ele>
        <time>2022-06-07T15:14:45.772Z</time>
      </trkpt>
      <trkpt lat="48.14384" lon="6.43222">
        <ele>437.557551</ele>
        <time>2022-06-07T15:14:49.779Z</time>
      </trkpt>
      <trkpt lat="48.14383" lon="6.43236">
        <ele>437.476382</ele>
        <time>2022-06-07T15:14:52.775Z</time>
      </trkpt>
      <trkpt lat="48.14383" lon="6.4325">
        <ele>437.396674</ele>
        <time>2022-06-07T15:14:55.786Z</time>
      </trkpt>
      <trkpt lat="48.14386" lon="6.43266">
        <ele>437.301939</ele>
        <time>2022-06-07T15:14:59.766Z</time>
      </trkpt>
      <trkpt lat="48.1439" lon="6.4328">
        <ele>437.21609</ele>
        <time>2022-06-07T15:15:03.767Z</time>
      </trkpt>
      <trkpt lat="48.14396" lon="6.43292">
        <ele>437.12778</ele>
        <time>2022-06-07T15:15:07.745Z</time>
      </trkpt>
      <trkpt lat="48.14405" lon="6.43306">
        <ele>437.018371</ele>
        <time>2022-06-07T15:15:12.762Z</time>
      </trkpt>
      <trkpt lat="48.14414" lon="6.43316">
        <ele>436.926172</ele>
        <time>2022-06-07T15:15:16.745Z</time>
      </trkpt>
      <trkpt lat="48.14421" lon="6.43325">
        <ele>436.842058</ele>
        <time>2022-06-07T15:15:20.750Z</time>
      </trkpt>
      <trkpt lat="48.14428" lon="6.43337">
        <ele>436.784229</ele>
        <time>2022-06-07T15:15:24.757Z</time>
      </trkpt>
      <trkpt lat="48.14437" lon="6.43347">
        <ele>436.781685</ele>
        <time>2022-06-07T15:15:27.766Z</time>
      </trkpt>
      <trkpt lat="48.14446" lon="6.43358">
        <ele>436.779084</ele>
        <time>2022-06-07T15:15:31.753Z</time>
      </trkpt>
      <trkpt lat="48.14454" lon="6.4337">
        <ele>436.77655</ele>
        <time>2022-06-07T15:15:35.749Z</time>
      </trkpt>
      <trkpt lat="48.14463" lon="6.43381">
        <ele>436.773914</ele>
        <time>2022-06-07T15:15:39.768Z</time>
      </trkpt>
      <trkpt lat="48.14472" lon="6.43391">
        <ele>436.771412</ele>
        <time>2022-06-07T15:15:42.748Z</time>
      </trkpt>
      <trkpt lat="48.14479" lon="6.434">
        <ele>436.769265</ele>
        <time>2022-06-07T15:15:45.759Z</time>
      </trkpt>
      <trkpt lat="48.14485" lon="6.4341">
        <ele>436.767187</ele>
        <time>2022-06-07T15:15:48.747Z</time>
      </trkpt>
      <trkpt lat="48.14491" lon="6.43422">
        <ele>436.764968</ele>
        <time>2022-06-07T15:15:51.768Z</time>
      </trkpt>
      <trkpt lat="48.14496" lon="6.43434">
        <ele>436.762849</ele>
        <time>2022-06-07T15:15:55.755Z</time>
      </trkpt>
      <trkpt lat="48.14499" lon="6.43447">
        <ele>436.760677</ele>
        <time>2022-06-07T15:15:59.765Z</time>
      </trkpt>
      <trkpt lat="48.14502" lon="6.43463">
        <ele>436.758217</ele>
        <time>2022-06-07T15:16:03.761Z</time>
      </trkpt>
      <trkpt lat="48.14503" lon="6.43482">
        <ele>436.75533</ele>
        <time>2022-06-07T15:16:07.763Z</time>
      </trkpt>
      <trkpt lat="48.14505" lon="6.43496">
        <ele>436.753121</ele>
        <time>2022-06-07T15:16:10.772Z</time>
      </trkpt>
      <trkpt lat="48.14508" lon="6.43512">
        <ele>436.750555</ele>
        <time>2022-06-07T15:16:14.739Z</time>
      </trkpt>
      <trkpt lat="48.14511" lon="6.43527">
        <ele>436.748172</ele>
        <time>2022-06-07T15:16:17.748Z</time>
      </trkpt>
      <trkpt lat="48.14516" lon="6.4354">
        <ele>436.746046</ele>
        <time>2022-06-07T15:16:20.781Z</time>
      </trkpt>
      <trkpt lat="48.14522" lon="6.43553">
        <ele>436.730781</ele>
        <time>2022-06-07T15:16:24.763Z</time>
      </trkpt>
      <trkpt lat="48.14528" lon="6.43566">
        <ele>436.686942</ele>
        <time>2022-06-07T15:16:27.756Z</time>
      </trkpt>
      <trkpt lat="48.14536" lon="6.43578">
        <ele>436.636317</ele>
        <time>2022-06-07T15:16:31.752Z</time>
      </trkpt>
      <trkpt lat="48.14545" lon="6.43589">
        <ele>436.586912</ele>
        <time>2022-06-07T15:16:35.763Z</time>
      </trkpt>
      <trkpt lat="48.14552" lon="6.43604">
        <ele>436.536109</ele>
        <time>2022-06-07T15:16:39.751Z</time>
      </trkpt>
      <trkpt lat="48.14557" lon="6.43615">
        <ele>436.495637</ele>
        <time>2022-06-07T15:16:42.753Z</time>
      </trkpt>
      <trkpt lat="48.14562" lon="6.43629">
        <ele>436.450223</ele>
        <time>2022-06-07T15:16:46.736Z</time>
      </trkpt>
      <trkpt lat="48.14566" lon="6.43644">
        <ele>436.40502</ele>
        <time>2022-06-07T15:16:50.740Z</time>
      </trkpt>
      <trkpt lat="48.14568" lon="6.4366">
        <ele>436.356664</ele>
        <time>2022-06-07T15:16:54.744Z</time>
      </trkpt>
      <trkpt lat="48.1457" lon="6.43674">
        <ele>436.317597</ele>
        <time>2022-06-07T15:16:57.763Z</time>
      </trkpt>
      <trkpt lat="48.14568" lon="6.43689">
        <ele>436.272873</ele>
        <time>2022-06-07T15:17:01.778Z</time>
      </trkpt>
      <trkpt lat="48.14564" lon="6.43703">
        <ele>436.229983</ele>
        <time>2022-06-07T15:17:05.758Z</time>
      </trkpt>
      <trkpt lat="48.14561" lon="6.43721">
        <ele>436.177632</ele>
        <time>2022-06-07T15:17:09.749Z</time>
      </trkpt>
      <trkpt lat="48.14557" lon="6.43736">
        <ele>436.129042</ele>
        <time>2022-06-07T15:17:13.743Z</time>
      </trkpt>
      <trkpt lat="48.14553" lon="6.43751">
        <ele>436.08411</ele>
        <time>2022-06-07T15:17:17.748Z</time>
      </trkpt>
      <trkpt lat="48.14547" lon="6.43763">
        <ele>436.04215</ele>
        <time>2022-06-07T15:17:20.749Z</time>
      </trkpt>
      <trkpt lat="48.14541" lon="6.43773">
        <ele>436.00115</ele>
        <time>2022-06-07T15:17:23.735Z</time>
      </trkpt>
      <trkpt lat="48.14532" lon="6.43782">
        <ele>435.999557</ele>
        <time>2022-06-07T15:17:27.759Z</time>
      </trkpt>
      <trkpt lat="48.14525" lon="6.4379">
        <ele>436.099532</ele>
        <time>2022-06-07T15:17:30.757Z</time>
      </trkpt>
      <trkpt lat="48.14516" lon="6.43796">
        <ele>436.201682</ele>
        <time>2022-06-07T15:17:33.760Z</time>
      </trkpt>
      <trkpt lat="48.14507" lon="6.43801">
        <ele>436.30506</ele>
        <time>2022-06-07T15:17:37.742Z</time>
      </trkpt>
      <trkpt lat="48.14498" lon="6.43806">
        <ele>436.416345</ele>
        <time>2022-06-07T15:17:41.734Z</time>
      </trkpt>
      <trkpt lat="48.14487" lon="6.43811">
        <ele>436.536486</ele>
        <time>2022-06-07T15:17:45.782Z</time>
      </trkpt>
      <trkpt lat="48.14476" lon="6.43818">
        <ele>436.665574</ele>
        <time>2022-06-07T15:17:49.765Z</time>
      </trkpt>
      <trkpt lat="48.14468" lon="6.43826">
        <ele>436.768162</ele>
        <time>2022-06-07T15:17:52.755Z</time>
      </trkpt>
      <trkpt lat="48.1446" lon="6.43832">
        <ele>436.874214</ele>
        <time>2022-06-07T15:17:55.758Z</time>
      </trkpt>
      <trkpt lat="48.14452" lon="6.4384">
        <ele>436.974734</ele>
        <time>2022-06-07T15:17:58.760Z</time>
      </trkpt>
      <trkpt lat="48.14444" lon="6.4385">
        <ele>437.087913</ele>
        <time>2022-06-07T15:18:02.787Z</time>
      </trkpt>
      <trkpt lat="48.1444" lon="6.43866">
        <ele>437.215207</ele>
        <time>2022-06-07T15:18:07.766Z</time>
      </trkpt>
      <trkpt lat="48.14437" lon="6.43883">
        <ele>437.341366</ele>
        <time>2022-06-07T15:18:11.776Z</time>
      </trkpt>
      <trkpt lat="48.14436" lon="6.439">
        <ele>437.464993</ele>
        <time>2022-06-07T15:18:15.773Z</time>
      </trkpt>
      <trkpt lat="48.14439" lon="6.43915">
        <ele>437.57752</ele>
        <time>2022-06-07T15:18:19.768Z</time>
      </trkpt>
      <trkpt lat="48.14444" lon="6.43932">
        <ele>437.715193</ele>
        <time>2022-06-07T15:18:23.765Z</time>
      </trkpt>
      <trkpt lat="48.14447" lon="6.43945">
        <ele>437.816212</ele>
        <time>2022-06-07T15:18:26.748Z</time>
      </trkpt>
      <trkpt lat="48.14452" lon="6.43959">
        <ele>437.924874</ele>
        <time>2022-06-07T15:18:29.766Z</time>
      </trkpt>
      <trkpt lat="48.14459" lon="6.43968">
        <ele>437.961636</ele>
        <time>2022-06-07T15:18:32.735Z</time>
      </trkpt>
      <trkpt lat="48.14469" lon="6.43972">
        <ele>438.003961</ele>
        <time>2022-06-07T15:18:35.743Z</time>
      </trkpt>
      <trkpt lat="48.1448" lon="6.43974">
        <ele>438.047447</ele>
        <time>2022-06-07T15:18:38.746Z</time>
      </trkpt>
      <trkpt lat="48.1449" lon="6.43974">
        <ele>438.088063</ele>
        <time>2022-06-07T15:18:41.759Z</time>
      </trkpt>
      <trkpt lat="48.14502" lon="6.43971">
        <ele>438.13492</ele>
        <time>2022-06-07T15:18:45.742Z</time>
      </trkpt>
      <trkpt lat="48.14511" lon="6.43971">
        <ele>438.171144</ele>
        <time>2022-06-07T15:18:48.757Z</time>
      </trkpt>
      <trkpt lat="48.14521" lon="6.43971">
        <ele>438.210555</ele>
        <time>2022-06-07T15:18:51.755Z</time>
      </trkpt>
      <trkpt lat="48.1453" lon="6.43975">
        <ele>438.246553</ele>
        <time>2022-06-07T15:18:54.761Z</time>
      </trkpt>
      <trkpt lat="48.14539" lon="6.43984">
        <ele>438.290671</ele>
        <time>2022-06-07T15:18:58.739Z</time>
      </trkpt>
      <trkpt lat="48.14546" lon="6.43997">
        <ele>438.335596</ele>
        <time>2022-06-07T15:19:02.748Z</time>
      </trkpt>
      <trkpt lat="48.1455" lon="6.44011">
        <ele>438.375891</ele>
        <time>2022-06-07T15:19:06.744Z</time>
      </trkpt>
      <trkpt lat="48.14555" lon="6.44022">
        <ele>438.412566</ele>
        <time>2022-06-07T15:19:10.747Z</time>
      </trkpt>
      <trkpt lat="48.14561" lon="6.44037">
        <ele>438.458334</ele>
        <time>2022-06-07T15:19:14.761Z</time>
      </trkpt>
      <trkpt lat="48.14567" lon="6.44052">
        <ele>438.503293</ele>
        <time>2022-06-07T15:19:18.750Z</time>
      </trkpt>
      <trkpt lat="48.1457" lon="6.44067">
        <ele>438.545793</ele>
        <time>2022-06-07T15:19:21.769Z</time>
      </trkpt>
      <trkpt lat="48.1457" lon="6.44082">
        <ele>438.584603</ele>
        <time>2022-06-07T15:19:24.744Z</time>
      </trkpt>
      <trkpt lat="48.14568" lon="6.44096">
        <ele>438.62359</ele>
        <time>2022-06-07T15:19:27.750Z</time>
      </trkpt>
      <trkpt lat="48.14565" lon="6.44109">
        <ele>438.628821</ele>
        <time>2022-06-07T15:19:30.747Z</time>
      </trkpt>
      <trkpt lat="48.14561" lon="6.44122">
        <ele>438.608555</ele>
        <time>2022-06-07T15:19:33.748Z</time>
      </trkpt>
      <trkpt lat="48.14559" lon="6.44139">
        <ele>438.583746</ele>
        <time>2022-06-07T15:19:37.738Z</time>
      </trkpt>
      <trkpt lat="48.14559" lon="6.44152">
        <ele>438.564434</ele>
        <time>2022-06-07T15:19:40.769Z</time>
      </trkpt>
      <trkpt lat="48.14559" lon="6.44166">
        <ele>438.54451</ele>
        <time>2022-06-07T15:19:43.760Z</time>
      </trkpt>
      <trkpt lat="48.14561" lon="6.44184">
        <ele>438.518788</ele>
        <time>2022-06-07T15:19:47.740Z</time>
      </trkpt>
      <trkpt lat="48.14563" lon="6.44199">
        <ele>438.496444</ele>
        <time>2022-06-07T15:19:51.761Z</time>
      </trkpt>
      <trkpt lat="48.14564" lon="6.44213">
        <ele>438.476753</ele>
        <time>2022-06-07T15:19:54.757Z</time>
      </trkpt>
      <trkpt lat="48.14564" lon="6.4423">
        <ele>438.452721</ele>
        <time>2022-06-07T15:19:58.754Z</time>
      </trkpt>
      <trkpt lat="48.14563" lon="6.44246">
        <ele>438.429213</ele>
        <time>2022-06-07T15:20:02.745Z</time>
      </trkpt>
      <trkpt lat="48.14562" lon="6.44263">
        <ele>438.404534</ele>
        <time>2022-06-07T15:20:06.758Z</time>
      </trkpt>
      <trkpt lat="48.14559" lon="6.44276">
        <ele>438.384585</ele>
        <time>2022-06-07T15:20:09.755Z</time>
      </trkpt>
      <trkpt lat="48.14557" lon="6.44292">
        <ele>438.361357</ele>
        <time>2022-06-07T15:20:13.758Z</time>
      </trkpt>
      <trkpt lat="48.14554" lon="6.44308">
        <ele>438.338772</ele>
        <time>2022-06-07T15:20:17.751Z</time>
      </trkpt>
      <trkpt lat="48.14551" lon="6.4432">
        <ele>438.31957</ele>
        <time>2022-06-07T15:20:21.767Z</time>
      </trkpt>
      <trkpt lat="48.14547" lon="6.44332">
        <ele>438.300157</ele>
        <time>2022-06-07T15:20:25.761Z</time>
      </trkpt>
      <trkpt lat="48.14544" lon="6.44347">
        <ele>438.277632</ele>
        <time>2022-06-07T15:20:29.769Z</time>
      </trkpt>
      <trkpt lat="48.1454" lon="6.44362">
        <ele>438.254756</ele>
        <time>2022-06-07T15:20:33.776Z</time>
      </trkpt>
      <trkpt lat="48.14536" lon="6.44375">
        <ele>438.20582</ele>
        <time>2022-06-07T15:20:36.775Z</time>
      </trkpt>
      <trkpt lat="48.14533" lon="6.44388">
        <ele>438.154404</ele>
        <time>2022-06-07T15:20:39.757Z</time>
      </trkpt>
      <trkpt lat="48.1453" lon="6.44404">
        <ele>438.096395</ele>
        <time>2022-06-07T15:20:43.759Z</time>
      </trkpt>
      <trkpt lat="48.14527" lon="6.44419">
        <ele>438.040432</ele>
        <time>2022-06-07T15:20:47.762Z</time>
      </trkpt>
      <trkpt lat="48.14523" lon="6.44433">
        <ele>437.98802</ele>
        <time>2022-06-07T15:20:50.770Z</time>
      </trkpt>
      <trkpt lat="48.1452" lon="6.44451">
        <ele>437.921939</ele>
        <time>2022-06-07T15:20:54.773Z</time>
      </trkpt>
      <trkpt lat="48.14521" lon="6.44466">
        <ele>437.865325</ele>
        <time>2022-06-07T15:20:58.768Z</time>
      </trkpt>
      <trkpt lat="48.14526" lon="6.44482">
        <ele>437.802158</ele>
        <time>2022-06-07T15:21:02.755Z</time>
      </trkpt>
      <trkpt lat="48.14534" lon="6.44494">
        <ele>437.74271</ele>
        <time>2022-06-07T15:21:06.754Z</time>
      </trkpt>
      <trkpt lat="48.14542" lon="6.44501">
        <ele>437.694533</ele>
        <time>2022-06-07T15:21:09.734Z</time>
      </trkpt>
      <trkpt lat="48.1455" lon="6.44509">
        <ele>437.644734</ele>
        <time>2022-06-07T15:21:12.747Z</time>
      </trkpt>
      <trkpt lat="48.14558" lon="6.44521">
        <ele>437.583952</ele>
        <time>2022-06-07T15:21:16.763Z</time>
      </trkpt>
      <trkpt lat="48.14564" lon="6.4453">
        <ele>437.535898</ele>
        <time>2022-06-07T15:21:20.740Z</time>
      </trkpt>
      <trkpt lat="48.14569" lon="6.44542">
        <ele>437.484548</ele>
        <time>2022-06-07T15:21:24.747Z</time>
      </trkpt>
      <trkpt lat="48.14574" lon="6.44556">
        <ele>437.430051</ele>
        <time>2022-06-07T15:21:28.743Z</time>
      </trkpt>
      <trkpt lat="48.14579" lon="6.44568">
        <ele>437.379684</ele>
        <time>2022-06-07T15:21:31.735Z</time>
      </trkpt>
      <trkpt lat="48.14585" lon="6.44582">
        <ele>437.318419</ele>
        <time>2022-06-07T15:21:35.746Z</time>
      </trkpt>
      <trkpt lat="48.14586" lon="6.44597">
        <ele>437.298135</ele>
        <time>2022-06-07T15:21:38.761Z</time>
      </trkpt>
      <trkpt lat="48.14582" lon="6.44609">
        <ele>437.312872</ele>
        <time>2022-06-07T15:21:43.744Z</time>
      </trkpt>
      <trkpt lat="48.14575" lon="6.44621">
        <ele>437.329888</ele>
        <time>2022-06-07T15:21:47.747Z</time>
      </trkpt>
      <trkpt lat="48.14567" lon="6.44631">
        <ele>437.346646</ele>
        <time>2022-06-07T15:21:51.753Z</time>
      </trkpt>
      <trkpt lat="48.14561" lon="6.44645">
        <ele>437.365075</ele>
        <time>2022-06-07T15:21:55.740Z</time>
      </trkpt>
      <trkpt lat="48.14556" lon="6.44658">
        <ele>437.381344</ele>
        <time>2022-06-07T15:21:59.734Z</time>
      </trkpt>
      <trkpt lat="48.14554" lon="6.44672">
        <ele>437.396935</ele>
        <time>2022-06-07T15:22:02.739Z</time>
      </trkpt>
      <trkpt lat="48.14553" lon="6.44685">
        <ele>437.411918</ele>
        <time>2022-06-07T15:22:06.762Z</time>
      </trkpt>
      <trkpt lat="48.14554" lon="6.44702">
        <ele>437.429604</ele>
        <time>2022-06-07T15:22:10.760Z</time>
      </trkpt>
      <trkpt lat="48.14554" lon="6.44715">
        <ele>437.444351</ele>
        <time>2022-06-07T15:22:13.758Z</time>
      </trkpt>
      <trkpt lat="48.14554" lon="6.44729">
        <ele>437.459196</ele>
        <time>2022-06-07T15:22:16.759Z</time>
      </trkpt>
      <trkpt lat="48.14554" lon="6.44746">
        <ele>437.477749</ele>
        <time>2022-06-07T15:22:20.757Z</time>
      </trkpt>
      <trkpt lat="48.14552" lon="6.44759">
        <ele>437.493272</ele>
        <time>2022-06-07T15:22:25.764Z</time>
      </trkpt>
      <trkpt lat="48.14544" lon="6.44766">
        <ele>437.508707</ele>
        <time>2022-06-07T15:22:30.763Z</time>
      </trkpt>
      <trkpt lat="48.14536" lon="6.44775">
        <ele>437.524486</ele>
        <time>2022-06-07T15:22:32.771Z</time>
      </trkpt>
      <trkpt lat="48.14528" lon="6.44789">
        <ele>437.544881</ele>
        <time>2022-06-07T15:22:35.779Z</time>
      </trkpt>
      <trkpt lat="48.14524" lon="6.44801">
        <ele>437.559633</ele>
        <time>2022-06-07T15:22:37.782Z</time>
      </trkpt>
      <trkpt lat="48.14523" lon="6.44819">
        <ele>437.579236</ele>
        <time>2022-06-07T15:22:41.754Z</time>
      </trkpt>
      <trkpt lat="48.14524" lon="6.44835">
        <ele>437.279205</ele>
        <time>2022-06-07T15:22:45.782Z</time>
      </trkpt>
      <trkpt lat="48.14526" lon="6.44849">
        <ele>436.871458</ele>
        <time>2022-06-07T15:22:48.765Z</time>
      </trkpt>
      <trkpt lat="48.14529" lon="6.44863">
        <ele>436.464812</ele>
        <time>2022-06-07T15:22:52.742Z</time>
      </trkpt>
      <trkpt lat="48.14536" lon="6.44875">
        <ele>436.028951</ele>
        <time>2022-06-07T15:22:56.757Z</time>
      </trkpt>
      <trkpt lat="48.14545" lon="6.44886">
        <ele>435.554668</ele>
        <time>2022-06-07T15:23:00.775Z</time>
      </trkpt>
      <trkpt lat="48.14555" lon="6.44889">
        <ele>435.134504</ele>
        <time>2022-06-07T15:23:04.760Z</time>
      </trkpt>
      <trkpt lat="48.14564" lon="6.44886">
        <ele>434.740852</ele>
        <time>2022-06-07T15:23:07.780Z</time>
      </trkpt>
      <trkpt lat="48.14575" lon="6.44885">
        <ele>434.29993</ele>
        <time>2022-06-07T15:23:10.780Z</time>
      </trkpt>
      <trkpt lat="48.14584" lon="6.44888">
        <ele>433.897161</ele>
        <time>2022-06-07T15:23:13.776Z</time>
      </trkpt>
      <trkpt lat="48.14611" lon="6.44885">
        <ele>432.764695</ele>
        <time>2022-06-07T15:24:52.748Z</time>
      </trkpt>
      <trkpt lat="48.14621" lon="6.44881">
        <ele>432.354244</ele>
        <time>2022-06-07T15:24:55.771Z</time>
      </trkpt>
      <trkpt lat="48.14629" lon="6.44876">
        <ele>431.979886</ele>
        <time>2022-06-07T15:24:58.749Z</time>
      </trkpt>
      <trkpt lat="48.14636" lon="6.44867">
        <ele>431.595355</ele>
        <time>2022-06-07T15:25:01.782Z</time>
      </trkpt>
      <trkpt lat="48.14642" lon="6.44855">
        <ele>431.185953</ele>
        <time>2022-06-07T15:25:04.779Z</time>
      </trkpt>
      <trkpt lat="48.14649" lon="6.44845">
        <ele>430.793783</ele>
        <time>2022-06-07T15:25:08.770Z</time>
      </trkpt>
      <trkpt lat="48.14654" lon="6.44829">
        <ele>430.300747</ele>
        <time>2022-06-07T15:25:12.774Z</time>
      </trkpt>
      <trkpt lat="48.14662" lon="6.44818">
        <ele>429.779311</ele>
        <time>2022-06-07T15:25:15.769Z</time>
      </trkpt>
      <trkpt lat="48.14669" lon="6.44806">
        <ele>429.25237</ele>
        <time>2022-06-07T15:25:18.754Z</time>
      </trkpt>
      <trkpt lat="48.14675" lon="6.4479">
        <ele>428.614799</ele>
        <time>2022-06-07T15:25:22.763Z</time>
      </trkpt>
      <trkpt lat="48.14683" lon="6.44781">
        <ele>428.108361</ele>
        <time>2022-06-07T15:25:25.773Z</time>
      </trkpt>
      <trkpt lat="48.14691" lon="6.44771">
        <ele>427.586528</ele>
        <time>2022-06-07T15:25:28.777Z</time>
      </trkpt>
      <trkpt lat="48.14699" lon="6.44761">
        <ele>427.044029</ele>
        <time>2022-06-07T15:25:30.755Z</time>
      </trkpt>
      <trkpt lat="48.14709" lon="6.44753">
        <ele>426.465205</ele>
        <time>2022-06-07T15:25:33.796Z</time>
      </trkpt>
      <trkpt lat="48.14719" lon="6.44745">
        <ele>425.936606</ele>
        <time>2022-06-07T15:25:36.771Z</time>
      </trkpt>
      <trkpt lat="48.14728" lon="6.44736">
        <ele>425.368893</ele>
        <time>2022-06-07T15:25:40.774Z</time>
      </trkpt>
      <trkpt lat="48.14738" lon="6.44738">
        <ele>424.852</ele>
        <time>2022-06-07T15:25:44.778Z</time>
      </trkpt>
      <trkpt lat="48.14747" lon="6.44741">
        <ele>424.39447</ele>
        <time>2022-06-07T15:25:47.746Z</time>
      </trkpt>
      <trkpt lat="48.14758" lon="6.44746">
        <ele>423.77563</ele>
        <time>2022-06-07T15:25:51.747Z</time>
      </trkpt>
      <trkpt lat="48.14768" lon="6.44752">
        <ele>423.273916</ele>
        <time>2022-06-07T15:25:54.775Z</time>
      </trkpt>
      <trkpt lat="48.14777" lon="6.44755">
        <ele>422.781256</ele>
        <time>2022-06-07T15:25:57.785Z</time>
      </trkpt>
      <trkpt lat="48.14788" lon="6.44762">
        <ele>422.172597</ele>
        <time>2022-06-07T15:26:01.774Z</time>
      </trkpt>
      <trkpt lat="48.14798" lon="6.44764">
        <ele>421.659365</ele>
        <time>2022-06-07T15:26:04.780Z</time>
      </trkpt>
      <trkpt lat="48.14808" lon="6.44765">
        <ele>421.180841</ele>
        <time>2022-06-07T15:26:07.753Z</time>
      </trkpt>
      <trkpt lat="48.14818" lon="6.4477">
        <ele>420.708421</ele>
        <time>2022-06-07T15:26:10.772Z</time>
      </trkpt>
      <trkpt lat="48.14827" lon="6.44773">
        <ele>420.335688</ele>
        <time>2022-06-07T15:26:13.768Z</time>
      </trkpt>
      <trkpt lat="48.14836" lon="6.44773">
        <ele>419.933422</ele>
        <time>2022-06-07T15:26:16.765Z</time>
      </trkpt>
      <trkpt lat="48.14848" lon="6.44777">
        <ele>419.426711</ele>
        <time>2022-06-07T15:26:20.769Z</time>
      </trkpt>
      <trkpt lat="48.14858" lon="6.4478">
        <ele>419.019026</ele>
        <time>2022-06-07T15:26:23.792Z</time>
      </trkpt>
      <trkpt lat="48.14868" lon="6.44784">
        <ele>418.610095</ele>
        <time>2022-06-07T15:26:26.782Z</time>
      </trkpt>
      <trkpt lat="48.14877" lon="6.4479">
        <ele>418.213404</ele>
        <time>2022-06-07T15:26:29.780Z</time>
      </trkpt>
      <trkpt lat="48.14887" lon="6.44799">
        <ele>417.740894</ele>
        <time>2022-06-07T15:26:33.773Z</time>
      </trkpt>
      <trkpt lat="48.14894" lon="6.44806">
        <ele>417.357607</ele>
        <time>2022-06-07T15:26:36.756Z</time>
      </trkpt>
      <trkpt lat="48.14904" lon="6.44816">
        <ele>416.898143</ele>
        <time>2022-06-07T15:26:40.778Z</time>
      </trkpt>
      <trkpt lat="48.14911" lon="6.44824">
        <ele>416.524237</ele>
        <time>2022-06-07T15:26:43.769Z</time>
      </trkpt>
      <trkpt lat="48.14918" lon="6.44833">
        <ele>416.149951</ele>
        <time>2022-06-07T15:26:46.746Z</time>
      </trkpt>
      <trkpt lat="48.14927" lon="6.44841">
        <ele>415.72384</ele>
        <time>2022-06-07T15:26:50.750Z</time>
      </trkpt>
      <trkpt lat="48.14935" lon="6.44849">
        <ele>415.3376</ele>
        <time>2022-06-07T15:26:54.765Z</time>
      </trkpt>
      <trkpt lat="48.14945" lon="6.44855">
        <ele>414.893303</ele>
        <time>2022-06-07T15:26:58.763Z</time>
      </trkpt>
      <trkpt lat="48.14955" lon="6.4485">
        <ele>414.454327</ele>
        <time>2022-06-07T15:27:01.760Z</time>
      </trkpt>
      <trkpt lat="48.14967" lon="6.4485">
        <ele>413.941992</ele>
        <time>2022-06-07T15:27:04.759Z</time>
      </trkpt>
      <trkpt lat="48.14978" lon="6.44847">
        <ele>413.681348</ele>
        <time>2022-06-07T15:27:07.753Z</time>
      </trkpt>
      <trkpt lat="48.14987" lon="6.44856">
        <ele>414.015878</ele>
        <time>2022-06-07T15:27:11.742Z</time>
      </trkpt>
      <trkpt lat="48.14993" lon="6.4487">
        <ele>414.372527</ele>
        <time>2022-06-07T15:27:15.780Z</time>
      </trkpt>
      <trkpt lat="48.15" lon="6.44882">
        <ele>414.699625</ele>
        <time>2022-06-07T15:27:18.778Z</time>
      </trkpt>
      <trkpt lat="48.15006" lon="6.44894">
        <ele>414.987902</ele>
        <time>2022-06-07T15:27:22.741Z</time>
      </trkpt>
      <trkpt lat="48.15" lon="6.44905">
        <ele>415.275314</ele>
        <time>2022-06-07T15:27:27.777Z</time>
      </trkpt>
      <trkpt lat="48.14991" lon="6.44906">
        <ele>415.555524</ele>
        <time>2022-06-07T15:27:31.789Z</time>
      </trkpt>
      <trkpt lat="48.14981" lon="6.44913">
        <ele>415.876203</ele>
        <time>2022-06-07T15:27:34.762Z</time>
      </trkpt>
      <trkpt lat="48.14973" lon="6.44918">
        <ele>416.156763</ele>
        <time>2022-06-07T15:27:37.770Z</time>
      </trkpt>
      <trkpt lat="48.14962" lon="6.44924">
        <ele>416.522904</ele>
        <time>2022-06-07T15:27:41.767Z</time>
      </trkpt>
      <trkpt lat="48.14952" lon="6.44928">
        <ele>416.831477</ele>
        <time>2022-06-07T15:27:45.761Z</time>
      </trkpt>
      <trkpt lat="48.14943" lon="6.44931">
        <ele>417.114762</ele>
        <time>2022-06-07T15:27:49.795Z</time>
      </trkpt>
      <trkpt lat="48.14932" lon="6.44934">
        <ele>417.447138</ele>
        <time>2022-06-07T15:27:54.770Z</time>
      </trkpt>
      <trkpt lat="48.14924" lon="6.44939">
        <ele>417.729825</ele>
        <time>2022-06-07T15:27:59.782Z</time>
      </trkpt>
      <trkpt lat="48.14914" lon="6.44942">
        <ele>418.042025</ele>
        <time>2022-06-07T15:28:04.764Z</time>
      </trkpt>
      <trkpt lat="48.14905" lon="6.44945">
        <ele>418.326229</ele>
        <time>2022-06-07T15:28:08.780Z</time>
      </trkpt>
      <trkpt lat="48.14895" lon="6.44951">
        <ele>418.63779</ele>
        <time>2022-06-07T15:28:12.791Z</time>
      </trkpt>
      <trkpt lat="48.14887" lon="6.44956">
        <ele>418.918622</ele>
        <time>2022-06-07T15:28:16.782Z</time>
      </trkpt>
      <trkpt lat="48.14879" lon="6.44964">
        <ele>419.133155</ele>
        <time>2022-06-07T15:28:20.766Z</time>
      </trkpt>
      <trkpt lat="48.14869" lon="6.44972">
        <ele>419.133155</ele>
        <time>2022-06-07T15:28:25.756Z</time>
      </trkpt>
      <trkpt lat="48.14859" lon="6.44979">
        <ele>419.133155</ele>
        <time>2022-06-07T15:28:29.767Z</time>
      </trkpt>
      <trkpt lat="48.14849" lon="6.44988">
        <ele>419.133155</ele>
        <time>2022-06-07T15:28:33.757Z</time>
      </trkpt>
      <trkpt lat="48.14839" lon="6.44996">
        <ele>419.133155</ele>
        <time>2022-06-07T15:28:37.778Z</time>
      </trkpt>
      <trkpt lat="48.14831" lon="6.45004">
        <ele>419.133155</ele>
        <time>2022-06-07T15:28:40.776Z</time>
      </trkpt>
      <trkpt lat="48.14824" lon="6.45012">
        <ele>419.133155</ele>
        <time>2022-06-07T15:28:43.762Z</time>
      </trkpt>
      <trkpt lat="48.14815" lon="6.45022">
        <ele>419.133155</ele>
        <time>2022-06-07T15:28:47.757Z</time>
      </trkpt>
      <trkpt lat="48.14806" lon="6.45032">
        <ele>419.133155</ele>
        <time>2022-06-07T15:28:51.769Z</time>
      </trkpt>
      <trkpt lat="48.14797" lon="6.45043">
        <ele>419.133155</ele>
        <time>2022-06-07T15:28:55.759Z</time>
      </trkpt>
      <trkpt lat="48.14788" lon="6.45054">
        <ele>419.133155</ele>
        <time>2022-06-07T15:28:59.769Z</time>
      </trkpt>
      <trkpt lat="48.14781" lon="6.45064">
        <ele>419.133155</ele>
        <time>2022-06-07T15:29:02.755Z</time>
      </trkpt>
      <trkpt lat="48.14777" lon="6.45079">
        <ele>419.133155</ele>
        <time>2022-06-07T15:29:06.762Z</time>
      </trkpt>
      <trkpt lat="48.14777" lon="6.45095">
        <ele>419.133155</ele>
        <time>2022-06-07T15:29:10.791Z</time>
      </trkpt>
      <trkpt lat="48.14777" lon="6.45109">
        <ele>419.133155</ele>
        <time>2022-06-07T15:29:13.781Z</time>
      </trkpt>
      <trkpt lat="48.14775" lon="6.45125">
        <ele>419.133155</ele>
        <time>2022-06-07T15:29:17.814Z</time>
      </trkpt>
      <trkpt lat="48.14774" lon="6.45142">
        <ele>419.133155</ele>
        <time>2022-06-07T15:29:21.751Z</time>
      </trkpt>
      <trkpt lat="48.14774" lon="6.45157">
        <ele>419.133155</ele>
        <time>2022-06-07T15:29:25.761Z</time>
      </trkpt>
      <trkpt lat="48.14785" lon="6.45161">
        <ele>419.133155</ele>
        <time>2022-06-07T15:29:29.789Z</time>
      </trkpt>
      <trkpt lat="48.14791" lon="6.45161">
        <ele>419.133155</ele>
        <time>2022-06-07T15:29:34.046Z</time>
      </trkpt>
    </trkseg>
  </trk>
</gpx>